AA4206 / N244NN 7700 Squawk Report (29th of July, 2021)

Aircraft E75L Reg No. N244NN Age N/A
Model Emb-175 Jet engines 2 First flight N/A
Registered 07-11-16 Rollout 08-16 Delivered 08-11-16
Construction No. 17000609 Line No. N/A Series 200LR
ADSHEX A24014 Airline name Envoy Air Owner Envoy Air
Airfield based Dallas-Fort Worth~TX~N First tracked N/A

Flight history for N244NN

Route Flight No Date Playback
Dallas Fort Worth (DFW) - Evansville Regional (EVV) AA4015 2021-09-18 04:19:00
Dallas Fort Worth (DFW) - Tulsa Intl (TUL) - Dallas Fort Worth (DFW) AA4162 2021-09-18 02:08:00
Dallas Fort Worth (DFW) - Wilmington Intl (ILM) - Dallas Fort Worth (DFW) AA4234 2021-09-17 21:46:00
Huntsville International Airport-Carl T Jones Field (HSV) - Dallas Fort Worth (DFW) AA3832 2021-09-17 14:18:00
Dallas Fort Worth (DFW) - Huntsville International Airport-Carl T Jones Field (HSV) AA3852 2021-09-17 12:23:00
Dallas Fort Worth (DFW) - Springfield Branson Natl (SGF) - Dallas Fort Worth (DFW) AA3808 2021-09-17 00:50:00
Grand Junction Regional (GJT) - Dallas Fort Worth (DFW) AA3786 2021-09-16 20:20:00
Phoenix Sky Harbor Intl (PHX) - Grand Junction Regional (GJT) AA4119 2021-09-16 18:23:00
Long Beach (LGB) - Phoenix Sky Harbor Intl (PHX) AA4078 2021-09-16 15:36:00
Phoenix Sky Harbor Intl (PHX) - Long Beach (LGB) AA4068 2021-09-16 14:08:00
Phoenix Sky Harbor Intl (PHX) - Salt Lake City Intl (SLC) - Phoenix Sky Harbor Intl (PHX) AA4291 2021-09-16 03:09:00
Phoenix Sky Harbor Intl (PHX) - San Luis County Regional Airport (SBP) - Phoenix Sky Harbor Intl (PHX) AA4259 2021-09-15 19:27:00
Grand Junction Regional (GJT) - Phoenix Sky Harbor Intl (PHX) AA4104 2021-09-15 15:19:00
Phoenix Sky Harbor Intl (PHX) - Grand Junction Regional (GJT) AA4102 2021-09-15 12:57:00
Grand Junction Regional (GJT) - Phoenix Sky Harbor Intl (PHX) AA3586 2021-09-15 00:48:00
Dallas Fort Worth (DFW) - Grand Junction Regional (GJT) AA3932 2021-09-14 22:14:00
Cincinnati Northern Kentucky Intl (CVG) - Dallas Fort Worth (DFW) AA3567 2021-09-14 18:42:00
Chicago Ohare Intl (ORD) - Cincinnati Northern Kentucky Intl (CVG) AA3503 2021-09-14 15:48:00
Cincinnati Northern Kentucky Intl (CVG) - Chicago Ohare Intl (ORD) AA3764 2021-09-14 13:26:00
Ronald Reagan Washington Natl (DCA) - Cincinnati Northern Kentucky Intl (CVG) AA4084 2021-09-14 03:30:00
Time Lat Lon Altitude Heading Speed Vertical Rate
2021-07-29 22:40:39 GMT 41.976379 -87.898567 0 352 11 0
2021-07-29 22:40:38 GMT 41.976341 -87.898621 0 341 11 0
2021-07-29 22:40:37 GMT 41.976280 -87.898666 0 330 10 0
2021-07-29 22:40:35 GMT 41.976189 -87.898689 0 312 10 0
2021-07-29 22:40:34 GMT 41.976139 -87.898682 0 304 11 0
2021-07-29 22:40:33 GMT 41.976082 -87.898712 0 297 13 0
2021-07-29 22:40:31 GMT 41.976009 -87.898643 0 294 15 0
2021-07-29 22:40:30 GMT 41.975960 -87.898582 0 291 15 0
2021-07-29 22:40:29 GMT 41.975941 -87.898529 0 290 16 0
2021-07-29 22:40:27 GMT 41.975891 -87.898354 0 290 17 0
2021-07-29 22:40:26 GMT 41.975861 -87.898270 0 288 17 0
2021-07-29 22:40:25 GMT 41.975830 -87.898178 0 287 18 0
2021-07-29 22:40:23 GMT 41.975788 -87.898003 0 288 20 0
2021-07-29 22:40:22 GMT 41.975761 -87.897903 0 289 20 0
2021-07-29 22:40:21 GMT 41.975739 -87.897781 0 290 20 0
2021-07-29 22:40:20 GMT 41.975712 -87.897667 0 290 21 0
2021-07-29 22:40:18 GMT 41.975651 -87.897423 0 290 20 0
2021-07-29 22:40:16 GMT 41.975578 -87.897179 0 291 20 0
2021-07-29 22:40:15 GMT 41.975552 -87.897041 0 291 20 0
2021-07-29 22:40:14 GMT 41.975529 -87.896942 0 291 20 0
2021-07-29 22:40:13 GMT 41.975510 -87.896820 0 292 20 0
2021-07-29 22:40:12 GMT 41.975491 -87.896698 0 292 20 0
2021-07-29 22:40:10 GMT 41.975430 -87.896469 0 292 20 0
2021-07-29 22:40:09 GMT 41.975391 -87.896362 0 292 20 0
2021-07-29 22:40:08 GMT 41.975361 -87.896248 0 292 20 0
2021-07-29 22:40:07 GMT 41.975300 -87.896042 0 295 23 0
2021-07-29 22:40:05 GMT 41.975269 -87.895882 0 301 20 0
2021-07-29 22:40:03 GMT 41.975159 -87.895638 0 298 17 0
2021-07-29 22:40:02 GMT 41.975128 -87.895561 0 297 18 0
2021-07-29 22:40:01 GMT 41.975052 -87.895370 0 295 19 0
2021-07-29 22:39:59 GMT 41.975010 -87.895279 0 290 20 0
2021-07-29 22:39:58 GMT 41.974972 -87.895187 0 289 21 0
2021-07-29 22:39:57 GMT 41.974911 -87.894958 0 300 21 0
2021-07-29 22:39:55 GMT 41.974861 -87.894859 0 305 21 0
2021-07-29 22:39:54 GMT 41.974812 -87.894730 0 313 19 0
2021-07-29 22:39:53 GMT 41.974751 -87.894608 0 327 17 0
2021-07-29 22:39:51 GMT 41.974628 -87.894402 0 354 17 0
2021-07-29 22:39:50 GMT 41.974560 -87.894386 0 354 18 0
2021-07-29 22:39:49 GMT 41.974491 -87.894409 0 351 20 0
2021-07-29 22:39:47 GMT 41.974300 -87.894341 0 0 19 0
2021-07-29 22:39:45 GMT 41.974121 -87.894348 0 353 17 0
2021-07-29 22:39:44 GMT 41.974060 -87.894341 0 355 20 0
2021-07-29 22:39:43 GMT 41.973969 -87.894333 0 355 21 0
2021-07-29 22:39:41 GMT 41.973782 -87.894310 0 359 22 0
2021-07-29 22:39:40 GMT 41.973671 -87.894287 0 3 22 0
2021-07-29 22:39:39 GMT 41.973591 -87.894302 0 3 24 0
2021-07-29 22:39:37 GMT 41.973358 -87.894318 0 359 23 0
2021-07-29 22:39:36 GMT 41.973270 -87.894318 0 359 24 0
2021-07-29 22:39:35 GMT 41.973160 -87.894333 0 357 24 0
2021-07-29 22:39:33 GMT 41.972939 -87.894302 0 3 26 0
2021-07-29 22:39:31 GMT 41.972691 -87.894318 0 2 24 0
2021-07-29 22:39:29 GMT 41.972481 -87.894348 0 0 26 0
2021-07-29 22:39:28 GMT 41.972359 -87.894348 0 1 26 0
2021-07-29 22:39:27 GMT 41.972271 -87.894348 0 0 29 0
2021-07-29 22:39:25 GMT 41.971989 -87.894363 0 0 28 0
2021-07-29 22:39:24 GMT 41.971851 -87.894348 0 0 26 0
2021-07-29 22:39:23 GMT 41.971619 -87.894363 0 359 29 0
2021-07-29 22:39:21 GMT 41.971489 -87.894363 0 358 28 0
2021-07-29 22:39:20 GMT 41.971352 -87.894348 0 0 27 0
2021-07-29 22:39:19 GMT 41.971081 -87.894363 0 358 26 0
2021-07-29 22:39:17 GMT 41.970970 -87.894333 0 3 28 0
2021-07-29 22:39:16 GMT 41.970840 -87.894348 0 1 26 0
2021-07-29 22:39:15 GMT 41.970718 -87.894363 0 0 28 0
2021-07-29 22:39:13 GMT 41.970490 -87.894363 0 0 28 0
2021-07-29 22:39:12 GMT 41.970348 -87.894379 0 359 27 0
2021-07-29 22:39:11 GMT 41.970200 -87.894371 0 358 25 0
2021-07-29 22:39:10 GMT 41.970089 -87.894371 0 359 25 0
2021-07-29 22:39:08 GMT 41.969879 -87.894371 0 358 28 0
2021-07-29 22:39:07 GMT 41.969742 -87.894348 0 1 26 0
2021-07-29 22:39:06 GMT 41.969601 -87.894379 0 357 25 0
2021-07-29 22:39:04 GMT 41.969360 -87.894371 0 356 22 0
2021-07-29 22:39:03 GMT 41.969269 -87.894348 0 0 24 0
2021-07-29 22:39:02 GMT 41.969158 -87.894341 0 2 23 0
2021-07-29 22:39:00 GMT 41.968941 -87.894363 0 358 22 0
2021-07-29 22:38:59 GMT 41.968830 -87.894348 0 0 21 0
2021-07-29 22:38:58 GMT 41.968712 -87.894371 0 356 19 0
2021-07-29 22:38:56 GMT 41.968552 -87.894341 0 1 21 0
2021-07-29 22:38:55 GMT 41.968491 -87.894371 0 352 25 0
2021-07-29 22:38:52 GMT 41.968159 -87.894341 0 2 22 0
2021-07-29 22:38:50 GMT 41.967972 -87.894318 0 17 21 0
2021-07-29 22:38:49 GMT 41.967869 -87.894333 0 28 21 0
2021-07-29 22:38:48 GMT 41.967770 -87.894333 0 44 21 0
2021-07-29 22:38:46 GMT 41.967602 -87.894470 0 63 20 0
2021-07-29 22:38:45 GMT 41.967541 -87.894600 0 68 19 0
2021-07-29 22:38:43 GMT 41.967430 -87.894821 0 84 18 0
2021-07-29 22:38:42 GMT 41.967430 -87.894897 0 85 21 0
2021-07-29 22:38:41 GMT 41.967400 -87.895020 0 90 21 0
2021-07-29 22:38:39 GMT 41.967411 -87.895287 0 88 21 0
2021-07-29 22:38:38 GMT 41.967369 -87.895409 0 99 22 0
2021-07-29 22:38:37 GMT 41.967388 -87.895538 0 97 22 0
2021-07-29 22:38:34 GMT 41.967400 -87.895920 0 89 21 0
2021-07-29 22:38:33 GMT 41.967411 -87.896042 0 82 21 0
2021-07-29 22:38:32 GMT 41.967419 -87.896133 0 71 23 0
2021-07-29 22:38:30 GMT 41.967369 -87.896408 0 52 21 0
2021-07-29 22:38:29 GMT 41.967339 -87.896530 0 39 20 0
2021-07-29 22:38:28 GMT 41.967220 -87.896751 0 15 20 0
2021-07-29 22:38:26 GMT 41.967140 -87.896820 0 4 20 0
2021-07-29 22:38:25 GMT 41.967049 -87.896858 0 356 19 0
2021-07-29 22:38:24 GMT 41.966969 -87.896828 0 2 20 0
2021-07-29 22:38:22 GMT 41.966789 -87.896873 0 353 22 0
2021-07-29 22:38:21 GMT 41.966690 -87.896881 0 351 22 0
2021-07-29 22:38:20 GMT 41.966610 -87.896896 0 351 23 0
2021-07-29 22:38:18 GMT 41.966419 -87.896858 0 4 21 0
2021-07-29 22:38:17 GMT 41.966309 -87.896873 0 14 19 0
2021-07-29 22:38:16 GMT 41.966228 -87.896896 0 22 19 0
2021-07-29 22:38:14 GMT 41.966061 -87.896927 0 56 21 0
2021-07-29 22:38:13 GMT 41.965981 -87.897034 0 65 22 0
2021-07-29 22:38:12 GMT 41.965919 -87.897163 0 73 22 0
2021-07-29 22:38:11 GMT 41.965851 -87.897369 0 83 30 0
2021-07-29 22:38:09 GMT 41.965809 -87.897537 0 87 33 0
2021-07-29 22:38:08 GMT 41.965801 -87.897713 0 88 36 0
2021-07-29 22:38:07 GMT 41.965778 -87.897949 0 90 36 0
2021-07-29 22:38:05 GMT 41.965790 -87.898376 0 88 41 0
2021-07-29 22:38:04 GMT 41.965778 -87.898590 0 89 44 0
2021-07-29 22:38:03 GMT 41.965771 -87.898849 0 90 46 0
2021-07-29 22:38:01 GMT 41.965771 -87.899406 625 90 49 0
2021-07-29 22:38:00 GMT 41.965778 -87.899727 625 90 46 0
2021-07-29 22:37:58 GMT 41.965801 -87.900284 600 87 51 -64
2021-07-29 22:37:57 GMT 41.965771 -87.900909 625 88 51 32
2021-07-29 22:37:55 GMT 41.965752 -87.901222 625 89 52 32
2021-07-29 22:37:54 GMT 41.965759 -87.901878 625 88 49 -64
2021-07-29 22:37:53 GMT 41.965759 -87.902222 625 89 47 -96
2021-07-29 22:37:51 GMT 41.965740 -87.902542 600 90 47 -96
2021-07-29 22:37:50 GMT 41.965729 -87.903122 600 91 52 -96
2021-07-29 22:37:48 GMT 41.965759 -87.903442 600 89 54 -96
2021-07-29 22:37:47 GMT 41.965759 -87.903740 600 90 58 -96
2021-07-29 22:37:46 GMT 41.965752 -87.904091 600 90 60 -96
2021-07-29 22:37:44 GMT 41.965771 -87.904839 600 88 63 32
2021-07-29 22:37:43 GMT 41.965771 -87.905228 600 88 64 32
2021-07-29 22:37:41 GMT 41.965752 -87.905991 600 89 69 32
2021-07-29 22:37:40 GMT 41.965721 -87.906418 600 90 70 32
2021-07-29 22:37:39 GMT 41.965740 -87.906837 600 90 71 32
2021-07-29 22:37:37 GMT 41.965740 -87.907700 600 90 75 -64
2021-07-29 22:37:36 GMT 41.965752 -87.908157 600 90 76 -64
2021-07-29 22:37:35 GMT 41.965752 -87.908638 600 89 74 -64
2021-07-29 22:37:33 GMT 41.965721 -87.909592 625 90 74 -64
2021-07-29 22:37:32 GMT 41.965759 -87.910049 625 88 75 -64
2021-07-29 22:37:31 GMT 41.965721 -87.911041 625 91 72 -96
2021-07-29 22:37:29 GMT 41.965721 -87.911491 625 91 75 -96
2021-07-29 22:37:28 GMT 41.965710 -87.911926 625 91 78 -96
2021-07-29 22:37:27 GMT 41.965752 -87.912941 625 89 81 -96
2021-07-29 22:37:25 GMT 41.965771 -87.913406 600 88 87 -96
2021-07-29 22:37:24 GMT 41.965778 -87.913963 600 87 88 32
2021-07-29 22:37:23 GMT 41.965740 -87.915024 600 88 100 32
2021-07-29 22:37:21 GMT 41.965721 -87.915588 600 89 105 -96
2021-07-29 22:37:19 GMT 41.965721 -87.916901 625 89 109 -96
2021-07-29 22:37:18 GMT 41.965710 -87.917549 625 89 113 -96
2021-07-29 22:37:16 GMT 41.965698 -87.918953 625 90 118 0
2021-07-29 22:37:15 GMT 41.965698 -87.919647 625 90 122 0
2021-07-29 22:37:14 GMT 41.965721 -87.921127 625 89 128 0
2021-07-29 22:37:13 GMT 41.965710 -87.922661 625 89 135 0
2021-07-29 22:37:11 GMT 41.965710 -87.922661 625 89 135 0
2021-07-29 22:37:10 GMT 41.965691 -87.923531 625 90 132 0
2021-07-29 22:37:08 GMT 41.965679 -87.925133 625 90 137 -256
2021-07-29 22:37:07 GMT 41.965679 -87.926003 625 90 135 -256
2021-07-29 22:37:06 GMT 41.965691 -87.926826 625 90 136 -256
2021-07-29 22:37:05 GMT 41.965721 -87.927643 650 89 139 -256
2021-07-29 22:37:04 GMT 41.965698 -87.929382 675 89 139 -256
2021-07-29 22:37:02 GMT 41.965649 -87.930260 700 91 136 -256
2021-07-29 22:37:01 GMT 41.965691 -87.931938 700 89 135 -256
2021-07-29 22:36:59 GMT 41.965660 -87.932793 700 91 133 -256
2021-07-29 22:36:58 GMT 41.965679 -87.934486 800 90 134 -256
2021-07-29 22:36:56 GMT 41.965649 -87.935333 800 91 135 -256
2021-07-29 22:36:55 GMT 41.965672 -87.936127 800 91 140 -256
2021-07-29 22:36:53 GMT 41.965740 -87.937843 775 88 139 -256
2021-07-29 22:36:52 GMT 41.965698 -87.938667 775 90 145 -256
2021-07-29 22:36:51 GMT 41.965729 -87.939568 800 88 144 -256
2021-07-29 22:36:49 GMT 41.965691 -87.941383 825 89 144 -256
2021-07-29 22:36:48 GMT 41.965672 -87.942268 900 91 144 -256
2021-07-29 22:36:47 GMT 41.965740 -87.943138 875 87 146 -256
2021-07-29 22:36:45 GMT 41.965710 -87.944946 875 87 143 -256
2021-07-29 22:36:44 GMT 41.965691 -87.945808 900 87 144 -256
2021-07-29 22:36:43 GMT 41.965641 -87.946762 900 88 142 -256
2021-07-29 22:36:42 GMT 41.965599 -87.947670 1,000 90 137 -256
2021-07-29 22:36:40 GMT 41.965591 -87.949387 1,000 90 134 -256
2021-07-29 22:36:39 GMT 41.965580 -87.950188 1,000 91 138 -256
2021-07-29 22:36:38 GMT 41.965591 -87.951080 975 91 134 -256
2021-07-29 22:36:36 GMT 41.965649 -87.952728 1,000 88 139 -256
2021-07-29 22:36:35 GMT 41.965641 -87.953583 1,000 87 138 -256
2021-07-29 22:36:34 GMT 41.965569 -87.954391 1,000 91 146 -256
2021-07-29 22:36:32 GMT 41.965580 -87.956291 1,100 91 140 -256
2021-07-29 22:36:31 GMT 41.965641 -87.957191 1,050 88 137 -256
2021-07-29 22:36:30 GMT 41.965611 -87.957977 1,050 91 143 -256
2021-07-29 22:36:28 GMT 41.965660 -87.959808 1,100 86 136 -256
2021-07-29 22:36:27 GMT 41.965641 -87.960701 1,100 87 132 -256
2021-07-29 22:36:26 GMT 41.965580 -87.961449 1,100 89 141 -256
2021-07-29 22:36:24 GMT 41.965549 -87.963203 1,200 90 141 -256
2021-07-29 22:36:23 GMT 41.965511 -87.964127 1,200 91 137 -256
2021-07-29 22:36:22 GMT 41.965549 -87.964928 1,200 91 143 -960
2021-07-29 22:36:21 GMT 41.965561 -87.966721 1,175 90 142 -960
2021-07-29 22:36:19 GMT 41.965569 -87.967628 1,200 91 139 -960
2021-07-29 22:36:17 GMT 41.965630 -87.969292 1,200 88 145 -960
2021-07-29 22:36:16 GMT 41.965611 -87.970253 1,200 88 139 -960
2021-07-29 22:36:15 GMT 41.965580 -87.971100 1,250 89 141 -960
2021-07-29 22:36:14 GMT 41.965591 -87.972862 1,300 88 137 -960
2021-07-29 22:36:12 GMT 41.965569 -87.973747 1,300 89 135 -960
2021-07-29 22:36:11 GMT 41.965580 -87.974487 1,300 89 142 -960
2021-07-29 22:36:09 GMT 41.965611 -87.976280 1,300 88 140 -960
2021-07-29 22:36:08 GMT 41.965599 -87.977150 1,300 88 141 -960
2021-07-29 22:36:07 GMT 41.965580 -87.978050 1,325 89 137 -960
2021-07-29 22:36:05 GMT 41.965542 -87.979729 1,375 91 143 -960
2021-07-29 22:36:04 GMT 41.965591 -87.980652 1,375 90 141 -960
2021-07-29 22:36:03 GMT 41.965599 -87.981453 1,400 89 147 -960
2021-07-29 22:36:02 GMT 41.965611 -87.983322 1,500 89 141 -960
2021-07-29 22:36:00 GMT 41.965549 -87.984200 1,500 91 141 -960
2021-07-29 22:35:59 GMT 41.965549 -87.985069 1,500 91 142 -960
2021-07-29 22:35:58 GMT 41.965591 -87.986794 1,500 89 140 -960
2021-07-29 22:35:56 GMT 41.965580 -87.987633 1,500 90 141 -960
2021-07-29 22:35:55 GMT 41.965580 -87.988533 1,500 90 140 -960
2021-07-29 22:35:53 GMT 41.965580 -87.990219 1,500 90 142 -960
2021-07-29 22:35:52 GMT 41.965580 -87.991127 1,600 90 141 -960
2021-07-29 22:35:51 GMT 41.965580 -87.992027 1,600 90 139 -960
2021-07-29 22:35:50 GMT 41.965580 -87.992882 1,600 89 140 -960
2021-07-29 22:35:48 GMT 41.965580 -87.994583 1,600 90 143 -960
2021-07-29 22:35:47 GMT 41.965591 -87.995483 1,700 89 143 -960
2021-07-29 22:35:46 GMT 41.965591 -87.996323 1,700 89 145 -960
2021-07-29 22:35:45 GMT 41.965591 -87.998154 1,700 89 141 -960
2021-07-29 22:35:43 GMT 41.965591 -87.999062 1,700 88 139 -960
2021-07-29 22:35:42 GMT 41.965549 -88.000748 1,700 89 141 -960
2021-07-29 22:35:40 GMT 41.965542 -88.001640 1,700 89 140 -960
2021-07-29 22:35:39 GMT 41.965530 -88.002541 1,700 89 138 -960
2021-07-29 22:35:38 GMT 41.965530 -88.003403 1,700 89 138 -960
2021-07-29 22:35:36 GMT 41.965481 -88.005089 1,700 90 140 -960
2021-07-29 22:35:35 GMT 41.965488 -88.005959 1,700 90 140 -960
2021-07-29 22:35:34 GMT 41.965530 -88.007683 1,800 90 140 -960
2021-07-29 22:35:32 GMT 41.965530 -88.008598 1,800 90 138 -960
2021-07-29 22:35:31 GMT 41.965519 -88.009407 1,800 90 140 -960
2021-07-29 22:35:30 GMT 41.965519 -88.010246 1,800 91 141 -960
2021-07-29 22:35:28 GMT 41.965569 -88.012032 1,800 90 140 -960
2021-07-29 22:35:27 GMT 41.965580 -88.012939 1,800 90 139 -960
2021-07-29 22:35:26 GMT 41.965580 -88.014603 1,800 90 143 -960
2021-07-29 22:35:24 GMT 41.965580 -88.015503 2,000 90 142 -960
2021-07-29 22:35:23 GMT 41.965580 -88.016342 2,000 90 144 -960
2021-07-29 22:35:21 GMT 41.965580 -88.018112 2,000 91 146 -32
2021-07-29 22:35:20 GMT 41.965569 -88.019020 2,000 91 146 -32
2021-07-29 22:35:19 GMT 41.965611 -88.019897 2,000 89 148 -32
2021-07-29 22:35:17 GMT 41.965630 -88.021744 2,000 89 147 -32
2021-07-29 22:35:16 GMT 41.965618 -88.022659 2,000 89 147 -32
2021-07-29 22:35:15 GMT 41.965611 -88.023590 2,000 88 146 -32
2021-07-29 22:35:13 GMT 41.965618 -88.025368 2,000 87 151 -32
2021-07-29 22:35:12 GMT 41.965611 -88.026291 2,000 86 152 -32
2021-07-29 22:35:11 GMT 41.965618 -88.027252 2,100 85 152 -32
2021-07-29 22:35:09 GMT 41.965511 -88.029121 2,100 85 154 -32
2021-07-29 22:35:08 GMT 41.965469 -88.030098 2,025 85 154 -32
2021-07-29 22:35:07 GMT 41.965420 -88.031029 2,100 85 156 -32
2021-07-29 22:35:05 GMT 41.965328 -88.032951 2,100 86 159 -32
2021-07-29 22:35:04 GMT 41.965271 -88.033897 2,100 86 162 -32
2021-07-29 22:35:03 GMT 41.965210 -88.034882 2,100 87 163 -32
2021-07-29 22:35:02 GMT 41.965130 -88.036819 2,300 88 169 -32
2021-07-29 22:35:00 GMT 41.965092 -88.037888 2,300 88 168 -32
2021-07-29 22:34:59 GMT 41.965050 -88.038971 2,300 89 167 -32
2021-07-29 22:34:58 GMT 41.965038 -88.039978 2,300 89 169 -32
2021-07-29 22:34:56 GMT 41.965012 -88.042091 2,300 90 170 -32
2021-07-29 22:34:55 GMT 41.964981 -88.043152 2,300 91 171 -32
2021-07-29 22:34:53 GMT 41.964989 -88.045212 2,300 91 176 -32
2021-07-29 22:34:52 GMT 41.964939 -88.047394 2,400 94 176 -32
2021-07-29 22:34:50 GMT 41.964951 -88.048470 2,400 94 177 -32
2021-07-29 22:34:49 GMT 41.964989 -88.049629 2,400 95 175 -32
2021-07-29 22:34:47 GMT 41.965092 -88.051804 2,500 94 178 -32
2021-07-29 22:34:46 GMT 41.965141 -88.052834 2,500 94 184 -32
2021-07-29 22:34:45 GMT 41.965179 -88.053787 2,500 94 196 -32
2021-07-29 22:34:43 GMT 41.965309 -88.056107 2,500 89 201 0
2021-07-29 22:34:39 GMT 41.965446 -88.059891 2,450 91 186 64
2021-07-29 22:34:35 GMT 41.965347 -88.064468 2,475 84 185 -192
2021-07-29 22:34:31 GMT 41.964050 -88.074326 2,475 59 186 -64
2021-07-29 22:34:28 GMT 41.964050 -88.074326 2,475 70 186 64
2021-07-29 22:34:25 GMT 41.961628 -88.081482 2,475 54 186 128
2021-07-29 22:34:21 GMT 41.961628 -88.081482 2,475 58 187 -64
2021-07-29 22:34:17 GMT 41.960560 -88.083969 2,475 59 186 -64
2021-07-29 22:34:14 GMT 41.957199 -88.091377 2,475 58 187 -128
2021-07-29 22:34:10 GMT 41.957199 -88.091377 2,475 57 186 64
2021-07-29 22:34:07 GMT 41.955368 -88.095306 2,475 56 186 128
2021-07-29 22:34:04 GMT 41.954178 -88.097618 2,475 55 186 128
2021-07-29 22:34:00 GMT 41.952347 -88.101112 2,450 50 198 128
2021-07-29 22:33:56 GMT 41.950504 -88.104607 2,475 42 209 -256
2021-07-29 22:33:53 GMT 41.946873 -88.111313 2,475 53 191 -64
2021-07-29 22:33:49 GMT 41.946873 -88.111313 2,450 50 198 128
2021-07-29 22:33:45 GMT 41.943893 -88.116295 2,450 48 200 -128
2021-07-29 22:33:42 GMT 41.942688 -88.118027 2,475 46 203 -192
2021-07-29 22:33:40 GMT 41.940727 -88.120827 2,475 45 206 -256
2021-07-29 22:33:36 GMT 41.938339 -88.123894 2,475 43 208 -256
2021-07-29 22:33:32 GMT 41.935455 -88.127457 2,500 40 208 64
2021-07-29 22:33:29 GMT 41.933510 -88.129639 2,475 37 208 192
2021-07-29 22:33:24 GMT 41.929974 -88.132774 2,475 27 208 64
2021-07-29 22:33:21 GMT 41.926437 -88.134758 2,475 18 210 64
2021-07-29 22:33:19 GMT 41.919754 -88.136131 2,475 357 216 -128
2021-07-29 22:33:14 GMT 41.919754 -88.136131 2,475 1 216 -64
2021-07-29 22:33:10 GMT 41.915913 -88.136093 2,475 358 216 256
2021-07-29 22:33:06 GMT 41.911537 -88.135773 2,475 357 216 -256
2021-07-29 22:33:02 GMT 41.906799 -88.135384 2,475 354 216 -128
2021-07-29 22:32:59 GMT 41.905346 -88.135201 2,475 354 216 -64
2021-07-29 22:32:55 GMT 41.898598 -88.133728 2,475 347 216 128
2021-07-29 22:32:52 GMT 41.898598 -88.133728 2,475 344 216 192
2021-07-29 22:32:48 GMT 41.893478 -88.130951 2,450 332 215 256
2021-07-29 22:32:45 GMT 41.891098 -88.128830 2,475 319 216 -320
2021-07-29 22:32:41 GMT 41.888775 -88.126129 2,475 317 216 -384
2021-07-29 22:32:37 GMT 41.886166 -88.121910 2,575 304 219 -1088
2021-07-29 22:32:34 GMT 41.884323 -88.117409 3,325 289 217 -2496
2021-07-29 22:32:30 GMT 41.882862 -88.112457 2,750 289 218 -1728
2021-07-29 22:32:27 GMT 41.882351 -88.110352 2,800 289 218 -1664
2021-07-29 22:32:24 GMT 41.881046 -88.105118 2,900 289 218 -2112
2021-07-29 22:32:20 GMT 41.879929 -88.100739 3,275 289 218 -2944
2021-07-29 22:32:18 GMT 41.879288 -88.098114 3,150 289 219 -2944
2021-07-29 22:32:15 GMT 41.878487 -88.094833 3,350 289 221 -3008
2021-07-29 22:32:12 GMT 41.877556 -88.091064 3,425 289 223 -2944
2021-07-29 22:32:09 GMT 41.876530 -88.086784 4,025 289 227 -2752
2021-07-29 22:32:06 GMT 41.875397 -88.082199 3,800 289 232 -2432
2021-07-29 22:32:03 GMT 41.874111 -88.076942 3,875 289 233 -2368
2021-07-29 22:32:00 GMT 41.873413 -88.074135 3,950 289 235 -2304
2021-07-29 22:31:57 GMT 41.872387 -88.070114 4,050 289 242 -1984
2021-07-29 22:31:54 GMT 41.871082 -88.064812 4,175 289 252 -1472
2021-07-29 22:31:51 GMT 41.869781 -88.059441 4,250 289 257 -1856
2021-07-29 22:31:48 GMT 41.868992 -88.056381 4,350 289 258 -2432
2021-07-29 22:31:46 GMT 41.868484 -88.054298 4,400 289 258 -2624
2021-07-29 22:31:44 GMT 41.867687 -88.051010 4,500 289 258 -2816
2021-07-29 22:31:41 GMT 41.866615 -88.046730 4,700 289 258 -2880
2021-07-29 22:31:38 GMT 41.865078 -88.040535 4,900 289 258 -3008
2021-07-29 22:31:36 GMT 41.864288 -88.037346 4,950 289 258 -3008
2021-07-29 22:31:33 GMT 41.862652 -88.028358 5,125 289 258 -2944
2021-07-29 22:31:30 GMT 41.862652 -88.028358 7,100 288 254 -2240
2021-07-29 22:31:29 GMT 41.862270 -88.026871 7,100 288 254 -2240
2021-07-29 22:31:28 GMT 41.861500 -88.023888 7,100 288 254 -2240
2021-07-29 22:31:26 GMT 41.861118 -88.022400 7,100 288 254 -2240
2021-07-29 22:31:25 GMT 41.860741 -88.020912 7,100 288 254 -2240
2021-07-29 22:31:23 GMT 41.859982 -88.017937 7,100 288 254 -2240
2021-07-29 22:31:22 GMT 41.859600 -88.016449 7,100 288 254 -2240
2021-07-29 22:31:20 GMT 41.858829 -88.013474 7,100 288 254 -2240
2021-07-29 22:31:19 GMT 41.858452 -88.011978 7,100 288 254 -2240
2021-07-29 22:31:18 GMT 41.858070 -88.010490 7,100 288 254 -2240
2021-07-29 22:31:16 GMT 41.856930 -88.006020 7,100 288 254 -2240
2021-07-29 22:31:14 GMT 41.856541 -88.004532 7,100 288 254 -2240
2021-07-29 22:31:12 GMT 41.855782 -88.001556 7,100 288 254 -2240
2021-07-29 22:31:11 GMT 41.855400 -88.000069 7,100 288 254 -2240
2021-07-29 22:31:10 GMT 41.855019 -87.998581 7,100 288 254 -2240
2021-07-29 22:31:09 GMT 41.854252 -87.995598 7,100 288 254 -2240
2021-07-29 22:31:07 GMT 41.853870 -87.994110 7,100 288 254 -2240
2021-07-29 22:31:06 GMT 41.853489 -87.992622 6,425 288 254 -2240
2021-07-29 22:31:05 GMT 41.852730 -87.989647 7,100 288 254 -2240
2021-07-29 22:31:03 GMT 41.852348 -87.988159 7,100 288 254 -2240
2021-07-29 22:31:02 GMT 41.851959 -87.986671 7,100 288 254 -2240
2021-07-29 22:31:00 GMT 41.851200 -87.983688 7,100 288 254 -2240
2021-07-29 22:30:58 GMT 41.850311 -87.980873 7,100 288 254 -2240
2021-07-29 22:30:57 GMT 41.849560 -87.977882 7,100 288 254 -2240
2021-07-29 22:30:55 GMT 41.849190 -87.976387 7,100 288 254 -2240
2021-07-29 22:30:53 GMT 41.848461 -87.973602 7,300 288 257 -2240
2021-07-29 22:30:52 GMT 41.848080 -87.972099 7,300 288 257 -2240
2021-07-29 22:30:51 GMT 41.847698 -87.970589 7,300 288 257 -2240
2021-07-29 22:30:50 GMT 41.847321 -87.969078 7,300 288 257 -2240
2021-07-29 22:30:48 GMT 41.846539 -87.966316 7,500 288 259 -2240
2021-07-29 22:30:46 GMT 41.845360 -87.962021 7,700 288 261 -2240
2021-07-29 22:30:44 GMT 41.844971 -87.960487 7,700 288 261 -2240
2021-07-29 22:30:42 GMT 41.844200 -87.957420 7,700 288 261 -2240
2021-07-29 22:30:41 GMT 41.843819 -87.955879 7,700 288 261 -2240
2021-07-29 22:30:40 GMT 41.843391 -87.954521 8,100 288 263 -2240
2021-07-29 22:30:39 GMT 41.842621 -87.951439 8,100 288 263 -2240
2021-07-29 22:30:37 GMT 41.842239 -87.949890 8,100 288 263 -2240
2021-07-29 22:30:36 GMT 41.841740 -87.948563 8,100 288 263 -2240
2021-07-29 22:30:34 GMT 41.840981 -87.945450 8,100 288 263 -1088
2021-07-29 22:30:33 GMT 41.840599 -87.943901 8,100 288 263 -1088
2021-07-29 22:30:32 GMT 41.840229 -87.942352 8,100 288 263 -1088
2021-07-29 22:30:30 GMT 41.839481 -87.939323 8,300 288 264 -1088
2021-07-29 22:30:29 GMT 41.839100 -87.937759 8,300 288 264 -1088
2021-07-29 22:30:28 GMT 41.838718 -87.936211 8,300 288 264 -1088
2021-07-29 22:30:26 GMT 41.838032 -87.933319 8,600 288 267 -1088
2021-07-29 22:30:25 GMT 41.837639 -87.931747 8,600 288 267 -1088
2021-07-29 22:30:24 GMT 41.836861 -87.928612 8,375 288 267 -1088
2021-07-29 22:30:22 GMT 41.836380 -87.927094 8,600 288 267 -1088
2021-07-29 22:30:21 GMT 41.835991 -87.925522 8,600 288 267 -1088
2021-07-29 22:30:20 GMT 41.835609 -87.923950 8,600 288 267 -1088
2021-07-29 22:30:19 GMT 41.834839 -87.920807 8,600 288 267 -1088
2021-07-29 22:30:17 GMT 41.834492 -87.919357 8,900 288 268 -1088
2021-07-29 22:30:16 GMT 41.834099 -87.917778 8,900 288 268 -1088
2021-07-29 22:30:14 GMT 41.833328 -87.914619 8,900 288 268 -1088
2021-07-29 22:30:13 GMT 41.832920 -87.913177 8,900 288 269 -1088
2021-07-29 22:30:12 GMT 41.832531 -87.911598 8,900 288 269 -1088
2021-07-29 22:30:11 GMT 41.831760 -87.908432 8,900 288 269 -1088
2021-07-29 22:30:09 GMT 41.831371 -87.906853 8,900 288 269 -1088
2021-07-29 22:30:08 GMT 41.830921 -87.905327 9,100 287 269 -1088
2021-07-29 22:30:06 GMT 41.830151 -87.902161 9,100 287 269 -1088
2021-07-29 22:30:05 GMT 41.829769 -87.900574 9,100 287 269 -1088
2021-07-29 22:30:04 GMT 41.829391 -87.898987 9,100 287 269 -1088
2021-07-29 22:30:02 GMT 41.828499 -87.895882 9,200 287 269 -1088
2021-07-29 22:30:01 GMT 41.828129 -87.894302 9,200 287 269 -1088
2021-07-29 22:30:00 GMT 41.827751 -87.892708 9,200 287 269 -1088
2021-07-29 22:29:58 GMT 41.826988 -87.889748 9,400 287 270 -1088
2021-07-29 22:29:57 GMT 41.826618 -87.888153 9,400 287 270 -1088
2021-07-29 22:29:56 GMT 41.826241 -87.886551 9,400 287 270 -1088
2021-07-29 22:29:55 GMT 41.825600 -87.882156 9,600 289 254 -1088
2021-07-29 22:29:53 GMT 41.825218 -87.880669 9,600 289 254 -1088
2021-07-29 22:29:52 GMT 41.824841 -87.879181 9,600 289 254 -1088
2021-07-29 22:29:50 GMT 41.824070 -87.876213 9,600 289 254 -1088
2021-07-29 22:29:49 GMT 41.823730 -87.874619 9,700 288 256 -1088
2021-07-29 22:29:48 GMT 41.823341 -87.873131 9,700 288 256 -1088
2021-07-29 22:29:46 GMT 41.822571 -87.870132 9,700 288 256 -1088
2021-07-29 22:29:45 GMT 41.822189 -87.868721 9,800 288 262 -1088
2021-07-29 22:29:44 GMT 41.821800 -87.867188 9,800 288 262 -1088
2021-07-29 22:29:42 GMT 41.821018 -87.864120 9,800 288 262 -1088
2021-07-29 22:29:41 GMT 41.820629 -87.862579 9,800 288 262 -1088
2021-07-29 22:29:40 GMT 41.820061 -87.861351 10,000 287 269 -1088
2021-07-29 22:29:38 GMT 41.819321 -87.858170 10,000 287 269 -1088
2021-07-29 22:29:37 GMT 41.818951 -87.856583 10,000 287 269 -1088
2021-07-29 22:29:36 GMT 41.818008 -87.853752 10,000 286 278 128
2021-07-29 22:29:34 GMT 41.817661 -87.852089 10,000 286 278 192
2021-07-29 22:29:33 GMT 41.817299 -87.850441 10,000 286 278 192
2021-07-29 22:29:32 GMT 41.816940 -87.848778 10,000 286 278 192
2021-07-29 22:29:30 GMT 41.816410 -87.846268 10,000 286 301 192
2021-07-29 22:29:29 GMT 41.816002 -87.844490 10,000 286 301 192
2021-07-29 22:29:28 GMT 41.815189 -87.840919 10,000 286 301 192
2021-07-29 22:29:26 GMT 41.814690 -87.839157 10,000 286 302 128
2021-07-29 22:29:25 GMT 41.814362 -87.837662 10,000 286 309 128
2021-07-29 22:29:23 GMT 41.813610 -87.834122 10,000 287 313 128
2021-07-29 22:29:22 GMT 41.813042 -87.832031 10,000 287 306 -32
2021-07-29 22:29:20 GMT 41.812302 -87.828613 10,000 288 312 -32
2021-07-29 22:29:19 GMT 41.811901 -87.827148 10,000 288 321 -32
2021-07-29 22:29:17 GMT 41.810791 -87.822983 9,975 288 309 -32
2021-07-29 22:29:16 GMT 41.810410 -87.821442 9,975 288 316 -32
2021-07-29 22:29:15 GMT 41.810101 -87.819878 9,975 290 323 0
2021-07-29 22:29:13 GMT 41.808788 -87.815323 9,975 290 300 192
2021-07-29 22:29:12 GMT 41.808319 -87.813629 9,975 291 302 192
2021-07-29 22:29:11 GMT 41.807869 -87.811974 9,975 291 305 192
2021-07-29 22:29:10 GMT 41.806969 -87.808563 9,975 294 309 192
2021-07-29 22:29:08 GMT 41.805969 -87.805771 9,975 293 278 192
2021-07-29 22:29:07 GMT 41.805500 -87.804550 9,975 293 289 192
2021-07-29 22:29:05 GMT 41.804798 -87.801453 10,000 297 305 192
2021-07-29 22:29:03 GMT 41.803371 -87.797539 10,000 298 285 192
2021-07-29 22:29:02 GMT 41.802738 -87.796181 10,000 298 293 192
2021-07-29 22:29:01 GMT 41.802311 -87.794762 10,000 299 304 192
2021-07-29 22:29:00 GMT 41.801739 -87.793358 10,000 299 313 192
2021-07-29 22:28:58 GMT 41.800152 -87.789948 10,000 297 309 192
2021-07-29 22:28:57 GMT 41.799671 -87.788544 10,000 298 318 192
2021-07-29 22:28:56 GMT 41.799042 -87.786827 10,000 298 320 192
2021-07-29 22:28:55 GMT 41.797531 -87.783218 9,950 298 316 -128
2021-07-29 22:28:53 GMT 41.796890 -87.781532 9,950 298 318 -128
2021-07-29 22:28:52 GMT 41.796139 -87.779869 9,950 298 318 -128
2021-07-29 22:28:50 GMT 41.794628 -87.775963 10,000 298 303 -128
2021-07-29 22:28:49 GMT 41.793949 -87.774170 10,000 298 300 -128
2021-07-29 22:28:48 GMT 41.793468 -87.772820 10,000 299 314 -128
2021-07-29 22:28:46 GMT 41.792068 -87.769577 10,000 299 319 64
2021-07-29 22:28:45 GMT 41.791241 -87.767708 10,000 298 313 -160
2021-07-29 22:28:43 GMT 41.789879 -87.764542 10,000 298 319 -160
2021-07-29 22:28:42 GMT 41.789219 -87.762650 10,000 299 318 -160
2021-07-29 22:28:41 GMT 41.788490 -87.761169 10,000 298 322 -160
2021-07-29 22:28:39 GMT 41.787209 -87.758080 10,000 299 331 448
2021-07-29 22:28:38 GMT 41.786560 -87.756310 10,000 299 335 448
2021-07-29 22:28:37 GMT 41.785789 -87.754501 10,000 299 335 448
2021-07-29 22:28:36 GMT 41.785049 -87.752663 10,000 299 333 448
2021-07-29 22:28:34 GMT 41.783321 -87.748863 10,000 298 324 64
2021-07-29 22:28:33 GMT 41.782600 -87.747108 10,000 298 324 64
2021-07-29 22:28:32 GMT 41.781879 -87.745354 10,000 298 324 64
2021-07-29 22:28:30 GMT 41.780041 -87.741348 10,000 297 304 64
2021-07-29 22:28:29 GMT 41.779400 -87.739670 10,000 297 304 64
2021-07-29 22:28:27 GMT 41.778221 -87.736473 10,000 297 315 64
2021-07-29 22:28:26 GMT 41.777538 -87.734749 10,000 297 315 64
2021-07-29 22:28:25 GMT 41.776821 -87.733131 10,000 297 319 64
2021-07-29 22:28:24 GMT 41.775539 -87.729507 10,000 298 320 64
2021-07-29 22:28:22 GMT 41.775009 -87.728111 10,000 298 334 -32
2021-07-29 22:28:20 GMT 41.773411 -87.724281 10,000 299 327 0
2021-07-29 22:28:19 GMT 41.772621 -87.722443 10,000 299 326 0
2021-07-29 22:28:18 GMT 41.772251 -87.721107 10,000 300 343 0
2021-07-29 22:28:17 GMT 41.770378 -87.717003 10,000 299 330 96
2021-07-29 22:28:15 GMT 41.769642 -87.715179 10,000 299 331 96
2021-07-29 22:28:13 GMT 41.768509 -87.712502 9,975 299 365 0
2021-07-29 22:28:11 GMT 41.766899 -87.708672 9,975 299 365 64
2021-07-29 22:28:10 GMT 41.765881 -87.706192 10,000 299 350 64
2021-07-29 22:28:09 GMT 41.765491 -87.705208 10,000 299 375 0
2021-07-29 22:28:07 GMT 41.763569 -87.700951 10,000 298 369 -32
2021-07-29 22:28:06 GMT 41.762691 -87.698898 10,000 298 367 -32
2021-07-29 22:28:05 GMT 41.762009 -87.697113 10,000 299 373 -32
2021-07-29 22:28:03 GMT 41.760700 -87.694023 9,975 298 397 -32
2021-07-29 22:28:02 GMT 41.759720 -87.691673 9,975 297 391 -32
2021-07-29 22:28:00 GMT 41.758209 -87.688370 10,000 296 403 -32
2021-07-29 22:27:59 GMT 41.757172 -87.685860 10,000 296 394 -32
2021-07-29 22:27:57 GMT 41.754200 -87.677696 10,000 298 350 -32
2021-07-29 22:27:55 GMT 41.753429 -87.675369 9,975 299 342 0
2021-07-29 22:27:52 GMT 41.751389 -87.671394 9,975 299 342 0
2021-07-29 22:27:49 GMT 41.749146 -87.665909 9,975 299 343 0
2021-07-29 22:27:46 GMT 41.746838 -87.660362 9,975 299 343 -64
2021-07-29 22:27:44 GMT 41.744522 -87.654732 9,975 299 343 -64
2021-07-29 22:27:41 GMT 41.743160 -87.651421 9,975 299 344 0
2021-07-29 22:27:38 GMT 41.740814 -87.645615 9,975 299 344 0
2021-07-29 22:27:35 GMT 41.738342 -87.639626 9,975 299 343 -64
2021-07-29 22:27:31 GMT 41.731522 -87.623024 9,975 299 342 64
2021-07-29 22:27:26 GMT 41.729286 -87.617500 9,975 299 342 0
2021-07-29 22:27:23 GMT 41.726944 -87.611786 9,975 299 341 0
2021-07-29 22:27:20 GMT 41.726944 -87.611786 9,975 299 341 0
2021-07-29 22:27:16 GMT 41.723141 -87.602425 9,975 299 341 0
2021-07-29 22:27:13 GMT 41.720856 -87.596931 9,975 299 340 0
2021-07-29 22:27:10 GMT 41.718624 -87.591377 9,975 299 340 0
2021-07-29 22:27:05 GMT 41.715683 -87.584129 9,975 299 339 0
2021-07-29 22:27:01 GMT 41.712067 -87.575333 9,975 299 339 -64
2021-07-29 22:26:58 GMT 41.708523 -87.566658 9,975 299 338 -64
2021-07-29 22:26:52 GMT 41.705776 -87.560013 9,975 299 339 0
2021-07-29 22:26:49 GMT 41.703186 -87.553795 9,975 299 339 0
2021-07-29 22:26:43 GMT 41.699074 -87.543854 9,975 299 339 0
2021-07-29 22:26:40 GMT 41.695953 -87.536316 9,975 299 339 0
2021-07-29 22:26:37 GMT 41.693985 -87.531509 9,975 299 339 0
2021-07-29 22:26:33 GMT 41.691113 -87.524498 9,975 299 338 0
2021-07-29 22:26:30 GMT 41.689018 -87.519455 9,975 299 339 0
2021-07-29 22:26:27 GMT 41.686066 -87.512283 9,975 299 339 0
2021-07-29 22:26:22 GMT 41.683411 -87.505791 9,975 299 339 0
2021-07-29 22:26:19 GMT 41.680222 -87.497925 9,975 299 339 -64
2021-07-29 22:26:16 GMT 41.679108 -87.495239 9,975 299 339 -64
2021-07-29 22:26:13 GMT 41.676361 -87.488503 9,975 299 340 -64
2021-07-29 22:26:10 GMT 41.674076 -87.482857 9,975 299 339 -64
2021-07-29 22:26:07 GMT 41.671097 -87.475571 9,975 299 339 64
2021-07-29 22:26:02 GMT 41.667618 -87.467087 9,975 299 339 0
2021-07-29 22:25:58 GMT 41.665466 -87.461784 9,975 299 339 0
2021-07-29 22:25:56 GMT 41.663834 -87.457817 9,975 299 338 64
2021-07-29 22:25:52 GMT 41.660809 -87.450340 9,975 299 339 64
2021-07-29 22:25:49 GMT 41.658234 -87.444115 9,975 299 339 64
2021-07-29 22:25:45 GMT 41.655258 -87.436752 9,975 299 339 64
2021-07-29 22:25:41 GMT 41.651917 -87.428635 9,975 299 339 64
2021-07-29 22:25:35 GMT 41.647980 -87.419022 9,975 299 339 0
2021-07-29 22:25:32 GMT 41.645164 -87.412209 9,975 299 339 0
2021-07-29 22:25:28 GMT 41.642513 -87.405632 9,975 299 340 -128
2021-07-29 22:25:24 GMT 41.639832 -87.399178 10,000 299 340 -384
2021-07-29 22:25:21 GMT 41.637577 -87.393623 10,075 299 340 -960
2021-07-29 22:25:16 GMT 41.633945 -87.384743 10,100 299 341 -1088
2021-07-29 22:25:13 GMT 41.631527 -87.378868 10,175 299 341 -1024
2021-07-29 22:25:11 GMT 41.629757 -87.374588 10,250 299 342 -1024
2021-07-29 22:25:07 GMT 41.623398 -87.359222 10,325 299 342 -960
2021-07-29 22:25:03 GMT 41.623398 -87.359222 10,350 299 342 -960
2021-07-29 22:24:59 GMT 41.620495 -87.352104 10,400 299 342 -1024
2021-07-29 22:24:56 GMT 41.618179 -87.346550 10,450 299 342 -1024
2021-07-29 22:24:54 GMT 41.615887 -87.341049 10,500 300 343 -1024
2021-07-29 22:24:51 GMT 41.613976 -87.336578 10,600 300 342 -1152
2021-07-29 22:24:45 GMT 41.609802 -87.326576 10,650 300 342 -1152
2021-07-29 22:24:42 GMT 41.606808 -87.319588 10,725 301 342 -1152
2021-07-29 22:24:38 GMT 41.604126 -87.313530 10,775 302 341 -1152
2021-07-29 22:24:34 GMT 41.600616 -87.306053 10,850 304 341 -1024
2021-07-29 22:24:31 GMT 41.597855 -87.300674 10,900 306 341 -896
2021-07-29 22:24:26 GMT 41.593369 -87.292496 10,950 308 342 -512
2021-07-29 22:24:23 GMT 41.589844 -87.286629 10,975 310 343 -320
2021-07-29 22:24:19 GMT 41.586372 -87.281136 10,975 311 343 0
2021-07-29 22:24:16 GMT 41.582428 -87.274826 10,975 311 343 -64
2021-07-29 22:24:12 GMT 41.580322 -87.271523 10,975 311 343 -64
2021-07-29 22:24:10 GMT 41.577713 -87.267342 10,975 311 343 -64
2021-07-29 22:24:08 GMT 41.576035 -87.264725 10,975 311 343 0
2021-07-29 22:24:05 GMT 41.571941 -87.258209 10,975 311 343 64
2021-07-29 22:24:02 GMT 41.567844 -87.251755 10,975 311 343 0
2021-07-29 22:23:58 GMT 41.565376 -87.247864 10,975 311 343 -64
2021-07-29 22:23:54 GMT 41.561508 -87.241684 10,975 311 343 -64
2021-07-29 22:23:51 GMT 41.554962 -87.231323 10,975 311 342 64
2021-07-29 22:23:49 GMT 41.554962 -87.231323 10,975 311 342 64
2021-07-29 22:23:45 GMT 41.550888 -87.224892 10,975 311 342 64
2021-07-29 22:23:40 GMT 41.547226 -87.219025 10,975 311 342 64
2021-07-29 22:23:38 GMT 41.544567 -87.214836 10,975 311 342 -64
2021-07-29 22:23:34 GMT 41.540470 -87.208389 10,975 311 342 64
2021-07-29 22:23:29 GMT 41.535583 -87.200592 10,975 311 342 -64
2021-07-29 22:23:26 GMT 41.531441 -87.194077 10,975 311 342 0
2021-07-29 22:23:23 GMT 41.528915 -87.190056 10,975 311 342 0
2021-07-29 22:23:20 GMT 41.526031 -87.185562 10,975 311 342 -64
2021-07-29 22:23:17 GMT 41.522781 -87.180382 10,975 311 342 0
2021-07-29 22:23:13 GMT 41.518982 -87.174393 10,975 311 342 0
2021-07-29 22:23:08 GMT 41.514496 -87.167274 10,975 311 342 -64
2021-07-29 22:23:06 GMT 41.512482 -87.164093 10,975 311 342 -64
2021-07-29 22:23:03 GMT 41.508583 -87.157928 10,975 311 342 0
2021-07-29 22:22:56 GMT 41.502064 -87.147644 10,975 311 341 64
2021-07-29 22:22:53 GMT 41.493546 -87.134232 10,975 311 342 0
2021-07-29 22:22:48 GMT 41.493546 -87.134232 10,975 311 342 -64
2021-07-29 22:22:45 GMT 41.490784 -87.129883 10,975 311 342 -64
2021-07-29 22:22:41 GMT 41.486095 -87.122543 10,975 311 342 64
2021-07-29 22:22:38 GMT 41.483093 -87.117775 10,975 311 342 64
2021-07-29 22:22:35 GMT 41.474648 -87.104462 10,975 311 342 -64
2021-07-29 22:22:29 GMT 41.474648 -87.104462 10,975 311 342 -64
2021-07-29 22:22:26 GMT 41.471386 -87.099358 10,975 311 342 0
2021-07-29 22:22:24 GMT 41.469131 -87.095802 10,975 311 342 -64
2021-07-29 22:22:21 GMT 41.466171 -87.091049 10,975 311 342 -128
2021-07-29 22:22:16 GMT 41.459515 -87.080643 10,975 311 342 -64
2021-07-29 22:22:13 GMT 41.457687 -87.077698 10,975 311 342 64
2021-07-29 22:22:10 GMT 41.455353 -87.074013 10,975 311 342 64
2021-07-29 22:22:06 GMT 41.449696 -87.065117 10,975 311 341 0
2021-07-29 22:22:03 GMT 41.447643 -87.061928 10,975 311 341 -64
2021-07-29 22:22:01 GMT 41.444805 -87.057388 10,975 311 341 0
2021-07-29 22:21:53 GMT 41.437180 -87.045425 10,975 311 341 -64
2021-07-29 22:21:50 GMT 41.434517 -87.041229 10,975 311 341 -64
2021-07-29 22:21:43 GMT 41.423950 -87.024559 10,975 311 341 0
2021-07-29 22:21:40 GMT 41.423950 -87.024559 10,975 311 341 -64
2021-07-29 22:21:32 GMT 41.416176 -87.012360 10,975 311 341 0
2021-07-29 22:21:29 GMT 41.412918 -87.007248 10,975 311 341 -64
2021-07-29 22:21:24 GMT 41.408028 -86.999580 10,975 311 340 -64
2021-07-29 22:21:21 GMT 41.404953 -86.994743 10,975 311 341 -64
2021-07-29 22:21:19 GMT 41.402481 -86.990929 10,975 311 341 -64
2021-07-29 22:21:12 GMT 41.395367 -86.979721 10,975 311 341 -64
2021-07-29 22:21:08 GMT 41.392109 -86.974541 10,975 311 341 0
2021-07-29 22:21:03 GMT 41.386597 -86.965904 10,975 311 341 -64
2021-07-29 22:21:00 GMT 41.384380 -86.962471 10,975 311 341 -64
2021-07-29 22:20:58 GMT 41.381077 -86.957222 10,975 311 341 0
2021-07-29 22:20:54 GMT 41.376186 -86.949547 10,975 311 341 -64
2021-07-29 22:20:51 GMT 41.374046 -86.946236 10,975 311 341 -64
2021-07-29 22:20:49 GMT 41.372635 -86.943970 10,975 311 341 -64
2021-07-29 22:20:47 GMT 41.369751 -86.939514 10,975 311 341 -64
2021-07-29 22:20:43 GMT 41.365574 -86.932945 10,975 311 341 0
2021-07-29 22:20:38 GMT 41.359543 -86.923523 10,975 311 340 0
2021-07-29 22:20:32 GMT 41.354542 -86.915649 10,975 311 340 64
2021-07-29 22:20:29 GMT 41.351562 -86.911034 10,975 311 340 64
2021-07-29 22:20:27 GMT 41.349560 -86.907845 10,975 311 339 0
2021-07-29 22:20:21 GMT 41.344254 -86.899605 10,975 311 339 0
2021-07-29 22:20:18 GMT 41.340775 -86.894165 10,975 311 339 -64
2021-07-29 22:20:14 GMT 41.336105 -86.886871 10,975 311 339 -192
2021-07-29 22:20:12 GMT 41.333687 -86.883064 11,000 311 339 -512
2021-07-29 22:20:06 GMT 41.328377 -86.874763 11,075 311 338 -1088
2021-07-29 22:20:01 GMT 41.323116 -86.866524 11,175 311 338 -960
2021-07-29 22:19:57 GMT 41.319069 -86.860222 11,250 311 337 -1024
2021-07-29 22:19:54 GMT 41.315857 -86.855164 11,300 311 337 -1024
2021-07-29 22:19:50 GMT 41.312485 -86.849854 11,350 311 337 -1088
2021-07-29 22:19:47 GMT 41.308868 -86.844177 11,425 311 338 -1600
2021-07-29 22:19:44 GMT 41.305984 -86.839600 11,525 311 339 -2368
2021-07-29 22:19:41 GMT 41.302322 -86.833862 11,675 311 341 -2496
2021-07-29 22:19:35 GMT 41.297058 -86.825684 11,875 311 342 -2560
2021-07-29 22:19:33 GMT 41.294720 -86.822014 12,000 311 344 -2624
2021-07-29 22:19:29 GMT 41.290997 -86.816216 12,150 311 344 -2560
2021-07-29 22:19:26 GMT 41.287903 -86.811401 12,250 311 346 -2432
2021-07-29 22:19:23 GMT 41.284760 -86.806473 12,375 311 347 -2432
2021-07-29 22:19:20 GMT 41.281406 -86.801292 12,550 311 349 -2496
2021-07-29 22:19:15 GMT 41.276379 -86.793365 12,700 311 351 -2496
2021-07-29 22:19:11 GMT 41.272144 -86.786812 12,875 311 353 -2560
2021-07-29 22:19:09 GMT 41.270046 -86.783501 12,950 311 354 -2560
2021-07-29 22:19:05 GMT 41.264740 -86.775208 13,175 311 355 -2496
2021-07-29 22:18:59 GMT 41.259201 -86.766602 13,500 311 358 -2688
2021-07-29 22:18:56 GMT 41.255722 -86.761169 13,550 311 358 -2688
2021-07-29 22:18:52 GMT 41.251419 -86.754456 13,725 311 359 -2816
2021-07-29 22:18:49 GMT 41.248215 -86.749420 13,875 311 360 -2880
2021-07-29 22:18:44 GMT 41.243637 -86.742371 14,125 311 361 -3008
2021-07-29 22:18:41 GMT 41.239746 -86.736267 14,250 311 361 -3136
2021-07-29 22:18:38 GMT 41.235600 -86.729881 14,450 311 361 -3264
2021-07-29 22:18:33 GMT 41.230637 -86.722107 14,700 311 361 -3392
2021-07-29 22:18:29 GMT 41.225876 -86.714661 14,950 311 361 -3520
2021-07-29 22:18:25 GMT 41.222195 -86.708969 15,150 311 361 -3584
2021-07-29 22:18:20 GMT 41.216766 -86.700500 15,450 311 360 -3136
2021-07-29 22:18:18 GMT 41.214661 -86.697266 15,650 311 360 -3136
2021-07-29 22:18:15 GMT 41.211182 -86.691772 15,725 311 361 -2944
2021-07-29 22:18:12 GMT 41.208366 -86.687370 15,850 311 361 -2880
2021-07-29 22:18:09 GMT 41.206055 -86.683777 15,950 311 361 -2752
2021-07-29 22:18:07 GMT 41.202072 -86.677612 16,125 311 363 -2688
2021-07-29 22:18:03 GMT 41.195572 -86.667480 16,325 311 366 -2752
2021-07-29 22:18:00 GMT 41.195572 -86.667480 16,375 311 365 -2688
2021-07-29 22:17:54 GMT 41.186234 -86.653015 16,850 311 367 -3328
2021-07-29 22:17:51 GMT 41.186234 -86.653015 16,850 311 367 -3328
2021-07-29 22:17:49 GMT 41.184036 -86.649536 16,925 311 367 -3328
2021-07-29 22:17:46 GMT 41.178528 -86.640991 17,225 311 365 -3776
2021-07-29 22:17:42 GMT 41.174789 -86.635193 17,425 311 365 -3840
2021-07-29 22:17:38 GMT 41.171917 -86.630753 17,600 311 364 -3520
2021-07-29 22:17:34 GMT 41.166798 -86.622826 17,850 311 364 -3456
2021-07-29 22:17:31 GMT 41.163166 -86.617210 18,050 311 365 -3264
2021-07-29 22:17:29 GMT 41.160976 -86.613777 18,150 311 365 -3136
2021-07-29 22:17:27 GMT 41.158321 -86.609718 18,275 311 366 -2944
2021-07-29 22:17:23 GMT 41.154461 -86.603729 18,500 311 368 -2752
2021-07-29 22:17:18 GMT 41.149059 -86.595360 18,800 311 369 -2688
2021-07-29 22:17:13 GMT 41.143845 -86.587250 18,875 311 370 -2688
2021-07-29 22:17:10 GMT 41.139793 -86.581001 19,025 311 373 -2816
2021-07-29 22:17:08 GMT 41.137711 -86.577759 19,125 311 373 -2816
2021-07-29 22:17:06 GMT 41.135468 -86.574280 19,225 311 374 -2816
2021-07-29 22:17:01 GMT 41.130764 -86.566963 19,400 311 374 -2752
2021-07-29 22:16:58 GMT 41.127319 -86.561646 19,550 311 377 -2624
2021-07-29 22:16:56 GMT 41.123455 -86.555664 19,700 311 378 -2496
2021-07-29 22:16:52 GMT 41.119583 -86.549683 19,900 311 381 -2176
2021-07-29 22:16:49 GMT 41.116146 -86.544365 20,025 311 382 -2176
2021-07-29 22:16:45 GMT 41.111755 -86.537598 20,025 311 383 -2176
2021-07-29 22:16:42 GMT 41.107590 -86.531189 20,225 311 386 -2304
2021-07-29 22:16:38 GMT 41.099258 -86.518188 20,525 311 389 -2752
2021-07-29 22:16:34 GMT 41.099258 -86.518188 20,525 311 390 -2944
2021-07-29 22:16:31 GMT 41.095200 -86.511902 20,725 311 390 -3328
2021-07-29 22:16:27 GMT 41.088123 -86.500977 21,025 311 390 -3584
2021-07-29 22:16:25 GMT 41.088123 -86.500977 21,075 311 391 -3584
2021-07-29 22:16:21 GMT 41.082954 -86.492989 21,325 311 391 -3456
2021-07-29 22:16:18 GMT 41.081093 -86.490051 21,425 311 392 -3200
2021-07-29 22:16:15 GMT 41.076859 -86.483498 21,600 311 392 -2816
2021-07-29 22:16:12 GMT 41.068802 -86.471016 21,800 311 394 -2112
2021-07-29 22:16:09 GMT 41.068802 -86.471016 21,850 311 395 -1920
2021-07-29 22:16:04 GMT 41.062145 -86.460716 22,025 311 396 -1920
2021-07-29 22:16:01 GMT 41.059864 -86.457161 22,125 311 397 -1984
2021-07-29 22:15:58 GMT 41.056686 -86.452209 22,175 311 396 -1984
2021-07-29 22:15:53 GMT 41.050228 -86.442299 22,350 311 396 -1984
2021-07-29 22:15:50 GMT 41.046707 -86.436951 22,450 311 397 -1920
2021-07-29 22:15:46 GMT 41.041855 -86.429382 22,700 311 397 -1792
2021-07-29 22:15:43 GMT 41.038971 -86.424988 22,650 311 397 -1728
2021-07-29 22:15:38 GMT 41.031097 -86.412781 22,800 311 397 -1536
2021-07-29 22:15:34 GMT 41.027939 -86.408020 22,875 311 397 -1216
2021-07-29 22:15:29 GMT 41.021507 -86.398048 22,975 311 399 -960
2021-07-29 22:15:25 GMT 41.016666 -86.390617 23,000 311 401 -128
2021-07-29 22:15:22 GMT 41.013107 -86.385193 23,000 311 401 0
2021-07-29 22:15:18 GMT 41.008472 -86.377945 23,000 311 402 0
2021-07-29 22:15:15 GMT 41.004097 -86.371269 23,000 311 402 0
2021-07-29 22:15:11 GMT 40.999722 -86.364525 23,000 311 402 0
2021-07-29 22:15:07 GMT 40.994041 -86.355721 23,000 311 402 0
2021-07-29 22:15:04 GMT 40.991013 -86.351105 23,000 311 402 0
2021-07-29 22:14:59 GMT 40.984310 -86.340805 23,000 311 402 0
2021-07-29 22:14:56 GMT 40.982025 -86.337280 23,000 311 403 0
2021-07-29 22:14:51 GMT 40.975159 -86.326721 23,000 311 404 0
2021-07-29 22:14:49 GMT 40.969803 -86.318481 23,000 311 404 0
2021-07-29 22:14:47 GMT 40.969803 -86.318481 23,000 311 404 0
2021-07-29 22:14:44 GMT 40.964710 -86.310654 23,000 311 404 0
2021-07-29 22:14:42 GMT 40.964710 -86.310654 23,000 311 404 0
2021-07-29 22:14:40 GMT 40.962524 -86.307251 23,000 311 404 0
2021-07-29 22:14:39 GMT 40.958084 -86.300476 23,000 311 404 0
2021-07-29 22:14:37 GMT 40.958084 -86.300476 23,000 311 404 0
2021-07-29 22:14:36 GMT 40.954891 -86.295609 23,000 311 404 0
2021-07-29 22:14:34 GMT 40.954891 -86.295609 23,000 311 404 0
2021-07-29 22:14:32 GMT 40.952423 -86.291801 23,000 311 404 0
2021-07-29 22:14:31 GMT 40.951073 -86.289680 23,000 311 404 0
2021-07-29 22:14:30 GMT 40.949295 -86.286926 23,000 311 404 0
2021-07-29 22:14:28 GMT 40.947922 -86.284851 23,000 311 404 0
2021-07-29 22:14:27 GMT 40.945625 -86.281319 23,000 311 404 0
2021-07-29 22:14:24 GMT 40.942692 -86.276886 23,000 311 403 0
2021-07-29 22:14:23 GMT 40.941513 -86.274963 23,000 311 403 0
2021-07-29 22:14:20 GMT 40.937851 -86.269394 23,000 311 403 0
2021-07-29 22:14:17 GMT 40.934647 -86.264526 23,000 311 403 0
2021-07-29 22:14:15 GMT 40.932453 -86.261154 23,000 311 403 0
2021-07-29 22:14:14 GMT 40.931103 -86.259094 23,000 311 403 -64
2021-07-29 22:14:13 GMT 40.927097 -86.252975 23,000 311 403 -64
2021-07-29 22:14:11 GMT 40.927097 -86.252975 23,000 311 403 -64
2021-07-29 22:14:10 GMT 40.925903 -86.251099 23,000 311 403 0
2021-07-29 22:14:08 GMT 40.923187 -86.246986 23,000 311 403 0
2021-07-29 22:14:07 GMT 40.921967 -86.245056 23,000 311 403 0
2021-07-29 22:14:06 GMT 40.920502 -86.242798 23,000 311 403 0
2021-07-29 22:14:05 GMT 40.919540 -86.241333 23,000 311 403 0
2021-07-29 22:14:02 GMT 40.915928 -86.235809 23,000 311 403 0
2021-07-29 22:13:58 GMT 40.909081 -86.225388 23,000 311 403 0
2021-07-29 22:13:56 GMT 40.909081 -86.225388 23,000 311 402 0
2021-07-29 22:13:53 GMT 40.904938 -86.218933 23,000 311 402 0
2021-07-29 22:13:52 GMT 40.903564 -86.216858 23,000 311 402 0
2021-07-29 22:13:51 GMT 40.902466 -86.215210 23,000 311 402 0
2021-07-29 22:13:49 GMT 40.899818 -86.211090 23,000 311 402 0
2021-07-29 22:13:48 GMT 40.897110 -86.207031 23,000 311 402 0
2021-07-29 22:13:43 GMT 40.893677 -86.201782 23,000 311 402 64
2021-07-29 22:13:41 GMT 40.890602 -86.197044 23,000 311 402 0
2021-07-29 22:13:39 GMT 40.888779 -86.194275 23,000 311 402 0
2021-07-29 22:13:37 GMT 40.886353 -86.190552 23,000 311 402 0
2021-07-29 22:13:36 GMT 40.884644 -86.187927 23,000 311 402 0
2021-07-29 22:13:34 GMT 40.881386 -86.182877 23,000 311 402 0
2021-07-29 22:13:32 GMT 40.877701 -86.177307 23,000 311 402 0
2021-07-29 22:13:29 GMT 40.875183 -86.173462 23,000 311 402 0
2021-07-29 22:13:26 GMT 40.872757 -86.169739 23,000 311 402 0
2021-07-29 22:13:25 GMT 40.871655 -86.168022 23,000 311 402 -64
2021-07-29 22:13:22 GMT 40.867355 -86.161499 23,000 311 402 -64
2021-07-29 22:13:21 GMT 40.866207 -86.159714 23,000 311 402 -64
2021-07-29 22:13:18 GMT 40.862595 -86.154175 23,000 311 402 0
2021-07-29 22:13:17 GMT 40.861496 -86.152527 23,000 311 402 0
2021-07-29 22:13:15 GMT 40.855682 -86.143616 23,000 311 401 -64
2021-07-29 22:13:12 GMT 40.855682 -86.143616 23,000 311 401 -64
2021-07-29 22:13:08 GMT 40.850327 -86.135437 23,000 311 401 -64
2021-07-29 22:13:07 GMT 40.849121 -86.133621 23,000 311 401 0
2021-07-29 22:13:05 GMT 40.847214 -86.130630 23,000 311 401 0
2021-07-29 22:13:04 GMT 40.843815 -86.125511 23,000 311 401 0
2021-07-29 22:13:01 GMT 40.842133 -86.122925 23,000 311 401 0
2021-07-29 22:12:56 GMT 40.835312 -86.112488 23,000 311 402 0
2021-07-29 22:12:54 GMT 40.830734 -86.105469 23,000 311 404 0
2021-07-29 22:12:51 GMT 40.828781 -86.102478 23,000 311 404 0
2021-07-29 22:12:50 GMT 40.825607 -86.097717 23,000 311 405 0
2021-07-29 22:12:48 GMT 40.825607 -86.097717 23,000 311 405 0
2021-07-29 22:12:45 GMT 40.822403 -86.092796 23,000 311 408 0
2021-07-29 22:12:42 GMT 40.818863 -86.087372 23,000 311 408 0
2021-07-29 22:12:38 GMT 40.814022 -86.080002 23,000 311 409 -64
2021-07-29 22:12:37 GMT 40.812698 -86.078003 23,000 311 409 -64
2021-07-29 22:12:36 GMT 40.811462 -86.076073 23,000 311 409 -64
2021-07-29 22:12:32 GMT 40.807205 -86.069641 23,000 311 409 0
2021-07-29 22:12:30 GMT 40.804733 -86.065918 23,000 311 409 -64
2021-07-29 22:12:25 GMT 40.798660 -86.056656 23,000 311 406 64
2021-07-29 22:12:22 GMT 40.794239 -86.049850 23,000 311 406 64
2021-07-29 22:12:21 GMT 40.792969 -86.047913 23,000 311 405 64
2021-07-29 22:12:19 GMT 40.790451 -86.044067 23,000 311 405 0
2021-07-29 22:12:17 GMT 40.787979 -86.040283 23,000 311 404 0
2021-07-29 22:12:15 GMT 40.784546 -86.035095 23,000 311 402 0
2021-07-29 22:12:12 GMT 40.781437 -86.030380 23,000 311 401 64
2021-07-29 22:12:09 GMT 40.778503 -86.025887 23,000 311 399 -64
2021-07-29 22:12:06 GMT 40.772873 -86.017334 23,000 311 398 -64
2021-07-29 22:12:04 GMT 40.771912 -86.015869 23,000 311 398 -64
2021-07-29 22:12:02 GMT 40.769028 -86.011414 23,000 311 397 -64
2021-07-29 22:12:01 GMT 40.767841 -86.009590 23,000 311 397 -64
2021-07-29 22:11:54 GMT 40.760422 -85.998291 23,000 311 394 64
2021-07-29 22:11:52 GMT 40.758041 -85.994690 23,000 311 394 64
2021-07-29 22:11:48 GMT 40.752869 -85.986816 23,000 311 393 64
2021-07-29 22:11:44 GMT 40.744263 -85.973572 23,000 311 393 64
2021-07-29 22:11:40 GMT 40.744263 -85.973572 23,000 311 392 64
2021-07-29 22:11:38 GMT 40.741425 -85.969238 23,000 311 392 64
2021-07-29 22:11:36 GMT 40.739548 -85.966309 23,000 311 392 0
2021-07-29 22:11:35 GMT 40.737625 -85.963379 23,000 311 392 0
2021-07-29 22:11:33 GMT 40.734787 -85.958984 23,000 311 392 -128
2021-07-29 22:11:31 GMT 40.733116 -85.956406 23,000 311 392 -128
2021-07-29 22:11:30 GMT 40.731491 -85.953918 23,000 311 392 -128
2021-07-29 22:11:28 GMT 40.729343 -85.950600 23,000 311 392 -320
2021-07-29 22:11:27 GMT 40.727692 -85.948059 23,025 311 392 -384
2021-07-29 22:11:26 GMT 40.726505 -85.946236 23,025 311 392 -512
2021-07-29 22:11:21 GMT 40.721237 -85.938110 23,100 311 391 -768
2021-07-29 22:11:18 GMT 40.714771 -85.928070 23,125 311 390 -768
2021-07-29 22:11:16 GMT 40.714771 -85.928070 23,150 311 390 -768
2021-07-29 22:11:14 GMT 40.712540 -85.924576 23,150 311 390 -768
2021-07-29 22:11:12 GMT 40.709015 -85.919250 23,200 311 390 -768
2021-07-29 22:11:11 GMT 40.709015 -85.919250 23,200 312 389 -768
2021-07-29 22:11:10 GMT 40.707836 -85.917397 23,200 312 389 -768
2021-07-29 22:11:08 GMT 40.705833 -85.914398 23,225 312 389 -768
2021-07-29 22:11:05 GMT 40.703339 -85.910645 23,250 312 388 -768
2021-07-29 22:11:03 GMT 40.695236 -85.898621 23,350 312 388 -768
2021-07-29 22:11:00 GMT 40.695236 -85.898621 23,350 312 387 -768
2021-07-29 22:10:57 GMT 40.692520 -85.894485 23,375 311 386 -768
2021-07-29 22:10:56 GMT 40.691265 -85.892548 23,400 311 386 -768
2021-07-29 22:10:53 GMT 40.687729 -85.887207 23,450 311 386 -768
2021-07-29 22:10:50 GMT 40.684937 -85.882874 23,500 310 386 -832
2021-07-29 22:10:47 GMT 40.681862 -85.878067 23,500 310 386 -768
2021-07-29 22:10:45 GMT 40.679443 -85.874268 23,525 310 385 -768
2021-07-29 22:10:43 GMT 40.672783 -85.863525 23,600 310 386 -832
2021-07-29 22:10:40 GMT 40.672783 -85.863525 23,625 309 386 -768
2021-07-29 22:10:37 GMT 40.670643 -85.860023 23,625 309 385 -768
2021-07-29 22:10:34 GMT 40.666172 -85.852661 23,675 309 385 -768
2021-07-29 22:10:33 GMT 40.664978 -85.850708 23,675 308 385 -768
2021-07-29 22:10:28 GMT 40.659805 -85.841736 23,725 307 385 -768
2021-07-29 22:10:25 GMT 40.657700 -85.837952 23,775 306 385 -768
2021-07-29 22:10:24 GMT 40.656418 -85.835693 23,775 306 385 -768
2021-07-29 22:10:23 GMT 40.655373 -85.833748 23,800 306 386 -768
2021-07-29 22:10:22 GMT 40.653744 -85.830688 23,825 306 386 -832
2021-07-29 22:10:21 GMT 40.652710 -85.828796 23,825 306 386 -832
2021-07-29 22:10:18 GMT 40.649273 -85.822449 23,875 306 386 -832
2021-07-29 22:10:15 GMT 40.647766 -85.819580 23,900 306 386 -768
2021-07-29 22:10:14 GMT 40.646713 -85.817642 23,900 306 386 -768
2021-07-29 22:10:09 GMT 40.640102 -85.805344 23,975 306 386 -256
2021-07-29 22:10:08 GMT 40.637009 -85.799561 24,000 306 386 -256
2021-07-29 22:10:06 GMT 40.637009 -85.799561 24,000 306 386 -256
2021-07-29 22:10:05 GMT 40.636005 -85.797668 24,000 306 387 -320
2021-07-29 22:10:02 GMT 40.633301 -85.792664 24,025 306 387 -512
2021-07-29 22:10:01 GMT 40.632702 -85.791489 24,025 306 387 -832
2021-07-29 22:09:56 GMT 40.627766 -85.782249 24,100 306 386 -1024
2021-07-29 22:09:54 GMT 40.624695 -85.776489 24,150 306 386 -1152
2021-07-29 22:09:48 GMT 40.614220 -85.758095 24,275 308 386 -1088
2021-07-29 22:09:45 GMT 40.614220 -85.758095 24,325 310 386 -960
2021-07-29 22:09:37 GMT 40.604675 -85.744293 24,450 316 386 -1024
2021-07-29 22:09:34 GMT 40.602070 -85.740929 24,500 317 386 -1024
2021-07-29 22:09:26 GMT 40.591179 -85.728630 24,625 323 387 -1088
2021-07-29 22:09:23 GMT 40.587479 -85.725037 24,675 324 387 -1024
2021-07-29 22:09:17 GMT 40.577957 -85.716614 24,775 330 387 -1088
2021-07-29 22:09:14 GMT 40.571686 -85.711914 24,850 332 387 -1024
2021-07-29 22:09:06 GMT 40.555298 -85.702393 24,975 340 390 -1024
2021-07-29 22:09:03 GMT 40.555298 -85.702393 25,000 342 391 -1152
2021-07-29 22:08:57 GMT 40.539871 -85.696350 25,175 345 393 -1088
2021-07-29 22:08:55 GMT 40.539871 -85.696350 25,175 345 393 -1088
2021-07-29 22:08:51 GMT 40.533871 -85.694237 25,225 346 395 -1024
2021-07-29 22:08:46 GMT 40.526051 -85.691734 25,350 348 397 -1024
2021-07-29 22:08:43 GMT 40.518631 -85.689697 25,375 352 399 -1024
2021-07-29 22:08:40 GMT 40.514145 -85.688599 25,425 352 399 -960
2021-07-29 22:08:36 GMT 40.507599 -85.687317 25,625 354 401 -960
2021-07-29 22:08:33 GMT 40.503159 -85.686584 26,425 358 404 -1024
2021-07-29 22:08:30 GMT 40.493881 -85.685432 25,600 357 403 -1024
2021-07-29 22:08:27 GMT 40.490158 -85.685120 25,625 358 404 -1024
2021-07-29 22:08:24 GMT 40.480728 -85.684753 25,725 0 406 -1024
2021-07-29 22:08:17 GMT 40.471306 -85.685059 25,800 4 410 -960
2021-07-29 22:08:14 GMT 40.465622 -85.685547 25,850 5 410 -960
2021-07-29 22:08:11 GMT 40.461823 -85.686096 25,875 6 411 -1024
2021-07-29 22:08:03 GMT 40.443741 -85.689575 26,100 9 415 -1024
2021-07-29 22:07:59 GMT 40.431564 -85.692139 26,150 9 416 -1024
2021-07-29 22:07:54 GMT 40.426849 -85.693176 26,200 9 417 -1024
2021-07-29 22:07:51 GMT 40.422455 -85.694092 26,225 9 417 -1024
2021-07-29 22:07:45 GMT 40.408878 -85.696983 26,350 9 419 -1024
2021-07-29 22:07:42 GMT 40.404411 -85.697914 26,425 9 420 -1024
2021-07-29 22:07:38 GMT 40.397381 -85.699417 26,425 9 424 -1024
2021-07-29 22:07:33 GMT 40.387371 -85.701538 26,550 9 422 -1024
2021-07-29 22:07:31 GMT 40.382717 -85.702477 26,575 9 422 -1024
2021-07-29 22:07:23 GMT 40.368393 -85.705505 26,725 9 425 -1024
2021-07-29 22:07:20 GMT 40.363350 -85.706596 26,850 9 425 -1024
2021-07-29 22:07:12 GMT 40.346054 -85.710205 26,950 9 426 -1024
2021-07-29 22:07:09 GMT 40.342850 -85.710876 26,925 9 427 -1024
2021-07-29 22:07:04 GMT 40.333183 -85.712959 27,050 9 427 -1024
2021-07-29 22:07:00 GMT 40.322014 -85.715271 27,100 9 428 -960
2021-07-29 22:06:54 GMT 40.311028 -85.717583 27,175 9 428 -832
2021-07-29 22:06:49 GMT 40.301670 -85.719574 27,250 9 429 -832
2021-07-29 22:06:43 GMT 40.289429 -85.722168 27,325 9 429 -832
2021-07-29 22:06:39 GMT 40.280869 -85.723999 27,400 9 429 -832
2021-07-29 22:06:31 GMT 40.265076 -85.727295 27,500 9 429 -832
2021-07-29 22:06:27 GMT 40.260406 -85.728271 27,525 9 432 -832
2021-07-29 22:06:22 GMT 40.249020 -85.730690 27,600 9 430 -832
2021-07-29 22:06:18 GMT 40.229233 -85.734871 27,750 9 431 -832
2021-07-29 22:06:12 GMT 40.224483 -85.735870 27,750 9 431 -832
2021-07-29 22:06:09 GMT 40.224483 -85.735870 27,800 9 432 -832
2021-07-29 22:06:06 GMT 40.218521 -85.737061 27,850 9 432 -832
2021-07-29 22:06:02 GMT 40.208656 -85.739174 27,875 9 431 64
2021-07-29 22:05:59 GMT 40.203911 -85.740173 28,000 9 431 -256
2021-07-29 22:05:56 GMT 40.197578 -85.741486 27,950 9 431 -64
2021-07-29 22:05:51 GMT 40.189663 -85.743172 28,000 9 431 0
2021-07-29 22:05:48 GMT 40.180958 -85.744980 28,000 9 431 64
2021-07-29 22:05:44 GMT 40.174675 -85.746292 28,000 9 431 64
2021-07-29 22:05:40 GMT 40.167599 -85.747795 28,000 9 430 0
2021-07-29 22:05:37 GMT 40.160522 -85.749290 28,000 9 430 0
2021-07-29 22:05:34 GMT 40.155914 -85.750229 28,000 9 431 0
2021-07-29 22:05:30 GMT 40.146835 -85.752136 28,000 9 431 0
2021-07-29 22:05:27 GMT 40.140038 -85.753593 28,000 9 431 0
2021-07-29 22:05:24 GMT 40.133755 -85.754906 28,000 9 431 0
2021-07-29 22:05:17 GMT 40.120300 -85.757713 28,000 9 431 0
2021-07-29 22:05:13 GMT 40.114380 -85.758972 28,000 9 432 -64
2021-07-29 22:05:10 GMT 40.106506 -85.760620 28,000 9 432 -64
2021-07-29 22:05:06 GMT 40.098980 -85.762215 28,000 9 431 0
2021-07-29 22:05:03 GMT 40.092270 -85.763611 28,000 9 432 0
2021-07-29 22:04:59 GMT 40.085526 -85.765022 28,000 9 432 0
2021-07-29 22:04:56 GMT 40.077988 -85.766602 28,000 9 432 0
2021-07-29 22:04:53 GMT 40.070538 -85.768204 28,000 9 432 64
2021-07-29 22:04:48 GMT 40.065491 -85.769226 28,000 9 431 0
2021-07-29 22:04:45 GMT 40.057877 -85.770828 28,000 9 431 0
2021-07-29 22:04:42 GMT 40.051941 -85.772095 28,000 9 431 0
2021-07-29 22:04:39 GMT 40.045258 -85.773445 28,000 9 431 0
2021-07-29 22:04:36 GMT 40.039906 -85.774574 28,000 9 431 0
2021-07-29 22:04:32 GMT 40.030655 -85.776489 28,000 9 430 -64
2021-07-29 22:04:28 GMT 40.024338 -85.777832 28,000 9 430 0
2021-07-29 22:04:24 GMT 40.017288 -85.779297 28,000 9 430 0
2021-07-29 22:04:21 GMT 40.012348 -85.780312 28,000 9 430 0
2021-07-29 22:04:18 GMT 39.998753 -85.783119 28,000 9 430 -64
2021-07-29 22:04:15 GMT 39.998753 -85.783119 28,000 9 430 -64
2021-07-29 22:04:11 GMT 39.983810 -85.786247 28,000 9 430 -64
2021-07-29 22:04:08 GMT 39.983810 -85.786247 28,000 9 429 0
2021-07-29 22:04:04 GMT 39.974945 -85.788147 28,000 8 429 0
2021-07-29 22:04:00 GMT 39.968868 -85.789368 28,000 9 429 0
2021-07-29 22:03:55 GMT 39.960999 -85.791054 28,000 9 429 0
2021-07-29 22:03:52 GMT 39.955124 -85.792236 28,000 9 429 0
2021-07-29 22:03:49 GMT 39.945404 -85.794235 28,000 9 428 0
2021-07-29 22:03:45 GMT 39.940609 -85.795235 28,000 9 428 64
2021-07-29 22:03:42 GMT 39.933929 -85.796631 28,000 9 428 0
2021-07-29 22:03:39 GMT 39.928085 -85.797852 28,000 9 428 64
2021-07-29 22:03:36 GMT 39.922165 -85.799103 28,000 9 428 64
2021-07-29 22:03:33 GMT 39.914680 -85.800659 28,000 9 429 0
2021-07-29 22:03:29 GMT 39.906509 -85.802330 28,000 9 429 0
2021-07-29 22:03:26 GMT 39.903351 -85.802986 28,000 8 429 0
2021-07-29 22:03:23 GMT 39.897457 -85.804199 28,000 8 429 0
2021-07-29 22:03:20 GMT 39.888748 -85.806030 28,000 8 429 0
2021-07-29 22:03:15 GMT 39.879135 -85.807999 28,000 8 429 0
2021-07-29 22:03:12 GMT 39.873856 -85.809082 28,000 8 429 0
2021-07-29 22:03:09 GMT 39.870735 -85.809692 28,000 8 428 0
2021-07-29 22:03:06 GMT 39.864853 -85.810867 28,000 8 428 0
2021-07-29 22:03:03 GMT 39.857559 -85.812317 28,000 8 427 -64
2021-07-29 22:03:00 GMT 39.851532 -85.813553 28,000 8 427 -64
2021-07-29 22:02:55 GMT 39.841175 -85.815613 28,000 9 427 -64
2021-07-29 22:02:50 GMT 39.831585 -85.817688 28,000 9 428 0
2021-07-29 22:02:47 GMT 39.816780 -85.821106 28,000 10 427 0
2021-07-29 22:02:43 GMT 39.816780 -85.821106 28,000 10 427 64
2021-07-29 22:02:40 GMT 39.812824 -85.822021 28,000 10 427 0
2021-07-29 22:02:38 GMT 39.801498 -85.824600 28,000 9 427 0
2021-07-29 22:02:35 GMT 39.801498 -85.824600 28,000 9 426 0
2021-07-29 22:02:32 GMT 39.796829 -85.825554 28,000 7 426 0
2021-07-29 22:02:29 GMT 39.786804 -85.827286 28,000 6 424 0
2021-07-29 22:02:24 GMT 39.779305 -85.828308 28,000 5 423 0
2021-07-29 22:02:20 GMT 39.771393 -85.829102 28,000 3 422 0
2021-07-29 22:02:17 GMT 39.767433 -85.829346 28,000 2 422 0
2021-07-29 22:02:11 GMT 39.756317 -85.829849 28,000 0 421 0
2021-07-29 22:02:07 GMT 39.748306 -85.829971 28,000 357 416 0
2021-07-29 22:02:04 GMT 39.735500 -85.829773 28,000 359 420 -64
2021-07-29 22:02:01 GMT 39.735500 -85.829773 28,000 359 419 0
2021-07-29 22:01:58 GMT 39.731636 -85.829651 28,000 359 419 64
2021-07-29 22:01:55 GMT 39.725784 -85.829437 28,000 359 419 0
2021-07-29 22:01:51 GMT 39.718826 -85.829193 28,000 359 418 0
2021-07-29 22:01:48 GMT 39.711868 -85.828835 28,000 358 417 0
2021-07-29 22:01:45 GMT 39.706825 -85.828491 28,000 357 417 0
2021-07-29 22:01:42 GMT 39.698914 -85.827942 28,000 357 416 0
2021-07-29 22:01:37 GMT 39.692207 -85.827393 28,000 357 416 0
2021-07-29 22:01:33 GMT 39.683735 -85.826721 28,000 357 416 0
2021-07-29 22:01:30 GMT 39.677948 -85.826271 28,000 357 415 0
2021-07-29 22:01:27 GMT 39.672375 -85.825867 28,000 357 415 0
2021-07-29 22:01:24 GMT 39.666836 -85.825439 28,000 357 415 0
2021-07-29 22:01:20 GMT 39.655746 -85.824600 28,000 357 415 0
2021-07-29 22:01:15 GMT 39.647186 -85.823997 28,000 357 414 0
2021-07-29 22:01:11 GMT 39.639450 -85.823402 28,000 357 414 0
2021-07-29 22:01:08 GMT 39.635605 -85.823166 28,000 357 414 0
2021-07-29 22:01:04 GMT 39.622986 -85.822205 28,000 357 414 64
2021-07-29 22:01:01 GMT 39.620270 -85.821968 28,000 357 414 64
2021-07-29 22:00:58 GMT 39.615303 -85.821655 28,000 357 414 64
2021-07-29 22:00:55 GMT 39.608002 -85.821136 28,000 357 414 64
2021-07-29 22:00:51 GMT 39.602222 -85.820740 28,000 358 414 64
2021-07-29 22:00:48 GMT 39.595139 -85.820297 28,000 358 414 -64
2021-07-29 22:00:44 GMT 39.587265 -85.819939 28,000 359 415 -128
2021-07-29 22:00:40 GMT 39.580109 -85.819763 28,000 0 415 -128
2021-07-29 22:00:37 GMT 39.575359 -85.819702 28,000 0 415 64
2021-07-29 22:00:34 GMT 39.568611 -85.819641 28,000 0 416 64
2021-07-29 22:00:31 GMT 39.561905 -85.819763 28,000 1 416 64
2021-07-29 22:00:27 GMT 39.554947 -85.820000 28,000 1 415 64
2021-07-29 22:00:24 GMT 39.551102 -85.820122 28,000 2 416 64
2021-07-29 22:00:21 GMT 39.543194 -85.820557 28,000 2 416 0
2021-07-29 22:00:18 GMT 39.536499 -85.821014 28,000 3 416 0
2021-07-29 22:00:13 GMT 39.528809 -85.821556 28,000 3 416 0
2021-07-29 22:00:09 GMT 39.515354 -85.822876 28,000 4 417 64
2021-07-29 22:00:06 GMT 39.515354 -85.822876 28,000 4 417 64
2021-07-29 22:00:03 GMT 39.508759 -85.823586 28,000 4 418 64
2021-07-29 22:00:00 GMT 39.502228 -85.824280 28,000 4 418 0
2021-07-29 21:59:57 GMT 39.498363 -85.824707 28,000 5 418 -64
2021-07-29 21:59:54 GMT 39.492554 -85.825371 28,000 6 420 0
2021-07-29 21:59:50 GMT 39.484398 -85.826416 28,000 6 420 -64
2021-07-29 21:59:47 GMT 39.472855 -85.828125 28,000 6 420 0
2021-07-29 21:59:44 GMT 39.472855 -85.828125 28,000 6 420 0
2021-07-29 21:59:41 GMT 39.467789 -85.828835 28,000 6 420 0
2021-07-29 21:59:38 GMT 39.462433 -85.829613 28,000 6 420 0
2021-07-29 21:59:35 GMT 39.454742 -85.830688 28,000 6 420 0
2021-07-29 21:59:32 GMT 39.442337 -85.832481 28,000 6 420 64
2021-07-29 21:59:29 GMT 39.442337 -85.832481 28,000 6 420 64
2021-07-29 21:59:24 GMT 39.436020 -85.833313 28,000 6 420 64
2021-07-29 21:59:21 GMT 39.427505 -85.834511 28,000 6 421 0
2021-07-29 21:59:17 GMT 39.418991 -85.835701 28,000 6 421 64
2021-07-29 21:59:13 GMT 39.412033 -85.836716 28,000 6 421 -64
2021-07-29 21:59:10 GMT 39.407364 -85.837379 28,000 6 421 -64
2021-07-29 21:59:06 GMT 39.399628 -85.838448 28,000 5 421 -64
2021-07-29 21:59:03 GMT 39.393761 -85.839172 28,000 2 420 0
2021-07-29 21:59:00 GMT 39.386032 -85.840027 28,000 3 420 0
2021-07-29 21:58:56 GMT 39.372391 -85.840599 28,000 332 414 -64
2021-07-29 21:58:52 GMT 39.372391 -85.840599 28,000 359 419 64
2021-07-29 21:58:49 GMT 39.367317 -85.840454 28,000 358 418 64
2021-07-29 21:58:46 GMT 39.359207 -85.839706 28,000 355 417 0
2021-07-29 21:58:42 GMT 39.350922 -85.838394 28,000 350 417 0
2021-07-29 21:58:39 GMT 39.347301 -85.837646 28,000 350 417 -64
2021-07-29 21:58:35 GMT 39.338608 -85.835289 28,000 346 417 -64
2021-07-29 21:58:31 GMT 39.332264 -85.833130 28,000 343 417 -64
2021-07-29 21:58:28 GMT 39.327099 -85.831116 28,000 341 416 0
2021-07-29 21:58:25 GMT 39.320343 -85.828064 28,000 339 416 0
2021-07-29 21:58:22 GMT 39.314808 -85.825256 28,000 336 415 -64
2021-07-29 21:58:19 GMT 39.310913 -85.823044 28,000 336 416 -64
2021-07-29 21:58:17 GMT 39.308475 -85.821594 28,000 335 415 -64
2021-07-29 21:58:14 GMT 39.302628 -85.817909 28,000 333 415 -64
2021-07-29 21:58:10 GMT 39.293381 -85.811226 28,000 329 414 -64
2021-07-29 21:58:07 GMT 39.290974 -85.809265 28,000 320 412 -128
2021-07-29 21:58:04 GMT 39.285599 -85.804596 28,000 321 412 -128
2021-07-29 21:58:01 GMT 39.280499 -85.799744 28,000 322 413 -128
2021-07-29 21:57:57 GMT 39.275051 -85.794006 28,000 320 413 -128
2021-07-29 21:57:54 GMT 39.269886 -85.788147 28,000 319 411 -64
2021-07-29 21:57:48 GMT 39.262066 -85.779236 28,000 319 411 192
2021-07-29 21:57:43 GMT 39.255081 -85.771240 27,975 319 411 0
2021-07-29 21:57:37 GMT 39.245682 -85.760475 28,000 319 413 -128
2021-07-29 21:57:33 GMT 39.239410 -85.753250 28,000 318 414 0
2021-07-29 21:57:27 GMT 39.233276 -85.746078 28,000 318 416 128
2021-07-29 21:57:24 GMT 39.227150 -85.738892 27,975 318 418 192
2021-07-29 21:57:20 GMT 39.221424 -85.732178 28,000 318 417 -256
2021-07-29 21:57:16 GMT 39.216396 -85.726257 28,000 318 417 0
2021-07-29 21:57:12 GMT 39.211990 -85.721123 28,000 318 416 -64
2021-07-29 21:57:09 GMT 39.205410 -85.713501 28,000 319 416 128
2021-07-29 21:57:06 GMT 39.201141 -85.708527 28,000 319 415 0
2021-07-29 21:57:01 GMT 39.193352 -85.699646 28,000 319 415 64
2021-07-29 21:56:54 GMT 39.186127 -85.691452 28,000 319 415 -64
2021-07-29 21:56:52 GMT 39.182053 -85.686852 28,000 319 417 -256
2021-07-29 21:56:48 GMT 39.175385 -85.679382 28,050 319 418 -896
2021-07-29 21:56:45 GMT 39.173309 -85.677055 28,075 319 418 -1344
2021-07-29 21:56:43 GMT 39.168961 -85.672119 28,150 319 418 -1728
2021-07-29 21:56:40 GMT 39.165710 -85.668518 28,250 319 418 -1792
2021-07-29 21:56:37 GMT 39.160446 -85.662666 28,375 320 421 -1728
2021-07-29 21:56:34 GMT 39.156372 -85.658073 28,425 320 421 -1728
2021-07-29 21:56:31 GMT 39.150467 -85.651627 28,525 320 422 -1728
2021-07-29 21:56:25 GMT 39.142380 -85.642700 28,700 320 425 -1728
2021-07-29 21:56:22 GMT 39.138748 -85.638794 28,700 320 425 -1728
2021-07-29 21:56:19 GMT 39.134651 -85.634277 28,950 320 427 -1856
2021-07-29 21:56:16 GMT 39.128860 -85.627922 28,950 320 427 -1856
2021-07-29 21:56:13 GMT 39.122593 -85.621155 29,050 320 429 -1792
2021-07-29 21:56:10 GMT 39.118515 -85.616692 29,350 320 431 -1728
2021-07-29 21:56:05 GMT 39.113468 -85.611145 29,300 320 431 -1728
2021-07-29 21:56:02 GMT 39.107620 -85.604752 29,375 320 431 -1728
2021-07-29 21:55:59 GMT 39.103088 -85.599731 29,450 320 431 -1664
2021-07-29 21:55:55 GMT 39.097736 -85.593750 29,550 320 431 -1728
2021-07-29 21:55:51 GMT 39.091919 -85.587440 29,650 321 432 -1792
2021-07-29 21:55:48 GMT 39.087261 -85.582397 29,750 321 431 -1792
2021-07-29 21:55:44 GMT 39.081482 -85.576271 29,850 321 431 -1792
2021-07-29 21:55:41 GMT 39.075527 -85.569946 29,975 321 431 -1728
2021-07-29 21:55:39 GMT 39.071503 -85.565704 30,050 321 431 -1728
2021-07-29 21:55:35 GMT 39.065056 -85.558838 30,175 321 431 -1856
2021-07-29 21:55:31 GMT 39.060120 -85.553650 30,300 321 432 -1728
2021-07-29 21:55:29 GMT 39.057312 -85.550713 30,400 321 432 -1792
2021-07-29 21:55:24 GMT 39.049599 -85.542603 30,475 321 432 -1728
2021-07-29 21:55:21 GMT 39.041546 -85.534180 30,600 321 432 -1856
2021-07-29 21:55:18 GMT 39.041546 -85.534180 30,775 320 431 -1728
2021-07-29 21:55:13 GMT 39.031631 -85.523743 30,825 305 426 -1792
2021-07-29 21:55:10 GMT 39.028137 -85.519897 30,875 319 430 -1728
2021-07-29 21:55:07 GMT 39.023811 -85.514954 30,975 318 430 -1728
2021-07-29 21:55:03 GMT 39.018036 -85.507996 31,075 316 429 -1792
2021-07-29 21:55:00 GMT 39.013008 -85.501465 31,200 314 429 -1792
2021-07-29 21:54:57 GMT 39.009193 -85.496277 31,275 313 429 -1792
2021-07-29 21:54:53 GMT 39.003979 -85.488647 31,400 310 428 -1792
2021-07-29 21:54:50 GMT 38.999512 -85.481506 31,500 306 427 -1792
2021-07-29 21:54:45 GMT 38.994232 -85.472321 31,625 306 427 -1792
2021-07-29 21:54:42 GMT 38.991486 -85.467361 31,700 305 427 -1792
2021-07-29 21:54:39 GMT 38.987965 -85.460938 31,800 305 427 -1792
2021-07-29 21:54:36 GMT 38.984070 -85.453873 31,850 305 426 -1856
2021-07-29 21:54:33 GMT 38.979771 -85.445984 32,000 305 427 -1856
2021-07-29 21:54:29 GMT 38.976425 -85.439835 32,100 305 427 -1856
2021-07-29 21:54:26 GMT 38.972809 -85.433090 32,200 305 426 -1792
2021-07-29 21:54:22 GMT 38.963837 -85.416435 32,375 305 426 -1856
2021-07-29 21:54:18 GMT 38.963837 -85.416435 32,425 305 427 -1856
2021-07-29 21:54:14 GMT 38.959148 -85.407654 32,550 305 426 -1792
2021-07-29 21:54:11 GMT 38.953583 -85.397148 32,675 305 427 -1664
2021-07-29 21:54:08 GMT 38.953583 -85.397148 32,850 304 427 -896
2021-07-29 21:54:04 GMT 38.949234 -85.388847 33,000 303 427 -704
2021-07-29 21:54:01 GMT 38.944473 -85.379356 32,800 303 427 -704
2021-07-29 21:53:58 GMT 38.942368 -85.375114 32,825 302 427 -704
2021-07-29 21:53:55 GMT 38.938061 -85.365906 32,875 300 429 -640
2021-07-29 21:53:50 GMT 38.934265 -85.357498 32,900 300 429 -704
2021-07-29 21:53:47 GMT 38.931728 -85.351746 32,950 299 430 -768
2021-07-29 21:53:44 GMT 38.924282 -85.333740 33,000 298 429 -320
2021-07-29 21:53:40 GMT 38.920231 -85.323853 33,000 298 429 -64
2021-07-29 21:53:36 GMT 38.920231 -85.323853 33,000 298 429 -64
2021-07-29 21:53:33 GMT 38.917145 -85.316299 33,000 298 429 -64
2021-07-29 21:53:30 GMT 38.914318 -85.309387 33,000 298 429 -64
2021-07-29 21:53:26 GMT 38.911194 -85.301674 33,000 298 429 64
2021-07-29 21:53:23 GMT 38.909153 -85.296692 33,000 298 429 64
2021-07-29 21:53:19 GMT 38.905014 -85.286446 33,000 298 429 64
2021-07-29 21:53:15 GMT 38.901516 -85.277893 33,000 298 429 64
2021-07-29 21:53:12 GMT 38.899609 -85.273193 33,000 298 429 64
2021-07-29 21:53:09 GMT 38.895603 -85.263306 33,000 298 429 64
2021-07-29 21:53:06 GMT 38.893791 -85.258789 33,000 298 428 0
2021-07-29 21:53:03 GMT 38.890274 -85.250206 33,000 298 428 -64
2021-07-29 21:52:59 GMT 38.886852 -85.241760 33,000 298 428 -192
2021-07-29 21:52:55 GMT 38.880661 -85.226318 33,025 298 428 -448
2021-07-29 21:52:52 GMT 38.880661 -85.226318 33,050 298 428 -576
2021-07-29 21:52:48 GMT 38.876495 -85.215935 33,075 298 428 -704
2021-07-29 21:52:45 GMT 38.874470 -85.210938 33,100 298 428 -704
2021-07-29 21:52:41 GMT 38.870728 -85.201485 33,200 297 427 -704
2021-07-29 21:52:37 GMT 38.867111 -85.192467 33,225 297 427 -704
2021-07-29 21:52:34 GMT 38.865326 -85.187927 33,225 297 426 -704
2021-07-29 21:52:31 GMT 38.861576 -85.178406 33,275 297 425 -704
2021-07-29 21:52:28 GMT 38.859604 -85.173477 33,325 297 425 -704
2021-07-29 21:52:25 GMT 38.853706 -85.158691 33,400 297 424 -704
2021-07-29 21:52:22 GMT 38.853706 -85.158691 33,375 297 424 -704
2021-07-29 21:52:19 GMT 38.850540 -85.150635 33,425 298 424 -704
2021-07-29 21:52:14 GMT 38.844769 -85.136230 33,475 298 424 -704
2021-07-29 21:52:11 GMT 38.844769 -85.136230 33,525 298 423 -704
2021-07-29 21:52:08 GMT 38.841557 -85.128174 33,550 298 423 -704
2021-07-29 21:52:03 GMT 38.837231 -85.117493 33,650 298 424 -768
2021-07-29 21:52:00 GMT 38.833466 -85.108101 33,700 298 424 -768
2021-07-29 21:51:55 GMT 38.829483 -85.098366 33,700 298 424 -704
2021-07-29 21:51:51 GMT 38.825867 -85.089409 33,750 298 424 -704
2021-07-29 21:51:47 GMT 38.822376 -85.080933 33,800 298 424 -704
2021-07-29 21:51:44 GMT 38.819538 -85.073914 33,825 298 424 -704
2021-07-29 21:51:42 GMT 38.818050 -85.070251 33,900 298 424 -768
2021-07-29 21:51:39 GMT 38.814789 -85.062195 33,925 298 424 -768
2021-07-29 21:51:36 GMT 38.812649 -85.056946 33,900 298 424 -704
2021-07-29 21:51:33 GMT 38.810413 -85.051514 33,950 298 424 -768
2021-07-29 21:51:30 GMT 38.807739 -85.044930 33,975 298 424 -640
2021-07-29 21:51:27 GMT 38.803852 -85.035461 34,000 298 424 -128
2021-07-29 21:51:23 GMT 38.799892 -85.025635 34,000 298 424 -64
2021-07-29 21:51:20 GMT 38.797256 -85.019196 34,000 298 424 0
2021-07-29 21:51:16 GMT 38.794540 -85.012451 34,000 298 425 64
2021-07-29 21:51:13 GMT 38.791443 -85.004860 34,000 298 424 64
2021-07-29 21:51:11 GMT 38.790119 -85.001587 34,000 298 424 64
2021-07-29 21:51:08 GMT 38.787094 -84.993996 34,000 298 424 0
2021-07-29 21:51:05 GMT 38.784763 -84.988159 34,000 298 424 -64
2021-07-29 21:51:01 GMT 38.778442 -84.972504 34,000 298 424 64
2021-07-29 21:50:59 GMT 38.778442 -84.972504 34,000 298 424 64
2021-07-29 21:50:56 GMT 38.775650 -84.965515 34,000 298 424 64
2021-07-29 21:50:52 GMT 38.770332 -84.952332 34,000 298 425 0
2021-07-29 21:50:49 GMT 38.770332 -84.952332 34,000 298 425 -64
2021-07-29 21:50:46 GMT 38.767365 -84.944855 34,000 298 424 -64
2021-07-29 21:50:41 GMT 38.762970 -84.933990 34,000 298 424 -64
2021-07-29 21:50:38 GMT 38.756695 -84.918335 34,000 298 424 0
2021-07-29 21:50:35 GMT 38.756695 -84.918335 34,000 298 424 0
2021-07-29 21:50:30 GMT 38.753036 -84.909149 34,000 297 423 0
2021-07-29 21:50:27 GMT 38.747803 -84.896057 34,000 297 423 0
2021-07-29 21:50:24 GMT 38.747803 -84.896057 34,000 297 423 0
2021-07-29 21:50:20 GMT 38.744217 -84.887085 34,000 297 423 64
2021-07-29 21:50:17 GMT 38.741959 -84.881386 34,000 297 423 64
2021-07-29 21:50:14 GMT 38.738537 -84.872803 34,000 298 422 64
2021-07-29 21:50:10 GMT 38.735325 -84.864807 34,000 298 421 0
2021-07-29 21:50:07 GMT 38.731789 -84.855957 34,000 298 421 0
2021-07-29 21:50:04 GMT 38.729095 -84.849319 34,000 298 421 0
2021-07-29 21:49:59 GMT 38.725410 -84.840149 34,000 298 420 -64
2021-07-29 21:49:55 GMT 38.721542 -84.830750 34,000 299 420 -64
2021-07-29 21:49:49 GMT 38.715031 -84.815430 34,000 301 419 0
2021-07-29 21:49:45 GMT 38.712330 -84.809570 34,000 304 418 0
2021-07-29 21:49:42 GMT 38.709137 -84.803108 34,000 305 418 0
2021-07-29 21:49:39 GMT 38.705612 -84.796600 34,000 308 417 64
2021-07-29 21:49:36 GMT 38.702785 -84.791626 34,000 309 417 64
2021-07-29 21:49:33 GMT 38.698608 -84.784897 34,000 311 417 0
2021-07-29 21:49:27 GMT 38.692265 -84.775574 34,000 313 416 -64
2021-07-29 21:49:24 GMT 38.687656 -84.769165 34,000 313 416 0
2021-07-29 21:49:21 GMT 38.684444 -84.764709 34,000 313 421 0
2021-07-29 21:49:18 GMT 38.680527 -84.759285 34,000 313 416 -64
2021-07-29 21:49:15 GMT 38.676361 -84.753494 34,000 313 416 -64
2021-07-29 21:49:12 GMT 38.671234 -84.746384 34,000 313 416 -64
2021-07-29 21:49:07 GMT 38.664055 -84.736511 34,000 313 416 64
2021-07-29 21:49:04 GMT 38.661713 -84.733253 34,000 313 416 64
2021-07-29 21:49:01 GMT 38.657768 -84.727783 34,000 313 421 0
2021-07-29 21:48:57 GMT 38.652088 -84.720032 34,000 313 416 64
2021-07-29 21:48:53 GMT 38.646469 -84.712296 34,000 313 417 0
2021-07-29 21:48:49 GMT 38.641296 -84.705070 34,000 313 418 -64
2021-07-29 21:48:47 GMT 38.639381 -84.702454 34,000 313 418 -64
2021-07-29 21:48:44 GMT 38.634075 -84.695129 34,000 313 419 0
2021-07-29 21:48:41 GMT 38.630676 -84.690437 34,000 313 419 0
2021-07-29 21:48:35 GMT 38.624111 -84.681458 34,000 313 419 64
2021-07-29 21:48:32 GMT 38.618759 -84.674072 34,000 313 419 0
2021-07-29 21:48:29 GMT 38.616245 -84.670532 34,000 313 419 -64
2021-07-29 21:48:26 GMT 38.611633 -84.664169 34,000 313 421 -64
2021-07-29 21:48:23 GMT 38.607376 -84.658318 34,000 313 421 0
2021-07-29 21:48:20 GMT 38.602325 -84.651428 34,000 313 421 0
2021-07-29 21:48:16 GMT 38.598907 -84.646675 34,000 313 421 0
2021-07-29 21:48:14 GMT 38.594925 -84.641174 34,000 313 421 0
2021-07-29 21:48:11 GMT 38.590687 -84.635376 34,000 313 421 0
2021-07-29 21:48:08 GMT 38.588593 -84.632446 34,000 313 421 64
2021-07-29 21:48:04 GMT 38.583286 -84.625183 34,000 313 421 64
2021-07-29 21:48:01 GMT 38.575325 -84.614258 34,000 313 421 64
2021-07-29 21:47:55 GMT 38.570435 -84.607445 34,000 313 421 0
2021-07-29 21:47:52 GMT 38.566132 -84.601532 34,000 313 421 0
2021-07-29 21:47:48 GMT 38.561371 -84.595024 34,000 313 421 0
2021-07-29 21:47:44 GMT 38.555603 -84.587082 34,000 313 421 -64
2021-07-29 21:47:41 GMT 38.550514 -84.580139 34,000 313 421 -64
2021-07-29 21:47:38 GMT 38.547813 -84.576416 34,000 313 421 -64
2021-07-29 21:47:35 GMT 38.542831 -84.569588 34,000 313 421 64
2021-07-29 21:47:28 GMT 38.533768 -84.557114 34,000 313 421 0
2021-07-29 21:47:23 GMT 38.529053 -84.550659 34,000 313 421 -64
2021-07-29 21:47:20 GMT 38.523056 -84.542419 34,000 313 421 64
2021-07-29 21:47:17 GMT 38.520252 -84.538574 34,000 313 421 64
2021-07-29 21:47:14 GMT 38.509277 -84.523552 34,000 313 421 0
2021-07-29 21:47:09 GMT 38.509277 -84.523552 34,000 313 421 -64
2021-07-29 21:47:05 GMT 38.503967 -84.516273 34,000 313 420 0
2021-07-29 21:47:03 GMT 38.501358 -84.512688 34,000 313 420 -64
2021-07-29 21:47:00 GMT 38.497604 -84.507553 34,000 313 420 -64
2021-07-29 21:46:57 GMT 38.492294 -84.500267 34,000 313 420 -64
2021-07-29 21:46:52 GMT 38.486736 -84.492676 34,000 313 420 0
2021-07-29 21:46:48 GMT 38.481171 -84.485039 34,000 313 420 64
2021-07-29 21:46:44 GMT 38.475952 -84.477875 34,000 313 420 64
2021-07-29 21:46:41 GMT 38.472912 -84.473755 34,000 313 420 0
2021-07-29 21:46:36 GMT 38.465240 -84.463249 34,000 313 419 -64
2021-07-29 21:46:33 GMT 38.462585 -84.459610 34,000 313 419 -64
2021-07-29 21:46:31 GMT 38.458878 -84.454529 34,000 313 419 64
2021-07-29 21:46:28 GMT 38.454758 -84.448921 34,000 313 419 -64
2021-07-29 21:46:25 GMT 38.451462 -84.444443 34,000 313 419 -128
2021-07-29 21:46:22 GMT 38.446289 -84.437332 34,000 313 419 -64
2021-07-29 21:46:16 GMT 38.439285 -84.427719 34,000 313 419 64
2021-07-29 21:46:13 GMT 38.434925 -84.421814 34,000 313 418 0
2021-07-29 21:46:10 GMT 38.432419 -84.418350 34,000 313 419 0
2021-07-29 21:46:05 GMT 38.423752 -84.406494 34,000 313 419 64
2021-07-29 21:46:01 GMT 38.418777 -84.399719 34,000 313 419 0
2021-07-29 21:45:57 GMT 38.413139 -84.391968 34,000 313 420 0
2021-07-29 21:45:54 GMT 38.411270 -84.389496 34,000 313 420 64
2021-07-29 21:45:51 GMT 38.407013 -84.383652 34,000 313 420 0
2021-07-29 21:45:49 GMT 38.404758 -84.380554 34,000 313 420 -64
2021-07-29 21:45:45 GMT 38.399357 -84.373207 34,000 313 420 0
2021-07-29 21:45:42 GMT 38.394287 -84.366295 34,000 313 420 64
2021-07-29 21:45:40 GMT 38.390373 -84.360970 34,000 313 420 64
2021-07-29 21:45:36 GMT 38.384975 -84.353622 34,000 313 420 0
2021-07-29 21:45:32 GMT 38.382111 -84.349693 34,000 313 420 0
2021-07-29 21:45:28 GMT 38.376801 -84.342392 34,000 313 420 -64
2021-07-29 21:45:24 GMT 38.369339 -84.332283 34,000 313 420 64
2021-07-29 21:45:20 GMT 38.365585 -84.327141 34,000 313 420 0
2021-07-29 21:45:18 GMT 38.363525 -84.324333 34,000 313 420 0
2021-07-29 21:45:14 GMT 38.358170 -84.317085 34,000 313 420 0
2021-07-29 21:45:11 GMT 38.353039 -84.310097 34,000 313 420 -64
2021-07-29 21:45:09 GMT 38.350662 -84.306862 34,000 314 420 -64
2021-07-29 21:45:03 GMT 38.340843 -84.293495 34,000 314 420 -64
2021-07-29 21:45:00 GMT 38.338989 -84.290962 34,000 313 419 64
2021-07-29 21:44:58 GMT 38.336426 -84.287460 34,000 313 419 64
2021-07-29 21:44:55 GMT 38.332973 -84.282806 34,000 314 418 64
2021-07-29 21:44:52 GMT 38.327866 -84.275833 34,000 313 419 0
2021-07-29 21:44:48 GMT 38.322144 -84.267998 34,000 314 418 0
2021-07-29 21:44:42 GMT 38.313675 -84.256546 34,000 314 418 0
2021-07-29 21:44:39 GMT 38.310928 -84.252808 34,000 314 418 0
2021-07-29 21:44:37 GMT 38.309093 -84.250267 34,000 314 418 0
2021-07-29 21:44:33 GMT 38.302341 -84.241074 34,000 314 418 64
2021-07-29 21:44:29 GMT 38.297455 -84.234444 34,000 314 418 -64
2021-07-29 21:44:27 GMT 38.294384 -84.230324 34,000 314 418 -64
2021-07-29 21:44:21 GMT 38.286575 -84.219727 34,000 313 418 0
2021-07-29 21:44:15 GMT 38.270737 -84.198166 34,000 314 417 -64
2021-07-29 21:44:08 GMT 38.270737 -84.198166 34,000 313 418 -64
2021-07-29 21:44:05 GMT 38.266872 -84.192947 34,000 314 417 -64
2021-07-29 21:44:00 GMT 38.258865 -84.182083 34,000 314 417 0
2021-07-29 21:43:57 GMT 38.254627 -84.176353 34,000 314 417 0
2021-07-29 21:43:53 GMT 38.249725 -84.169708 34,000 314 417 64
2021-07-29 21:43:46 GMT 38.240662 -84.157379 34,000 314 417 0
2021-07-29 21:43:37 GMT 38.230087 -84.143059 34,000 314 418 0
2021-07-29 21:43:33 GMT 38.222672 -84.133064 34,000 314 418 0
2021-07-29 21:43:25 GMT 38.213150 -84.120155 34,000 314 418 64
2021-07-29 21:43:21 GMT 38.208679 -84.114136 34,000 314 418 64
2021-07-29 21:43:14 GMT 38.199463 -84.101624 34,000 314 418 64
2021-07-29 21:43:11 GMT 38.193829 -84.093956 34,000 314 418 64
2021-07-29 21:43:08 GMT 38.191177 -84.090370 34,000 314 418 0
2021-07-29 21:43:05 GMT 38.185452 -84.082664 34,000 314 418 0
2021-07-29 21:43:02 GMT 38.183487 -84.080002 34,000 314 418 -64
2021-07-29 21:42:56 GMT 38.174973 -84.068497 34,000 314 418 -64
2021-07-29 21:42:52 GMT 38.169949 -84.061714 34,000 314 418 64
2021-07-29 21:42:46 GMT 38.161697 -84.050552 34,000 314 418 64
2021-07-29 21:42:42 GMT 38.156387 -84.043365 34,000 314 419 -64
2021-07-29 21:42:37 GMT 38.149746 -84.034424 34,000 314 419 -64
2021-07-29 21:42:34 GMT 38.143879 -84.026543 34,000 314 419 0
2021-07-29 21:42:30 GMT 38.141228 -84.022903 34,000 314 419 0
2021-07-29 21:42:26 GMT 38.133312 -84.012276 34,000 314 420 0
2021-07-29 21:42:21 GMT 38.127865 -84.004929 34,000 314 420 0
2021-07-29 21:42:12 GMT 38.115967 -83.988838 34,000 314 420 -64
2021-07-29 21:42:05 GMT 38.107819 -83.977913 34,000 314 420 0
2021-07-29 21:42:02 GMT 38.103428 -83.971970 34,000 314 420 -64
2021-07-29 21:41:59 GMT 38.098118 -83.964806 34,000 314 420 -64
2021-07-29 21:41:55 GMT 38.092766 -83.957581 34,000 314 420 -64
2021-07-29 21:41:51 GMT 38.088902 -83.952385 34,000 314 420 -64
2021-07-29 21:41:47 GMT 38.083374 -83.945015 34,000 314 420 -64
2021-07-29 21:41:43 GMT 38.078476 -83.938408 34,000 314 420 128
2021-07-29 21:41:40 GMT 38.072887 -83.930893 34,000 314 418 -64
2021-07-29 21:41:35 GMT 38.066254 -83.921989 34,000 314 416 64
2021-07-29 21:41:31 GMT 38.061714 -83.915901 34,000 314 417 -64
2021-07-29 21:41:28 GMT 38.058548 -83.911606 34,000 314 416 64
2021-07-29 21:41:18 GMT 38.045376 -83.893929 34,000 314 413 128
2021-07-29 21:41:11 GMT 38.034344 -83.879181 34,000 314 411 -64
2021-07-29 21:41:08 GMT 38.031315 -83.875122 34,000 314 410 -64
2021-07-29 21:41:02 GMT 38.024471 -83.865929 34,000 314 408 -192
2021-07-29 21:40:57 GMT 38.018097 -83.857353 34,025 314 407 -128
2021-07-29 21:40:49 GMT 38.006363 -83.841629 34,000 314 405 192
2021-07-29 21:40:42 GMT 37.998413 -83.830940 33,875 314 404 768
2021-07-29 21:40:39 GMT 37.994293 -83.825447 33,925 314 404 640
2021-07-29 21:40:32 GMT 37.985462 -83.813560 33,850 314 404 704
2021-07-29 21:40:28 GMT 37.979691 -83.805801 33,500 314 404 960
2021-07-29 21:40:25 GMT 37.975082 -83.799591 33,750 314 404 704
2021-07-29 21:40:19 GMT 37.967651 -83.789627 33,675 314 404 768
2021-07-29 21:40:12 GMT 37.958649 -83.777557 33,575 314 405 960
2021-07-29 21:40:07 GMT 37.953781 -83.771042 33,500 314 404 960
2021-07-29 21:40:00 GMT 37.943707 -83.757614 33,375 314 406 960
2021-07-29 21:39:57 GMT 37.940632 -83.753494 33,325 314 422 448
2021-07-29 21:39:54 GMT 37.936203 -83.747612 33,275 314 406 1024
2021-07-29 21:39:47 GMT 37.926407 -83.734581 33,125 314 408 1152
2021-07-29 21:39:41 GMT 37.917728 -83.723045 33,000 314 408 1280
2021-07-29 21:39:34 GMT 37.910110 -83.712959 32,850 314 410 1728
2021-07-29 21:39:30 GMT 37.904694 -83.705788 32,725 314 412 1856
2021-07-29 21:39:26 GMT 37.899807 -83.699341 32,600 314 414 2176
2021-07-29 21:39:23 GMT 37.896641 -83.695160 32,500 314 415 2240
2021-07-29 21:39:16 GMT 37.886215 -83.681396 32,250 314 422 1600
2021-07-29 21:39:13 GMT 37.881866 -83.675735 32,150 314 422 1600
2021-07-29 21:39:10 GMT 37.877563 -83.670059 32,100 315 422 960
2021-07-29 21:39:03 GMT 37.868664 -83.658440 32,025 314 422 512
2021-07-29 21:38:55 GMT 37.857258 -83.643272 32,000 313 421 64
2021-07-29 21:38:51 GMT 37.851952 -83.636108 32,000 314 421 -64
2021-07-29 21:38:44 GMT 37.843292 -83.624702 32,000 315 421 -64
2021-07-29 21:38:41 GMT 37.839706 -83.620155 32,000 315 422 64
2021-07-29 21:38:32 GMT 37.824905 -83.601959 32,000 317 420 -64
2021-07-29 21:38:25 GMT 37.815174 -83.590614 32,000 318 420 128
2021-07-29 21:38:20 GMT 37.810226 -83.585037 32,000 319 420 -64
2021-07-29 21:38:14 GMT 37.799999 -83.573952 32,000 321 420 -128
2021-07-29 21:38:11 GMT 37.795486 -83.569313 32,000 322 420 -64
2021-07-29 21:38:04 GMT 37.783356 -83.557106 32,000 322 419 64
2021-07-29 21:38:01 GMT 37.778816 -83.552582 32,000 322 419 64
2021-07-29 21:37:52 GMT 37.767784 -83.541412 32,000 322 420 -64
2021-07-29 21:37:47 GMT 37.760193 -83.533783 32,000 322 419 0
2021-07-29 21:37:43 GMT 37.751770 -83.525314 32,000 322 421 0
2021-07-29 21:37:40 GMT 37.747719 -83.521233 32,000 322 422 -64
2021-07-29 21:37:31 GMT 37.736034 -83.509407 32,000 322 425 -64
2021-07-29 21:37:28 GMT 37.731239 -83.504570 31,975 322 426 -128
2021-07-29 21:37:19 GMT 37.717648 -83.490959 32,000 322 429 -64
2021-07-29 21:37:16 GMT 37.712997 -83.486275 32,000 322 429 -64
2021-07-29 21:37:11 GMT 37.703217 -83.476509 32,000 322 430 64
2021-07-29 21:37:07 GMT 37.698887 -83.472153 32,000 322 431 64
2021-07-29 21:37:01 GMT 37.683292 -83.456505 32,000 322 431 -64
2021-07-29 21:36:57 GMT 37.683292 -83.456505 32,000 322 431 0
2021-07-29 21:36:50 GMT 37.669876 -83.443031 32,000 322 431 0
2021-07-29 21:36:46 GMT 37.665928 -83.439072 32,000 322 430 0
2021-07-29 21:36:40 GMT 37.655220 -83.428383 31,975 322 431 128
2021-07-29 21:36:37 GMT 37.650799 -83.423965 31,975 322 431 -64
2021-07-29 21:36:30 GMT 37.640182 -83.413338 32,000 322 431 64
2021-07-29 21:36:26 GMT 37.633343 -83.406410 32,000 322 431 64
2021-07-29 21:36:15 GMT 37.617371 -83.390434 32,000 322 431 -128
2021-07-29 21:36:08 GMT 37.604370 -83.377464 32,000 322 430 -64
2021-07-29 21:35:56 GMT 37.587627 -83.360733 32,000 322 430 64
2021-07-29 21:35:52 GMT 37.581482 -83.354584 32,000 322 429 0
2021-07-29 21:35:49 GMT 37.574547 -83.347656 32,000 322 430 0
2021-07-29 21:35:46 GMT 37.571426 -83.344551 32,000 322 430 0
2021-07-29 21:35:43 GMT 37.566147 -83.339249 32,000 322 430 0
2021-07-29 21:35:36 GMT 37.554108 -83.327179 32,000 322 430 64
2021-07-29 21:35:31 GMT 37.548943 -83.322044 32,000 322 430 0
2021-07-29 21:35:26 GMT 37.540329 -83.313446 32,000 322 429 64
2021-07-29 21:35:23 GMT 37.536465 -83.309624 32,000 322 429 64
2021-07-29 21:35:18 GMT 37.526184 -83.299393 32,000 322 429 0
2021-07-29 21:35:15 GMT 37.521378 -83.294601 32,000 322 429 0
2021-07-29 21:35:12 GMT 37.519661 -83.292847 32,000 322 429 64
2021-07-29 21:35:07 GMT 37.510757 -83.284019 31,975 322 432 0
2021-07-29 21:35:03 GMT 37.505676 -83.278938 32,000 322 429 0
2021-07-29 21:34:54 GMT 37.488968 -83.262283 32,000 322 431 192
2021-07-29 21:34:47 GMT 37.471893 -83.245277 32,000 322 432 0
2021-07-29 21:34:42 GMT 37.471893 -83.245277 32,000 322 432 0
2021-07-29 21:34:33 GMT 37.456192 -83.229675 32,000 322 432 -64
2021-07-29 21:34:25 GMT 37.444382 -83.217873 32,000 322 432 -64
2021-07-29 21:34:22 GMT 37.439545 -83.213074 32,000 322 432 192
2021-07-29 21:34:14 GMT 37.427719 -83.201317 31,975 322 433 64
2021-07-29 21:34:10 GMT 37.422089 -83.195702 32,000 322 433 0
2021-07-29 21:34:05 GMT 37.411892 -83.185608 32,000 322 433 -128
2021-07-29 21:33:53 GMT 37.394249 -83.168114 32,000 322 434 64
2021-07-29 21:33:43 GMT 37.379772 -83.153725 32,000 322 433 0
2021-07-29 21:33:35 GMT 37.364960 -83.139099 32,000 322 432 0
2021-07-29 21:33:29 GMT 37.356171 -83.130386 32,000 322 431 -64
2021-07-29 21:33:23 GMT 37.347698 -83.122025 32,000 322 431 -64
2021-07-29 21:33:13 GMT 37.331402 -83.105957 32,000 322 430 128
2021-07-29 21:33:02 GMT 37.313202 -83.088043 32,000 322 429 -64
2021-07-29 21:32:51 GMT 37.298492 -83.073647 32,000 323 429 64
2021-07-29 21:32:42 GMT 37.282478 -83.058075 32,000 322 430 -64
2021-07-29 21:32:30 GMT 37.265018 -83.040642 32,000 321 430 128
2021-07-29 21:32:21 GMT 37.249420 -83.024323 32,000 321 430 -64
2021-07-29 21:32:08 GMT 37.231361 -83.005531 32,000 321 430 64
2021-07-29 21:32:00 GMT 37.217304 -82.990845 32,000 321 430 -64
2021-07-29 21:31:48 GMT 37.200916 -82.973763 32,000 321 430 0
2021-07-29 21:31:38 GMT 37.175732 -82.947433 32,000 321 431 -64
2021-07-29 21:31:29 GMT 37.170284 -82.941765 32,000 321 431 0
2021-07-29 21:31:22 GMT 37.160660 -82.931702 32,000 321 431 0
2021-07-29 21:31:17 GMT 37.153931 -82.924629 32,000 320 432 0
2021-07-29 21:31:13 GMT 37.145325 -82.915627 32,000 320 432 0
2021-07-29 21:31:07 GMT 37.138596 -82.908562 32,000 320 432 0
2021-07-29 21:31:01 GMT 37.129486 -82.899033 32,000 320 431 64
2021-07-29 21:30:56 GMT 37.120239 -82.889275 32,000 320 431 -64
2021-07-29 21:30:51 GMT 37.113258 -82.881813 32,000 320 432 -64
2021-07-29 21:30:47 GMT 37.107300 -82.875542 32,000 322 432 0
2021-07-29 21:30:40 GMT 37.095478 -82.863365 32,000 322 432 -64
2021-07-29 21:30:36 GMT 37.090759 -82.858711 32,000 322 432 128
2021-07-29 21:30:29 GMT 37.079361 -82.847549 32,000 322 433 -64
2021-07-29 21:30:25 GMT 37.073044 -82.841415 32,000 323 433 64
2021-07-29 21:30:19 GMT 37.062611 -82.831245 32,000 323 433 64
2021-07-29 21:30:15 GMT 37.057846 -82.826630 32,000 323 433 64
2021-07-29 21:30:08 GMT 37.044434 -82.813538 32,000 322 434 -64
2021-07-29 21:30:01 GMT 37.035236 -82.804611 32,000 322 434 64
2021-07-29 21:29:58 GMT 37.029236 -82.798752 32,000 322 434 64
2021-07-29 21:29:55 GMT 37.024483 -82.794106 32,000 322 434 64
2021-07-29 21:29:47 GMT 37.010834 -82.780815 32,000 323 434 -64
2021-07-29 21:29:44 GMT 37.008316 -82.778358 32,000 323 434 -64
2021-07-29 21:29:37 GMT 36.995899 -82.766342 32,000 323 434 0
2021-07-29 21:29:33 GMT 36.991150 -82.761703 32,000 323 434 64
2021-07-29 21:29:30 GMT 36.986404 -82.757088 32,000 322 435 0
2021-07-29 21:29:27 GMT 36.979374 -82.750275 32,000 323 436 64
2021-07-29 21:29:23 GMT 36.975266 -82.746277 32,000 323 436 64
2021-07-29 21:29:20 GMT 36.968575 -82.739830 32,000 323 436 64
2021-07-29 21:29:14 GMT 36.959976 -82.731491 32,000 323 436 -64
2021-07-29 21:29:04 GMT 36.943588 -82.715538 32,000 323 436 0
2021-07-29 21:28:59 GMT 36.936687 -82.708900 32,000 323 436 0
2021-07-29 21:28:53 GMT 36.926632 -82.699165 32,000 323 435 64
2021-07-29 21:28:48 GMT 36.917553 -82.690392 32,000 323 435 64
2021-07-29 21:28:43 GMT 36.910217 -82.683342 32,000 323 434 0
2021-07-29 21:28:33 GMT 36.894287 -82.667969 32,000 323 434 0
2021-07-29 21:28:22 GMT 36.877075 -82.651489 32,000 323 433 -64
2021-07-29 21:28:11 GMT 36.860596 -82.635712 32,000 323 434 0
2021-07-29 21:28:00 GMT 36.841766 -82.617599 32,000 324 432 0
2021-07-29 21:27:51 GMT 36.827728 -82.605171 32,000 327 433 0
2021-07-29 21:27:44 GMT 36.815929 -82.595741 32,000 330 433 -64
2021-07-29 21:27:40 GMT 36.810059 -82.591377 32,000 330 433 -64
2021-07-29 21:27:34 GMT 36.797123 -82.582359 32,000 334 433 64
2021-07-29 21:27:31 GMT 36.792282 -82.579201 32,000 337 435 0
2021-07-29 21:27:26 GMT 36.782318 -82.573357 32,000 337 435 0
2021-07-29 21:27:19 GMT 36.771473 -82.567749 32,000 339 437 0
2021-07-29 21:27:10 GMT 36.752197 -82.558311 32,000 339 438 -64
2021-07-29 21:26:59 GMT 36.732929 -82.548874 32,000 339 439 0
2021-07-29 21:26:54 GMT 36.723061 -82.544083 32,000 339 439 -64
2021-07-29 21:26:49 GMT 36.712631 -82.539001 32,000 339 438 64
2021-07-29 21:26:37 GMT 36.692459 -82.529121 32,000 339 438 -64
2021-07-29 21:26:24 GMT 36.666046 -82.516251 32,000 339 436 64
2021-07-29 21:26:17 GMT 36.652451 -82.509613 32,000 339 436 0
2021-07-29 21:26:05 GMT 36.632126 -82.499718 32,000 339 436 0
2021-07-29 21:25:56 GMT 36.613708 -82.490730 32,000 339 435 64
2021-07-29 21:25:51 GMT 36.603233 -82.485588 32,000 339 435 64
2021-07-29 21:25:44 GMT 36.593079 -82.480659 32,000 339 435 -64
2021-07-29 21:25:39 GMT 36.583820 -82.476120 32,000 339 436 0
2021-07-29 21:25:35 GMT 36.573952 -82.471329 32,000 339 436 0
2021-07-29 21:25:23 GMT 36.553608 -82.461449 32,000 339 437 128
2021-07-29 21:25:15 GMT 36.537506 -82.453590 32,000 339 440 0
2021-07-29 21:25:06 GMT 36.520660 -82.445473 32,000 339 440 0
2021-07-29 21:25:02 GMT 36.513062 -82.441750 32,000 339 441 64
2021-07-29 21:24:57 GMT 36.504356 -82.437546 32,000 339 441 -64
2021-07-29 21:24:54 GMT 36.496353 -82.433678 32,000 339 441 64
2021-07-29 21:24:48 GMT 36.484573 -82.427910 32,000 339 441 -128
2021-07-29 21:24:43 GMT 36.476936 -82.424225 32,000 339 441 0
2021-07-29 21:24:36 GMT 36.464539 -82.418175 32,000 339 442 0
2021-07-29 21:24:33 GMT 36.457535 -82.414803 32,000 339 442 0
2021-07-29 21:24:26 GMT 36.444580 -82.408447 32,000 339 442 -64
2021-07-29 21:24:23 GMT 36.438858 -82.405701 32,000 339 442 0
2021-07-29 21:24:16 GMT 36.423203 -82.398148 32,000 339 443 -64
2021-07-29 21:24:12 GMT 36.404453 -82.389046 32,000 339 444 -64
2021-07-29 21:24:06 GMT 36.404453 -82.389046 32,000 339 444 -64
2021-07-29 21:24:03 GMT 36.399628 -82.386703 32,000 339 444 -64
2021-07-29 21:23:55 GMT 36.383183 -82.378761 32,000 339 443 128
2021-07-29 21:23:51 GMT 36.378387 -82.376480 32,000 339 443 64
2021-07-29 21:23:45 GMT 36.366886 -82.370872 32,000 339 443 64
2021-07-29 21:23:41 GMT 36.359253 -82.367188 32,000 339 442 -64
2021-07-29 21:23:36 GMT 36.348591 -82.362045 32,000 339 442 -128
2021-07-29 21:23:32 GMT 36.339420 -82.357605 32,000 339 441 -64
2021-07-29 21:23:26 GMT 36.328899 -82.352524 32,000 339 440 64
2021-07-29 21:23:22 GMT 36.321533 -82.348938 32,000 339 440 64
2021-07-29 21:23:19 GMT 36.315960 -82.346268 32,000 339 440 64
2021-07-29 21:23:14 GMT 36.305206 -82.341064 32,000 339 439 -64
2021-07-29 21:23:10 GMT 36.300247 -82.338699 32,000 339 439 -64
2021-07-29 21:23:03 GMT 36.286167 -82.331894 32,000 339 438 0
2021-07-29 21:23:00 GMT 36.280472 -82.329140 32,000 339 438 0
2021-07-29 21:22:55 GMT 36.270245 -82.324181 32,000 339 437 0
2021-07-29 21:22:50 GMT 36.261166 -82.319794 32,000 339 437 -64
2021-07-29 21:22:44 GMT 36.250168 -82.314491 32,000 339 437 -64
2021-07-29 21:22:40 GMT 36.241837 -82.310486 32,000 339 437 0
2021-07-29 21:22:33 GMT 36.230484 -82.305054 32,000 339 436 128
2021-07-29 21:22:29 GMT 36.222107 -82.300987 32,000 339 436 64
2021-07-29 21:22:22 GMT 36.207401 -82.293854 32,000 339 437 64
2021-07-29 21:22:18 GMT 36.202141 -82.291336 32,000 339 436 0
2021-07-29 21:22:13 GMT 36.191940 -82.286392 32,000 339 437 0
2021-07-29 21:22:09 GMT 36.182495 -82.281868 32,000 339 437 0
2021-07-29 21:22:03 GMT 36.170345 -82.276024 32,000 339 439 64
2021-07-29 21:21:57 GMT 36.162415 -82.272202 32,000 339 439 0
2021-07-29 21:21:52 GMT 36.152187 -82.267258 32,000 339 440 -64
2021-07-29 21:21:48 GMT 36.145344 -82.263992 32,000 339 441 -64
2021-07-29 21:21:42 GMT 36.132797 -82.257957 32,000 339 441 -128
2021-07-29 21:21:38 GMT 36.124420 -82.253952 32,025 339 441 -64
2021-07-29 21:21:33 GMT 36.114250 -82.249084 32,000 339 441 64
2021-07-29 21:21:30 GMT 36.087341 -82.236176 32,000 339 441 128
2021-07-29 21:21:19 GMT 36.087341 -82.236176 32,000 339 441 0
2021-07-29 21:21:16 GMT 36.081619 -82.233414 32,000 339 441 0
2021-07-29 21:21:11 GMT 36.073608 -82.229630 32,000 339 441 64
2021-07-29 21:21:05 GMT 36.062157 -82.224075 32,000 339 441 -64
2021-07-29 21:21:01 GMT 36.041977 -82.214417 32,000 339 440 -128
2021-07-29 21:20:55 GMT 36.041977 -82.214417 32,000 339 440 -128
2021-07-29 21:20:49 GMT 36.032501 -82.209816 32,000 339 439 0
2021-07-29 21:20:45 GMT 36.023426 -82.205490 32,000 339 439 64
2021-07-29 21:20:40 GMT 36.012810 -82.200409 32,000 339 438 64
2021-07-29 21:20:29 GMT 35.986633 -82.187859 32,000 339 440 0
2021-07-29 21:20:23 GMT 35.982834 -82.186028 32,000 339 440 64
2021-07-29 21:20:19 GMT 35.975010 -82.182236 32,000 339 441 -64
2021-07-29 21:20:15 GMT 35.967773 -82.178764 32,000 339 441 0
2021-07-29 21:20:06 GMT 35.948292 -82.169495 32,000 339 443 -64
2021-07-29 21:19:57 GMT 35.933304 -82.162285 32,000 339 444 0
2021-07-29 21:19:54 GMT 35.928635 -82.160110 32,000 339 444 -64
2021-07-29 21:19:51 GMT 35.921814 -82.156853 32,000 339 444 -64
2021-07-29 21:19:48 GMT 35.915936 -82.154007 32,000 339 444 0
2021-07-29 21:19:45 GMT 35.908813 -82.150612 32,000 339 444 0
2021-07-29 21:19:37 GMT 35.895721 -82.144379 32,000 339 444 64
2021-07-29 21:19:32 GMT 35.886189 -82.139809 32,000 339 442 -64
2021-07-29 21:19:28 GMT 35.876087 -82.135017 32,000 339 441 0
2021-07-29 21:19:23 GMT 35.869244 -82.131744 32,000 339 440 0
2021-07-29 21:19:17 GMT 35.856674 -82.125725 32,000 339 440 0
2021-07-29 21:19:14 GMT 35.849808 -82.122459 32,000 339 440 0
2021-07-29 21:19:06 GMT 35.836899 -82.116341 32,000 340 439 64
2021-07-29 21:19:02 GMT 35.828136 -82.112228 32,000 339 440 64
2021-07-29 21:18:57 GMT 35.817856 -82.107407 32,000 340 439 0
2021-07-29 21:18:53 GMT 35.810257 -82.103867 32,000 340 440 -64
2021-07-29 21:18:44 GMT 35.789566 -82.094193 32,000 340 443 0
2021-07-29 21:18:35 GMT 35.777676 -82.088554 32,000 339 443 0
2021-07-29 21:18:30 GMT 35.766178 -82.083237 32,000 341 443 -64
2021-07-29 21:18:26 GMT 35.758404 -82.079971 32,000 342 444 64
2021-07-29 21:18:21 GMT 35.750153 -82.076736 32,000 344 444 -64
2021-07-29 21:18:14 GMT 35.737083 -82.072197 32,000 346 445 0
2021-07-29 21:18:11 GMT 35.729553 -82.069931 32,000 348 445 -64
2021-07-29 21:18:04 GMT 35.717018 -82.066582 32,000 350 445 -128
2021-07-29 21:18:01 GMT 35.708126 -82.064659 32,000 352 446 64
2021-07-29 21:17:58 GMT 35.702774 -82.063690 32,000 352 445 128
2021-07-29 21:17:55 GMT 35.695789 -82.062668 32,000 355 445 64
2021-07-29 21:17:50 GMT 35.686760 -82.061790 32,000 357 446 64
2021-07-29 21:17:44 GMT 35.674667 -82.061066 32,000 358 446 64
2021-07-29 21:17:40 GMT 35.665157 -82.060570 32,000 358 446 0
2021-07-29 21:17:37 GMT 35.658966 -82.060265 32,000 358 446 -64
2021-07-29 21:17:33 GMT 35.652557 -82.059914 32,000 358 446 -64
2021-07-29 21:17:29 GMT 35.643700 -82.059456 32,000 358 446 -64
2021-07-29 21:17:23 GMT 35.631268 -82.058754 32,000 358 446 -64
2021-07-29 21:17:19 GMT 35.621353 -82.058228 32,000 358 445 0
2021-07-29 21:17:13 GMT 35.610645 -82.057648 32,000 358 445 64
2021-07-29 21:17:08 GMT 35.599987 -82.057060 32,000 358 444 128
2021-07-29 21:17:03 GMT 35.587788 -82.056297 31,975 358 443 64
2021-07-29 21:16:58 GMT 35.578617 -82.055771 31,975 358 443 0
2021-07-29 21:16:52 GMT 35.556015 -82.054543 32,000 358 440 64
2021-07-29 21:16:46 GMT 35.556015 -82.054543 32,000 358 441 64
2021-07-29 21:16:42 GMT 35.546638 -82.054077 32,000 358 441 64
2021-07-29 21:16:35 GMT 35.532764 -82.053436 32,000 358 440 -64
2021-07-29 21:16:32 GMT 35.525803 -82.053108 32,000 358 440 0
2021-07-29 21:16:27 GMT 35.514450 -82.052589 32,000 358 440 64
2021-07-29 21:16:21 GMT 35.493660 -82.051628 32,000 358 440 64
2021-07-29 21:16:16 GMT 35.493660 -82.051628 32,000 358 440 64
2021-07-29 21:16:09 GMT 35.480942 -82.050987 32,000 358 440 64
2021-07-29 21:16:06 GMT 35.472527 -82.050575 32,000 358 441 64
2021-07-29 21:16:00 GMT 35.460526 -82.049957 32,000 358 441 -64
2021-07-29 21:15:54 GMT 35.438869 -82.048882 32,000 358 442 128
2021-07-29 21:15:49 GMT 35.438869 -82.048882 32,000 358 443 64
2021-07-29 21:15:45 GMT 35.430267 -82.048470 32,000 358 444 0
2021-07-29 21:15:39 GMT 35.417953 -82.047844 32,000 358 444 -192
2021-07-29 21:15:34 GMT 35.408890 -82.047386 32,025 358 445 -128
2021-07-29 21:15:30 GMT 35.398602 -82.046829 32,025 358 444 -128
2021-07-29 21:15:22 GMT 35.383007 -82.046013 32,000 358 442 192
2021-07-29 21:15:18 GMT 35.374813 -82.045547 32,000 358 441 0
2021-07-29 21:15:13 GMT 35.365402 -82.045036 32,000 358 440 64
2021-07-29 21:15:08 GMT 35.356007 -82.044556 32,000 358 440 0
2021-07-29 21:15:02 GMT 35.343948 -82.043854 32,000 358 439 64
2021-07-29 21:14:59 GMT 35.334549 -82.043381 32,000 358 439 128
2021-07-29 21:14:53 GMT 35.322235 -82.042694 32,000 358 439 64
2021-07-29 21:14:49 GMT 35.314911 -82.042236 32,000 358 439 64
2021-07-29 21:14:46 GMT 35.311268 -82.042046 32,000 358 440 -128
2021-07-29 21:14:43 GMT 35.305115 -82.041664 32,000 358 440 -128
2021-07-29 21:14:40 GMT 35.297012 -82.041206 32,000 358 440 -128
2021-07-29 21:14:35 GMT 35.285477 -82.040634 32,000 358 440 64
2021-07-29 21:14:31 GMT 35.279335 -82.040291 32,000 358 440 64
2021-07-29 21:14:27 GMT 35.271606 -82.039833 32,000 358 440 -64
2021-07-29 21:14:19 GMT 35.253662 -82.038857 32,000 358 440 64
2021-07-29 21:14:16 GMT 35.247540 -82.038536 32,000 358 440 128
2021-07-29 21:14:11 GMT 35.237503 -82.037949 32,000 358 441 128
2021-07-29 21:14:07 GMT 35.229355 -82.037430 31,975 358 442 -64
2021-07-29 21:13:59 GMT 35.215302 -82.036591 32,000 358 443 -128
2021-07-29 21:13:55 GMT 35.206467 -82.036148 32,000 358 444 -64
2021-07-29 21:13:50 GMT 35.195572 -82.035530 32,000 358 444 -128
2021-07-29 21:13:44 GMT 35.182434 -82.034744 32,000 358 443 64
2021-07-29 21:13:40 GMT 35.173416 -82.034241 32,000 358 443 -64
2021-07-29 21:13:36 GMT 35.166447 -82.033829 32,000 358 442 64
2021-07-29 21:13:31 GMT 35.157806 -82.033340 32,000 358 442 64
2021-07-29 21:13:28 GMT 35.151642 -82.032967 32,000 358 442 64
2021-07-29 21:13:25 GMT 35.143799 -82.032448 32,000 358 443 0
2021-07-29 21:13:22 GMT 35.137676 -82.032104 32,000 358 444 -128
2021-07-29 21:13:19 GMT 35.130367 -82.031654 32,000 358 444 -128
2021-07-29 21:13:13 GMT 35.120453 -82.031021 32,000 358 446 64
2021-07-29 21:13:07 GMT 35.108814 -82.030334 32,000 358 448 64
2021-07-29 21:13:03 GMT 35.087074 -82.029015 32,000 358 455 128
2021-07-29 21:12:58 GMT 35.087074 -82.029015 32,000 358 453 -64
2021-07-29 21:12:52 GMT 35.075729 -82.028297 32,000 358 455 128
2021-07-29 21:12:46 GMT 35.064835 -82.027679 32,000 358 455 -64
2021-07-29 21:12:42 GMT 35.055046 -82.027077 32,000 358 456 -64
2021-07-29 21:12:34 GMT 35.036472 -82.025986 32,000 358 456 64
2021-07-29 21:12:30 GMT 35.030228 -82.025604 32,000 358 456 64
2021-07-29 21:12:26 GMT 35.021156 -82.025070 32,000 358 456 -64
2021-07-29 21:12:23 GMT 35.014847 -82.024651 32,000 358 457 -64
2021-07-29 21:12:20 GMT 35.007339 -82.024208 32,000 358 457 -64
2021-07-29 21:12:15 GMT 34.998825 -82.023705 32,000 358 457 -128
2021-07-29 21:12:11 GMT 34.989349 -82.023140 32,025 358 456 -128
2021-07-29 21:12:06 GMT 34.976669 -82.022354 32,000 358 456 192
2021-07-29 21:12:03 GMT 34.970810 -82.022018 32,000 358 455 64
2021-07-29 21:11:59 GMT 34.965683 -82.021683 32,000 358 455 0
2021-07-29 21:11:54 GMT 34.955097 -82.021065 32,000 358 454 128
2021-07-29 21:11:50 GMT 34.944157 -82.020378 32,000 358 454 64
2021-07-29 21:11:45 GMT 34.933685 -82.019775 32,000 358 453 -128
2021-07-29 21:11:41 GMT 34.927826 -82.019386 32,000 358 453 -128
2021-07-29 21:11:38 GMT 34.921535 -82.019058 32,000 358 453 -64
2021-07-29 21:11:33 GMT 34.911026 -82.018379 32,000 357 453 64
2021-07-29 21:11:30 GMT 34.901962 -82.017700 32,000 357 453 0
2021-07-29 21:11:21 GMT 34.884758 -82.015968 32,000 354 451 64
2021-07-29 21:11:18 GMT 34.880035 -82.015236 32,000 352 450 64
2021-07-29 21:11:13 GMT 34.868500 -82.013107 32,000 350 449 64
2021-07-29 21:11:09 GMT 34.858315 -82.010712 32,000 348 448 -64
2021-07-29 21:11:03 GMT 34.847351 -82.007668 32,000 347 448 -64
2021-07-29 21:11:00 GMT 34.841858 -82.006104 32,000 347 448 -128
2021-07-29 21:10:57 GMT 34.836914 -82.004646 32,000 347 449 -128
2021-07-29 21:10:53 GMT 34.825916 -82.001495 32,000 347 449 64
2021-07-29 21:10:48 GMT 34.815441 -81.998520 32,000 347 448 128
2021-07-29 21:10:40 GMT 34.800522 -81.994217 32,000 347 448 128
2021-07-29 21:10:36 GMT 34.794632 -81.992516 31,975 347 447 0
2021-07-29 21:10:32 GMT 34.784454 -81.989563 32,000 347 447 -192
2021-07-29 21:10:27 GMT 34.773926 -81.986595 32,000 347 447 64
2021-07-29 21:10:21 GMT 34.762756 -81.983345 32,000 347 448 0
2021-07-29 21:10:18 GMT 34.755760 -81.981354 32,000 347 448 128
2021-07-29 21:10:15 GMT 34.751804 -81.980209 32,000 347 448 128
2021-07-29 21:10:10 GMT 34.739960 -81.976845 32,000 347 448 0
2021-07-29 21:10:07 GMT 34.734375 -81.975220 32,000 347 449 -128
2021-07-29 21:10:04 GMT 34.726364 -81.972916 32,000 347 449 -128
2021-07-29 21:10:00 GMT 34.720287 -81.971230 32,000 347 450 192
2021-07-29 21:09:54 GMT 34.708744 -81.967911 32,000 347 451 -64
2021-07-29 21:09:48 GMT 34.695847 -81.964188 32,000 347 450 64
2021-07-29 21:09:45 GMT 34.688873 -81.962158 32,000 347 450 128
2021-07-29 21:09:38 GMT 34.674316 -81.958008 32,000 347 448 64
2021-07-29 21:09:33 GMT 34.666168 -81.955650 32,000 347 448 64
2021-07-29 21:09:27 GMT 34.646027 -81.949936 32,000 347 447 64
2021-07-29 21:09:24 GMT 34.646027 -81.949936 32,000 347 447 0
2021-07-29 21:09:19 GMT 34.635590 -81.946907 32,000 347 447 0
2021-07-29 21:09:14 GMT 34.625748 -81.944107 32,000 347 446 64
2021-07-29 21:09:11 GMT 34.621902 -81.942986 32,000 347 446 64
2021-07-29 21:09:05 GMT 34.608856 -81.939232 32,000 347 446 -64
2021-07-29 21:09:02 GMT 34.601208 -81.937065 32,000 347 447 64
2021-07-29 21:08:56 GMT 34.591919 -81.934410 32,000 347 447 128
2021-07-29 21:08:52 GMT 34.583817 -81.932114 32,000 347 448 -64
2021-07-29 21:08:46 GMT 34.570816 -81.928352 32,000 347 448 -128
2021-07-29 21:08:41 GMT 34.561890 -81.925835 32,000 347 450 0
2021-07-29 21:08:36 GMT 34.548649 -81.922012 32,000 347 452 -128
2021-07-29 21:08:32 GMT 34.541389 -81.919952 32,000 347 452 -64
2021-07-29 21:08:26 GMT 34.530167 -81.916756 32,000 347 453 0
2021-07-29 21:08:23 GMT 34.522396 -81.914520 32,000 347 453 0
2021-07-29 21:08:20 GMT 34.519089 -81.913605 32,000 347 453 64
2021-07-29 21:08:13 GMT 34.504379 -81.909370 31,925 347 453 1088
2021-07-29 21:08:10 GMT 34.497211 -81.907310 31,875 347 454 1536
2021-07-29 21:08:05 GMT 34.485947 -81.904083 31,725 347 455 1664
2021-07-29 21:08:02 GMT 34.481827 -81.902962 31,650 347 457 1728
2021-07-29 21:07:58 GMT 34.474457 -81.900833 31,550 347 457 1728
2021-07-29 21:07:55 GMT 34.466125 -81.898483 31,450 347 460 1472
2021-07-29 21:07:49 GMT 34.453812 -81.894951 31,325 347 462 1216
2021-07-29 21:07:43 GMT 34.443695 -81.892090 31,050 347 461 256
2021-07-29 21:07:39 GMT 34.433670 -81.889229 31,175 347 463 640
2021-07-29 21:07:31 GMT 34.417786 -81.884689 31,125 347 463 384
2021-07-29 21:07:28 GMT 34.409592 -81.882339 31,100 347 463 384
2021-07-29 21:07:22 GMT 34.396088 -81.878525 31,050 347 461 256
2021-07-29 21:07:17 GMT 34.388184 -81.876244 31,050 347 461 256
2021-07-29 21:07:12 GMT 34.378784 -81.873535 31,025 347 460 256
2021-07-29 21:07:08 GMT 34.367889 -81.870453 31,000 347 460 192
2021-07-29 21:07:03 GMT 34.357506 -81.867485 31,000 347 459 0
2021-07-29 21:07:00 GMT 34.353363 -81.866341 31,000 347 459 0
2021-07-29 21:06:55 GMT 34.342117 -81.863167 31,000 347 459 0
2021-07-29 21:06:51 GMT 34.334232 -81.860909 31,000 347 458 0
2021-07-29 21:06:47 GMT 34.323944 -81.858009 31,000 347 457 64
2021-07-29 21:06:43 GMT 34.317753 -81.856216 31,000 347 457 -64
2021-07-29 21:06:40 GMT 34.311539 -81.854477 31,000 347 456 -64
2021-07-29 21:06:29 GMT 34.288891 -81.848083 31,000 347 456 -64
2021-07-29 21:06:18 GMT 34.266823 -81.841789 31,000 347 453 64
2021-07-29 21:06:11 GMT 34.250202 -81.837105 31,000 347 456 -64
2021-07-29 21:06:08 GMT 34.246201 -81.835960 31,000 347 456 64
2021-07-29 21:06:04 GMT 34.238007 -81.833672 31,000 347 456 64
2021-07-29 21:05:49 GMT 34.205246 -81.824326 31,000 347 456 -128
2021-07-29 21:05:42 GMT 34.192886 -81.820847 31,000 347 456 64
2021-07-29 21:05:34 GMT 34.173531 -81.815353 31,000 347 455 -64
2021-07-29 21:05:28 GMT 34.162033 -81.812096 31,000 347 455 -64
2021-07-29 21:05:21 GMT 34.150131 -81.808739 31,000 347 455 -64
2021-07-29 21:05:07 GMT 34.118912 -81.799881 31,000 347 451 64
2021-07-29 21:04:58 GMT 34.102524 -81.795288 31,000 347 454 0
2021-07-29 21:04:51 GMT 34.088295 -81.791267 31,000 347 454 0
2021-07-29 21:04:39 GMT 34.063667 -81.784348 31,000 347 453 64
2021-07-29 21:04:30 GMT 34.044861 -81.779022 31,000 347 451 128
2021-07-29 21:04:21 GMT 34.024887 -81.773369 31,000 347 451 -128
2021-07-29 21:03:57 GMT 33.977600 -81.760086 31,000 347 452 64
2021-07-29 21:03:50 GMT 33.961304 -81.755432 31,000 347 453 -64
2021-07-29 21:03:37 GMT 33.937233 -81.748695 31,000 347 452 -64
2021-07-29 21:03:27 GMT 33.917175 -81.743050 31,000 347 453 -64
2021-07-29 21:03:18 GMT 33.898499 -81.737778 31,000 347 451 0
2021-07-29 21:02:54 GMT 33.848270 -81.723747 31,000 347 449 -64
2021-07-29 21:02:46 GMT 33.833702 -81.719627 31,000 347 447 64
2021-07-29 20:59:02 GMT 33.381683 -81.593483 31,000 347 442 0
2021-07-29 20:58:55 GMT 33.367851 -81.589630 31,000 347 441 0
2021-07-29 20:58:47 GMT 33.351379 -81.585075 31,000 347 441 -64
2021-07-29 20:58:34 GMT 33.325790 -81.577934 31,000 347 441 0
2021-07-29 20:58:26 GMT 33.309860 -81.573540 31,000 347 440 0
2021-07-29 20:56:22 GMT 33.064087 -81.506142 31,000 348 439 -64
2021-07-29 20:56:18 GMT 33.056122 -81.503944 31,000 348 438 128
2021-07-29 20:55:52 GMT 33.004532 -81.489883 30,450 348 441 1408
2021-07-29 20:55:48 GMT 32.996567 -81.487686 30,375 348 443 1344
2021-07-29 20:55:07 GMT 32.908615 -81.463737 29,500 348 452 1024
2021-07-29 20:55:03 GMT 32.905746 -81.462967 29,475 348 456 1856
2021-07-29 20:54:54 GMT 32.886841 -81.457855 29,225 348 457 2112
2021-07-29 20:54:45 GMT 32.868114 -81.452751 29,050 348 460 512
2021-07-29 20:54:35 GMT 32.847351 -81.447144 29,000 348 459 128
2021-07-29 20:54:24 GMT 32.824959 -81.441032 29,000 348 459 -64
2021-07-29 20:54:15 GMT 32.805782 -81.435875 29,000 348 459 0
2021-07-29 20:54:04 GMT 32.783344 -81.429825 29,000 348 459 -64
2021-07-29 20:53:55 GMT 32.763840 -81.424515 29,000 348 459 0
2021-07-29 20:53:44 GMT 32.741455 -81.418472 29,000 348 459 64
2021-07-29 20:53:35 GMT 32.721008 -81.413010 29,000 348 460 -64
2021-07-29 20:53:24 GMT 32.699753 -81.407318 29,000 348 461 128
2021-07-29 20:53:14 GMT 32.679016 -81.401772 29,000 348 461 0
2021-07-29 20:53:04 GMT 32.658005 -81.396225 29,000 348 460 -64
2021-07-29 20:52:53 GMT 32.635483 -81.390457 29,000 348 460 64
2021-07-29 20:52:43 GMT 32.614838 -81.385071 29,000 347 459 64
2021-07-29 20:52:39 GMT 32.605930 -81.382629 29,000 347 459 -64
2021-07-29 20:52:33 GMT 32.593502 -81.379265 29,000 349 458 64
2021-07-29 20:52:31 GMT 32.587234 -81.377708 29,000 349 459 128
2021-07-29 20:52:22 GMT 32.571350 -81.374084 29,000 350 458 -128
2021-07-29 20:52:19 GMT 32.564220 -81.372597 29,000 351 458 -64
2021-07-29 20:52:13 GMT 32.551651 -81.370186 29,000 352 458 0
2021-07-29 20:52:09 GMT 32.540943 -81.368332 29,000 353 457 -128
2021-07-29 20:52:03 GMT 32.529373 -81.366562 29,000 354 456 128
2021-07-29 20:51:58 GMT 32.519718 -81.365364 29,000 355 454 0
2021-07-29 20:51:52 GMT 32.507629 -81.364197 29,000 357 454 -64
2021-07-29 20:51:49 GMT 32.500397 -81.363739 29,000 357 453 64
2021-07-29 20:51:42 GMT 32.486153 -81.362839 29,000 357 452 64
2021-07-29 20:51:39 GMT 32.477417 -81.362328 29,000 357 451 -64
2021-07-29 20:51:32 GMT 32.465698 -81.361557 29,000 358 450 0
2021-07-29 20:51:27 GMT 32.455288 -81.360931 29,000 358 449 0
2021-07-29 20:51:22 GMT 32.444630 -81.360321 29,000 358 447 64
2021-07-29 20:51:18 GMT 32.434528 -81.359703 29,000 358 446 64
2021-07-29 20:51:12 GMT 32.423401 -81.359032 29,000 358 445 0
2021-07-29 20:51:07 GMT 32.413513 -81.358429 29,000 358 443 0
2021-07-29 20:51:02 GMT 32.403671 -81.357826 29,000 358 442 64
2021-07-29 20:50:57 GMT 32.392582 -81.357124 29,000 358 441 64
2021-07-29 20:50:52 GMT 32.381969 -81.356506 29,000 358 439 -64
2021-07-29 20:50:46 GMT 32.368935 -81.355667 29,000 357 438 -64
2021-07-29 20:50:41 GMT 32.361374 -81.355240 29,000 357 437 64
2021-07-29 20:50:35 GMT 32.349663 -81.354485 29,000 358 436 -64
2021-07-29 20:50:30 GMT 32.339794 -81.353928 29,000 358 436 64
2021-07-29 20:50:26 GMT 32.328873 -81.353264 29,000 357 436 64
2021-07-29 20:50:20 GMT 32.318390 -81.352608 29,000 357 436 0
2021-07-29 20:50:14 GMT 32.306259 -81.351891 29,000 357 436 64
2021-07-29 20:50:09 GMT 32.296314 -81.351234 29,000 357 436 -64
2021-07-29 20:50:04 GMT 32.285980 -81.350632 29,000 357 436 -64
2021-07-29 20:49:58 GMT 32.274673 -81.349915 29,000 357 436 0
2021-07-29 20:49:55 GMT 32.265015 -81.349312 29,000 357 436 0
2021-07-29 20:49:48 GMT 32.254044 -81.348656 29,000 358 436 0
2021-07-29 20:49:43 GMT 32.244312 -81.348045 29,000 357 436 64
2021-07-29 20:49:38 GMT 32.232605 -81.347336 29,000 357 436 0
2021-07-29 20:49:34 GMT 32.223724 -81.346786 29,000 357 436 -64
2021-07-29 20:49:30 GMT 32.217640 -81.346420 29,000 357 436 0
2021-07-29 20:49:26 GMT 32.211216 -81.346024 29,000 357 437 0
2021-07-29 20:49:21 GMT 32.199020 -81.345299 29,000 358 437 -64
2021-07-29 20:49:17 GMT 32.190536 -81.344749 29,000 358 438 -64
2021-07-29 20:49:13 GMT 32.180740 -81.344200 29,000 358 438 -64
2021-07-29 20:49:07 GMT 32.170212 -81.343544 29,000 357 438 320
2021-07-29 20:49:02 GMT 32.160240 -81.342941 28,925 357 437 1152
2021-07-29 20:48:57 GMT 32.150326 -81.342384 28,850 357 438 1088
2021-07-29 20:48:52 GMT 32.139359 -81.341675 28,750 357 438 1152
2021-07-29 20:48:46 GMT 32.129330 -81.341095 28,650 357 438 1152
2021-07-29 20:48:42 GMT 32.118065 -81.340416 28,550 358 439 1216
2021-07-29 20:48:36 GMT 32.107681 -81.339752 28,450 358 439 1152
2021-07-29 20:48:30 GMT 32.096649 -81.339073 28,350 358 439 960
2021-07-29 20:48:26 GMT 32.086967 -81.338516 28,300 358 439 768
2021-07-29 20:48:21 GMT 32.075043 -81.337776 28,225 358 438 768
2021-07-29 20:48:15 GMT 32.066116 -81.337280 28,150 357 438 896
2021-07-29 20:48:08 GMT 32.049911 -81.336288 28,025 357 437 896
2021-07-29 20:48:05 GMT 32.045883 -81.336014 28,000 358 437 1024
2021-07-29 20:47:59 GMT 32.032928 -81.335251 27,900 357 437 1088
2021-07-29 20:47:55 GMT 32.024826 -81.334755 27,825 357 437 1216
2021-07-29 20:47:49 GMT 32.012344 -81.333977 27,675 357 438 1344
2021-07-29 20:47:45 GMT 32.003311 -81.333412 27,600 357 438 1216
2021-07-29 20:47:38 GMT 31.991211 -81.332687 27,475 357 438 1088
2021-07-29 20:47:33 GMT 31.982180 -81.332123 27,400 357 438 1024
2021-07-29 20:47:29 GMT 31.970398 -81.331406 27,300 357 438 1088
2021-07-29 20:47:24 GMT 31.961882 -81.330833 27,225 357 438 1216
2021-07-29 20:47:17 GMT 31.948517 -81.330032 27,100 357 438 1152
2021-07-29 20:47:13 GMT 31.939072 -81.329491 27,025 357 438 1152
2021-07-29 20:47:08 GMT 31.926498 -81.328712 26,875 357 438 1280
2021-07-29 20:47:04 GMT 31.920404 -81.328316 26,825 357 438 1280
2021-07-29 20:46:57 GMT 31.906624 -81.327469 26,675 357 438 1152
2021-07-29 20:46:53 GMT 31.899269 -81.327026 26,625 357 438 1088
2021-07-29 20:46:46 GMT 31.884838 -81.326126 26,500 357 438 896
2021-07-29 20:46:43 GMT 31.878971 -81.325729 26,450 357 438 960
2021-07-29 20:46:36 GMT 31.864309 -81.324837 26,325 357 437 1088
2021-07-29 20:46:33 GMT 31.858246 -81.324425 26,275 357 437 1152
2021-07-29 20:46:25 GMT 31.843220 -81.323547 26,150 357 437 1088
2021-07-29 20:46:21 GMT 31.835913 -81.323097 26,075 358 437 1088
2021-07-29 20:46:16 GMT 31.821854 -81.322227 25,950 358 436 1216
2021-07-29 20:46:11 GMT 31.814484 -81.321793 25,875 358 436 1216
2021-07-29 20:46:05 GMT 31.800705 -81.320969 25,750 358 436 1216
2021-07-29 20:46:02 GMT 31.794666 -81.320633 25,675 358 436 1216
2021-07-29 20:45:52 GMT 31.775253 -81.319511 25,475 358 436 1216
2021-07-29 20:45:49 GMT 31.767155 -81.319046 25,400 358 436 1216
2021-07-29 20:45:42 GMT 31.754259 -81.318329 25,275 358 435 1152
2021-07-29 20:45:31 GMT 31.730053 -81.317062 25,125 358 433 704
2021-07-29 20:45:24 GMT 31.717203 -81.316353 25,050 357 431 768
2021-07-29 20:45:20 GMT 31.710434 -81.315903 25,000 357 430 896
2021-07-29 20:45:11 GMT 31.693085 -81.315041 24,850 359 429 1088
2021-07-29 20:45:09 GMT 31.687038 -81.314865 24,800 0 428 1024
2021-07-29 20:45:01 GMT 31.672560 -81.314926 24,675 1 427 960
2021-07-29 20:44:59 GMT 31.668604 -81.315086 24,650 1 427 960
2021-07-29 20:44:54 GMT 31.660084 -81.315475 24,575 3 426 1024
2021-07-29 20:44:50 GMT 31.652031 -81.315964 24,500 3 425 1024
2021-07-29 20:44:47 GMT 31.644653 -81.316650 24,425 4 425 1088
2021-07-29 20:44:44 GMT 31.639847 -81.317139 24,375 5 425 1216
2021-07-29 20:44:41 GMT 31.633177 -81.317947 24,325 6 424 1344
2021-07-29 20:44:38 GMT 31.628128 -81.318649 24,250 8 424 1408
2021-07-29 20:44:30 GMT 31.613342 -81.321342 24,100 10 423 1408
2021-07-29 20:44:26 GMT 31.605606 -81.323006 24,000 11 421 1344
2021-07-29 20:44:20 GMT 31.593246 -81.325806 23,850 11 423 1344
2021-07-29 20:44:10 GMT 31.573589 -81.330307 23,625 11 422 1216
2021-07-29 20:44:03 GMT 31.561661 -81.333023 23,500 11 421 1344
2021-07-29 20:43:59 GMT 31.552269 -81.335136 23,400 11 421 1344
2021-07-29 20:43:56 GMT 31.545938 -81.336563 23,325 11 421 1344
2021-07-29 20:43:50 GMT 31.534439 -81.339203 23,200 10 420 1280
2021-07-29 20:43:45 GMT 31.526367 -81.341049 23,100 10 420 1216
2021-07-29 20:43:40 GMT 31.515656 -81.343475 23,000 10 419 1216
2021-07-29 20:43:36 GMT 31.507416 -81.345360 22,900 11 418 1280
2021-07-29 20:43:29 GMT 31.495056 -81.348160 22,775 11 418 1280
2021-07-29 20:43:24 GMT 31.487003 -81.349968 22,675 11 417 1280
2021-07-29 20:43:19 GMT 31.475597 -81.352608 22,550 11 417 1152
2021-07-29 20:43:09 GMT 31.456652 -81.356888 22,375 10 415 1152
2021-07-29 20:43:03 GMT 31.446442 -81.359253 22,275 10 414 1024
2021-07-29 20:43:00 GMT 31.440445 -81.360596 22,225 11 413 832
2021-07-29 20:42:57 GMT 31.434771 -81.361893 22,200 11 412 768
2021-07-29 20:42:54 GMT 31.427628 -81.363510 22,125 10 410 1024
2021-07-29 20:42:51 GMT 31.420527 -81.365074 22,075 10 409 1088
2021-07-29 20:42:40 GMT 31.401253 -81.369415 21,875 11 407 1280
2021-07-29 20:42:32 GMT 31.388214 -81.372391 21,700 11 406 1408
2021-07-29 20:42:27 GMT 31.379095 -81.374466 21,600 10 406 1408
2021-07-29 20:42:22 GMT 31.370110 -81.376503 21,475 11 405 1408
2021-07-29 20:42:13 GMT 31.351456 -81.380737 21,225 10 404 1472
2021-07-29 20:42:09 GMT 31.344320 -81.382378 21,150 11 403 1408
2021-07-29 20:41:59 GMT 31.327469 -81.386223 20,925 11 402 1408
2021-07-29 20:41:53 GMT 31.300140 -81.392426 20,425 10 399 1280
2021-07-29 20:41:44 GMT 31.300140 -81.392426 20,625 10 398 1216
2021-07-29 20:41:34 GMT 31.282059 -81.396469 20,450 11 394 832
2021-07-29 20:41:29 GMT 31.273235 -81.398476 20,400 10 390 576
2021-07-29 20:41:23 GMT 31.262787 -81.400826 20,350 10 388 640
2021-07-29 20:41:20 GMT 31.255737 -81.402443 20,300 10 384 640
2021-07-29 20:41:11 GMT 31.238089 -81.406441 20,225 10 377 384
2021-07-29 20:41:03 GMT 31.228043 -81.408691 20,175 10 373 448
2021-07-29 20:40:58 GMT 31.219561 -81.410614 20,150 11 366 448
2021-07-29 20:40:44 GMT 31.194672 -81.416229 20,000 10 357 576
2021-07-29 20:40:38 GMT 31.186386 -81.418114 19,950 10 353 576
2021-07-29 20:40:18 GMT 31.154022 -81.425438 19,525 11 344 1472
2021-07-29 20:40:16 GMT 31.152431 -81.425774 19,500 10 343 1600
2021-07-29 20:39:37 GMT 31.090797 -81.439674 18,400 10 333 1536
2021-07-29 20:39:27 GMT 31.076225 -81.442970 18,150 11 330 1664
2021-07-29 20:39:17 GMT 31.060455 -81.446548 17,850 10 327 1792
2021-07-29 20:39:13 GMT 31.056107 -81.447517 17,750 10 326 1920
2021-07-29 20:39:04 GMT 31.040474 -81.451042 17,400 10 326 2240
2021-07-29 20:38:55 GMT 31.026947 -81.454094 17,075 11 323 1600
2021-07-29 20:38:52 GMT 31.024658 -81.454575 17,025 10 326 1856
2021-07-29 20:38:43 GMT 31.009470 -81.458023 16,725 11 323 1600
2021-07-29 20:38:32 GMT 30.994202 -81.461426 16,450 10 319 1792
2021-07-29 20:38:20 GMT 30.977907 -81.465164 16,100 11 317 1920
2021-07-29 20:38:12 GMT 30.963913 -81.468361 15,800 10 315 1984
2021-07-29 20:38:01 GMT 30.949539 -81.471809 15,425 13 313 2304
2021-07-29 20:37:50 GMT 30.933792 -81.476929 14,975 17 314 2432
2021-07-29 20:37:39 GMT 30.919346 -81.483177 14,600 22 312 2112
2021-07-29 20:37:29 GMT 30.905613 -81.490433 14,250 24 310 1984
2021-07-29 20:37:18 GMT 30.891861 -81.497871 13,925 24 307 1920
2021-07-29 20:37:05 GMT 30.874878 -81.507027 13,500 24 303 1920
2021-07-29 20:36:57 GMT 30.864304 -81.512741 13,275 24 301 2112
2021-07-29 20:36:48 GMT 30.853638 -81.518448 12,900 24 298 2368
2021-07-29 20:36:37 GMT 30.838762 -81.526466 12,425 25 297 2368
2021-07-29 20:36:26 GMT 30.826996 -81.532768 12,050 24 296 2368
2021-07-29 20:36:15 GMT 30.812027 -81.540848 11,650 24 294 1920
2021-07-29 20:36:04 GMT 30.799713 -81.547478 11,325 25 290 2048
2021-07-29 20:35:55 GMT 30.787628 -81.553993 10,950 24 288 2560
2021-07-29 20:35:45 GMT 30.775639 -81.560410 10,475 24 288 2752
2021-07-29 20:35:33 GMT 30.761066 -81.568214 9,925 24 289 2944
2021-07-29 20:35:19 GMT 30.744076 -81.577385 9,300 24 289 2496
2021-07-29 20:35:14 GMT 30.737045 -81.581131 9,075 24 286 2560
2021-07-29 20:35:01 GMT 30.722214 -81.589104 8,475 24 284 2688
2021-07-29 20:34:49 GMT 30.707794 -81.596863 7,975 24 282 2688
2021-07-29 20:34:41 GMT 30.699738 -81.601166 7,650 24 280 2880
2021-07-29 20:34:31 GMT 30.686724 -81.608147 7,150 25 279 2944
2021-07-29 20:34:19 GMT 30.673641 -81.615181 6,625 24 277 2624
2021-07-29 20:34:08 GMT 30.659164 -81.622925 6,025 24 275 2944
2021-07-29 20:34:00 GMT 30.651342 -81.627045 5,725 24 273 2816
2021-07-29 20:33:47 GMT 30.634584 -81.633858 5,050 15 271 2944
2021-07-29 20:33:19 GMT 30.601868 -81.635475 4,225 356 258 1856
2021-07-29 20:33:16 GMT 30.597107 -81.635040 3,775 355 255 1728
2021-07-29 20:32:57 GMT 30.575455 -81.632622 3,300 354 230 1600
2021-07-29 20:32:46 GMT 30.565222 -81.631332 2,925 354 221 2304
2021-07-29 20:32:36 GMT 30.553986 -81.629822 2,525 354 220 2240
2021-07-29 20:32:25 GMT 30.544086 -81.628639 2,300 355 211 960
2021-07-29 20:32:16 GMT 30.534302 -81.627823 2,150 359 198 512
2021-07-29 20:32:05 GMT 30.525009 -81.628792 2,075 17 178 448
We lost coverage of the aircraft here for a total of 102 minutes
2021-07-29 18:50:21 GMT 30.476818 -81.763931 1,050 70 138 -640
2021-07-29 18:50:04 GMT 30.473095 -81.775909 1,275 70 140 -640
2021-07-29 18:49:50 GMT 30.469940 -81.785995 1,425 70 152 -960
2021-07-29 18:49:34 GMT 30.466112 -81.798759 1,675 70 169 -960
2021-07-29 18:49:21 GMT 30.462435 -81.810898 1,875 70 185 -768
2021-07-29 18:49:12 GMT 30.460060 -81.818810 1,925 70 185 64
2021-07-29 18:49:02 GMT 30.456987 -81.828590 1,950 70 185 -384
2021-07-29 18:48:35 GMT 30.448471 -81.854233 1,925 69 184 -64
2021-07-29 18:48:27 GMT 30.446747 -81.860451 1,925 74 185 0
2021-07-29 18:47:43 GMT 30.461563 -81.901840 1,925 151 242 -128
2021-07-29 18:47:27 GMT 30.476074 -81.910934 1,925 151 242 -128
2021-07-29 18:47:03 GMT 30.500839 -81.926041 2,100 152 259 -1152
2021-07-29 18:46:29 GMT 30.538834 -81.949120 2,875 152 267 -1728
2021-07-29 18:45:56 GMT 30.574066 -81.970589 3,750 152 272 -1600
2021-07-29 18:45:53 GMT 30.578489 -81.973282 3,850 152 272 -1600
2021-07-29 18:45:41 GMT 30.590927 -81.980843 4,150 152 272 -1856
2021-07-29 18:45:33 GMT 30.600927 -81.986954 4,425 152 273 -1792
2021-07-29 18:45:17 GMT 30.617174 -81.996841 4,825 152 273 -1856
2021-07-29 18:45:12 GMT 30.624573 -82.001411 5,025 151 276 -1024
2021-07-29 18:44:58 GMT 30.639240 -82.010300 5,325 152 276 -1856
2021-07-29 18:44:45 GMT 30.654007 -82.019295 5,725 152 276 -1920
2021-07-29 18:43:21 GMT 30.750267 -82.078140 7,975 151 285 -2048
2021-07-29 18:42:53 GMT 30.785088 -82.099457 8,875 152 289 -1536
2021-07-29 18:42:41 GMT 30.797890 -82.107315 9,175 152 290 -1792
2021-07-29 18:42:32 GMT 30.809855 -82.114616 9,475 152 292 -1856
2021-07-29 18:42:21 GMT 30.822144 -82.122208 9,775 152 293 -1600
2021-07-29 18:42:09 GMT 30.836197 -82.130829 10,000 152 298 -960
2021-07-29 18:41:20 GMT 30.899933 -82.172134 10,650 147 347 -1344
2021-07-29 18:40:56 GMT 30.934101 -82.197289 11,175 147 349 -1216
2021-07-29 18:40:45 GMT 30.947695 -82.207176 11,375 148 340 -1280
2021-07-29 18:40:35 GMT 30.963593 -82.218666 11,600 148 345 -1216
2021-07-29 18:40:24 GMT 30.976511 -82.228104 11,800 147 353 -1344
2021-07-29 18:40:10 GMT 30.997284 -82.243439 12,100 147 352 -1216
2021-07-29 18:40:02 GMT 31.007515 -82.251015 12,275 147 351 -1152
2021-07-29 18:39:46 GMT 31.030884 -82.268425 12,575 147 351 -1152
2021-07-29 18:39:41 GMT 31.036331 -82.272575 12,675 146 351 -1152
2021-07-29 18:38:35 GMT 31.126053 -82.347649 14,350 144 379 -1600
2021-07-29 18:38:23 GMT 31.142778 -82.363052 14,800 144 386
2021-07-29 18:37:53 GMT 31.188889 -82.400833 15,700 144 393
2021-07-29 18:37:23 GMT 31.232222 -82.438057 16,600 144 388
2021-07-29 18:37:04 GMT 31.259443 -82.461113 17,100 143 382
We lost coverage of the aircraft here for a total of 7 minutes
2021-07-29 18:29:59 GMT 31.888641 -83.032524 26,600 146 439 -1984
2021-07-29 18:29:50 GMT 31.901876 -83.042961 27,275 146 442 -2048
2021-07-29 18:29:38 GMT 31.923981 -83.060379 27,275 146 446 -1984
2021-07-29 18:28:09 GMT 32.078217 -83.182144 30,175 146 473 -2112
2021-07-29 18:28:01 GMT 32.092926 -83.193748 30,500 145 475 -2048
2021-07-29 18:27:51 GMT 32.111176 -83.208206 30,875 146 476 -2048
2021-07-29 18:27:41 GMT 32.129517 -83.222778 31,200 146 476 -2112
2021-07-29 18:27:26 GMT 32.159180 -83.246262 31,775 145 478 -2176
2021-07-29 18:27:10 GMT 32.187706 -83.268913 32,325 145 482 -2176
2021-07-29 18:26:59 GMT 32.207027 -83.284271 32,675 146 484 -1920
2021-07-29 18:26:48 GMT 32.227089 -83.300194 32,950 145 482 -960
2021-07-29 18:26:38 GMT 32.245926 -83.315201 33,000 145 481 64
2021-07-29 18:26:27 GMT 32.265930 -83.331078 33,000 145 481 -64
2021-07-29 18:26:17 GMT 32.285156 -83.346352 33,000 145 481 0
2021-07-29 18:26:07 GMT 32.304382 -83.361618 33,000 145 481 0
2021-07-29 18:25:56 GMT 32.323608 -83.376945 33,000 145 481 64
2021-07-29 18:25:46 GMT 32.342445 -83.392006 33,000 145 480 0
2021-07-29 18:25:36 GMT 32.360928 -83.406693 33,000 145 480 0
2021-07-29 18:25:25 GMT 32.380852 -83.422607 33,000 145 481 0
2021-07-29 18:25:18 GMT 32.393375 -83.432587 33,000 145 482 0
2021-07-29 18:25:15 GMT 32.399380 -83.437408 33,000 145 483 -64
2021-07-29 18:25:11 GMT 32.406689 -83.443237 33,000 145 483 0
2021-07-29 18:25:03 GMT 32.421295 -83.454842 33,000 145 483 0
2021-07-29 18:24:54 GMT 32.437500 -83.467804 33,000 145 483 0
2021-07-29 18:24:44 GMT 32.456177 -83.482742 33,000 145 484 64
2021-07-29 18:24:34 GMT 32.476227 -83.498787 33,000 145 483 0
2021-07-29 18:24:23 GMT 32.496094 -83.514664 33,000 145 483 0
2021-07-29 18:24:10 GMT 32.519623 -83.533478 33,000 145 484 0
2021-07-29 18:24:01 GMT 32.534866 -83.545700 33,000 145 485 -64
2021-07-29 18:23:52 GMT 32.553497 -83.560638 33,000 145 486 0
2021-07-29 18:23:48 GMT 32.560959 -83.566628 33,000 145 487 0
2021-07-29 18:23:42 GMT 32.571762 -83.575294 33,000 145 487 -64
2021-07-29 18:23:29 GMT 32.610168 -83.606178 33,000 145 485 64
2021-07-29 18:23:00 GMT 32.659607 -83.645920 33,000 145 485 0
2021-07-29 18:22:55 GMT 32.659607 -83.645920 33,000 145 485 0
2021-07-29 18:22:44 GMT 32.681953 -83.663918 33,000 145 486 64
2021-07-29 18:22:01 GMT 32.760487 -83.727089 33,000 145 487 64
2021-07-29 18:21:50 GMT 32.781006 -83.743614 33,000 145 485 0
2021-07-29 18:21:39 GMT 32.800755 -83.759483 33,000 145 485 0
2021-07-29 18:21:30 GMT 32.818535 -83.773834 33,000 145 484 -64
2021-07-29 18:21:18 GMT 32.838600 -83.790031 33,000 145 484 0
2021-07-29 18:21:09 GMT 32.857128 -83.805000 33,000 145 484 -64
2021-07-29 18:21:02 GMT 32.870132 -83.815521 33,000 145 484 0
2021-07-29 18:20:57 GMT 32.877548 -83.821510 33,000 145 484 0
2021-07-29 18:20:48 GMT 32.896133 -83.836563 33,000 145 484 -64
2021-07-29 18:20:36 GMT 32.917320 -83.853706 33,000 145 485 64
2021-07-29 18:20:26 GMT 32.937386 -83.869911 33,000 145 485 64
2021-07-29 18:20:21 GMT 32.946278 -83.877136 33,000 145 484 -64
2021-07-29 18:20:13 GMT 32.959637 -83.887955 33,000 145 484 0
2021-07-29 18:20:10 GMT 32.965549 -83.892723 33,000 145 484 -64
2021-07-29 18:20:03 GMT 32.979465 -83.904045 33,000 145 484 64
2021-07-29 18:20:00 GMT 32.984680 -83.908249 33,000 145 484 -64
2021-07-29 18:19:55 GMT 32.994049 -83.915878 33,000 145 484 64
2021-07-29 18:19:49 GMT 33.004791 -83.924561 33,000 145 483 0
2021-07-29 18:19:43 GMT 33.017406 -83.934814 33,000 145 484 64
2021-07-29 18:19:40 GMT 33.022621 -83.939018 33,000 145 484 0
2021-07-29 18:19:34 GMT 33.032955 -83.947433 33,000 145 484 -64
2021-07-29 18:19:29 GMT 33.042206 -83.954941 33,000 145 484 64
2021-07-29 18:19:24 GMT 33.051086 -83.962135 33,000 145 484 -64
2021-07-29 18:19:22 GMT 33.056652 -83.966660 33,000 145 484 0
2021-07-29 18:19:19 GMT 33.061073 -83.970299 33,000 145 484 64
2021-07-29 18:19:14 GMT 33.070175 -83.977676 33,000 145 484 0
2021-07-29 18:19:07 GMT 33.083324 -83.988350 33,000 145 484 -64
2021-07-29 18:19:03 GMT 33.091095 -83.994705 33,000 145 485 0
2021-07-29 18:18:57 GMT 33.101852 -84.003426 33,000 145 486 64
2021-07-29 18:18:53 GMT 33.108902 -84.009209 33,000 145 487 -64
2021-07-29 18:18:50 GMT 33.114513 -84.013741 33,000 145 487 -64
2021-07-29 18:18:47 GMT 33.120117 -84.018326 33,000 145 487 -64
2021-07-29 18:18:43 GMT 33.128761 -84.025345 33,000 145 488 0
2021-07-29 18:18:37 GMT 33.138840 -84.033546 33,000 145 488 -64
2021-07-29 18:18:32 GMT 33.148033 -84.040985 33,000 145 489 0
2021-07-29 18:18:30 GMT 33.153198 -84.045242 33,000 145 488 64
2021-07-29 18:18:26 GMT 33.158844 -84.049805 33,000 145 489 -64
2021-07-29 18:18:20 GMT 33.170612 -84.059425 33,000 145 489 64
2021-07-29 18:18:16 GMT 33.176971 -84.064636 33,000 145 488 64
2021-07-29 18:18:11 GMT 33.187363 -84.073097 33,000 145 488 0
2021-07-29 18:18:09 GMT 33.193096 -84.077751 33,000 145 488 64
2021-07-29 18:17:58 GMT 33.211716 -84.092941 33,000 145 488 -64
2021-07-29 18:17:54 GMT 33.219166 -84.099052 33,000 145 488 0
2021-07-29 18:17:50 GMT 33.225586 -84.104294 33,000 145 488 0
2021-07-29 18:17:48 GMT 33.231583 -84.109184 33,000 145 488 0
2021-07-29 18:17:45 GMT 33.235691 -84.112503 33,000 145 488 64
2021-07-29 18:17:39 GMT 33.247238 -84.121986 33,000 145 488 0
2021-07-29 18:17:35 GMT 33.254700 -84.128082 33,000 145 488 0
2021-07-29 18:17:30 GMT 33.263718 -84.135445 33,000 145 489 64
2021-07-29 18:17:25 GMT 33.273422 -84.143410 33,000 145 488 64
2021-07-29 18:17:19 GMT 33.283779 -84.151855 33,000 145 488 0
2021-07-29 18:17:14 GMT 33.292625 -84.159088 33,000 145 487 -64
2021-07-29 18:17:09 GMT 33.302902 -84.167465 33,000 145 487 0
2021-07-29 18:17:04 GMT 33.311874 -84.174828 33,000 145 487 0
2021-07-29 18:16:59 GMT 33.321625 -84.182793 33,000 145 486 64
2021-07-29 18:16:53 GMT 33.331776 -84.191093 33,000 145 486 0
2021-07-29 18:16:49 GMT 33.340759 -84.198486 33,000 145 486 -64
2021-07-29 18:16:43 GMT 33.350536 -84.206505 33,000 145 486 0
2021-07-29 18:16:37 GMT 33.361755 -84.215698 33,000 145 486 0
2021-07-29 18:16:32 GMT 33.370739 -84.223099 33,000 145 486 0
2021-07-29 18:16:28 GMT 33.379166 -84.229980 33,000 145 486 0
2021-07-29 18:16:22 GMT 33.389145 -84.238167 33,000 145 486 64
2021-07-29 18:16:18 GMT 33.399090 -84.246300 33,000 145 486 64
2021-07-29 18:16:12 GMT 33.407822 -84.253494 33,000 145 485 0
2021-07-29 18:16:07 GMT 33.417988 -84.261833 33,000 145 485 -64
2021-07-29 18:16:01 GMT 33.429382 -84.271179 33,000 145 485 0
2021-07-29 18:15:57 GMT 33.436703 -84.277245 33,000 145 485 64
2021-07-29 18:15:51 GMT 33.447830 -84.286385 33,000 145 485 0
2021-07-29 18:15:47 GMT 33.456955 -84.293839 33,000 145 485 -64
2021-07-29 18:15:41 GMT 33.465843 -84.301178 33,000 145 485 0
2021-07-29 18:15:35 GMT 33.477585 -84.310837 33,000 145 485 0
2021-07-29 18:15:31 GMT 33.484745 -84.316704 33,000 145 485 0
2021-07-29 18:15:26 GMT 33.493824 -84.324158 33,000 145 485 0
2021-07-29 18:15:20 GMT 33.503952 -84.332535 33,000 145 486 0
2021-07-29 18:15:16 GMT 33.513611 -84.340446 33,000 145 485 64
2021-07-29 18:15:09 GMT 33.525337 -84.350166 33,000 145 485 0
2021-07-29 18:15:06 GMT 33.531693 -84.355392 33,000 145 485 0
2021-07-29 18:14:59 GMT 33.542656 -84.364357 33,000 145 485 0
2021-07-29 18:14:55 GMT 33.551147 -84.371361 33,000 145 485 64
2021-07-29 18:14:49 GMT 33.562546 -84.380775 33,000 145 485 0
2021-07-29 18:14:45 GMT 33.570740 -84.387611 33,000 145 485 -64
2021-07-29 18:14:39 GMT 33.580830 -84.395943 33,000 145 485 -64
2021-07-29 18:14:34 GMT 33.590511 -84.403725 33,000 146 486 0
2021-07-29 18:14:26 GMT 33.606434 -84.415627 33,000 148 486 0
2021-07-29 18:14:23 GMT 33.611134 -84.418884 33,000 150 485 64
2021-07-29 18:14:18 GMT 33.621563 -84.425812 33,000 152 486 0
2021-07-29 18:14:14 GMT 33.630177 -84.431190 33,000 153 486 -64
2021-07-29 18:14:08 GMT 33.641811 -84.437943 33,000 155 486 -64
2021-07-29 18:14:03 GMT 33.651352 -84.443047 33,000 157 486 0
2021-07-29 18:13:55 GMT 33.667881 -84.450813 33,000 159 486 64
2021-07-29 18:13:52 GMT 33.673416 -84.453140 33,000 161 486 64
2021-07-29 18:13:46 GMT 33.689297 -84.459518 33,000 161 486 0
2021-07-29 18:13:43 GMT 33.694839 -84.461716 33,000 161 486 0
2021-07-29 18:13:37 GMT 33.707172 -84.466667 33,000 161 485 0
2021-07-29 18:13:33 GMT 33.717461 -84.470787 33,000 161 485 64
2021-07-29 18:13:25 GMT 33.731194 -84.476280 33,000 161 485 -64
2021-07-29 18:13:21 GMT 33.740501 -84.480057 33,000 161 484 64
2021-07-29 18:13:16 GMT 33.751419 -84.484413 33,000 161 484 0
2021-07-29 18:13:13 GMT 33.758240 -84.487160 33,000 161 484 -64
2021-07-29 18:13:11 GMT 33.761032 -84.488297 33,000 161 484 0
2021-07-29 18:13:04 GMT 33.776825 -84.494614 33,000 161 483 0
2021-07-29 18:13:01 GMT 33.784264 -84.497566 33,000 161 483 64
2021-07-29 18:12:55 GMT 33.797901 -84.503059 33,000 161 482 -64
2021-07-29 18:12:52 GMT 33.802460 -84.504875 33,000 161 482 -64
2021-07-29 18:12:50 GMT 33.806469 -84.506493 33,000 161 482 -64
2021-07-29 18:12:45 GMT 33.817108 -84.510757 33,000 161 483 0
2021-07-29 18:12:42 GMT 33.823746 -84.513451 33,000 161 483 -64
2021-07-29 18:12:38 GMT 33.832214 -84.516815 33,000 161 483 64
2021-07-29 18:12:35 GMT 33.838211 -84.519226 33,000 161 483 -64
2021-07-29 18:12:32 GMT 33.844826 -84.521889 33,000 161 483 -64
2021-07-29 18:12:30 GMT 33.849949 -84.523949 33,000 161 483 -64
2021-07-29 18:12:28 GMT 33.854229 -84.525658 33,000 161 484 -64
2021-07-29 18:12:24 GMT 33.863400 -84.529327 33,000 161 484 64
2021-07-29 18:12:21 GMT 33.876530 -84.534645 33,000 161 484 -64
2021-07-29 18:12:17 GMT 33.876530 -84.534645 33,000 161 484 -64
2021-07-29 18:12:13 GMT 33.884071 -84.537682 33,000 161 484 -64
2021-07-29 18:12:09 GMT 33.894405 -84.541855 33,000 161 484 0
2021-07-29 18:12:01 GMT 33.909161 -84.547752 33,000 161 484 0
2021-07-29 18:11:59 GMT 33.921616 -84.552742 33,000 161 484 64
2021-07-29 18:11:56 GMT 33.921616 -84.552742 33,000 161 484 64
2021-07-29 18:11:53 GMT 33.927429 -84.555099 33,000 161 484 64
2021-07-29 18:11:50 GMT 33.935165 -84.558235 33,000 161 484 64
2021-07-29 18:11:47 GMT 33.942589 -84.561195 33,000 161 484 64
2021-07-29 18:11:41 GMT 33.960205 -84.568329 33,000 161 483 0
2021-07-29 18:11:38 GMT 33.960205 -84.568329 33,000 161 483 -64
2021-07-29 18:11:36 GMT 33.964417 -84.570007 33,000 161 483 0
2021-07-29 18:11:32 GMT 33.972614 -84.573326 33,000 161 483 -64
2021-07-29 18:11:29 GMT 33.979889 -84.576225 33,000 161 483 0
2021-07-29 18:11:26 GMT 33.986710 -84.578979 33,000 161 483 0
2021-07-29 18:11:22 GMT 33.994026 -84.581909 33,000 161 483 0
2021-07-29 18:11:19 GMT 34.002090 -84.585197 33,000 161 483 0
2021-07-29 18:11:15 GMT 34.007622 -84.587402 33,000 161 483 0
2021-07-29 18:11:12 GMT 34.023029 -84.593636 33,000 161 483 64
2021-07-29 18:11:08 GMT 34.023029 -84.593636 33,000 161 483 64
2021-07-29 18:11:05 GMT 34.030334 -84.596573 33,000 161 483 64
2021-07-29 18:11:01 GMT 34.037369 -84.599419 33,000 161 483 0
2021-07-29 18:10:58 GMT 34.044800 -84.602409 33,000 161 483 0
2021-07-29 18:10:54 GMT 34.053223 -84.605827 33,000 161 483 0
2021-07-29 18:10:50 GMT 34.061737 -84.609245 33,000 161 482 0
2021-07-29 18:10:47 GMT 34.068512 -84.611992 33,000 161 482 0
2021-07-29 18:10:44 GMT 34.074886 -84.614578 33,000 161 482 0
2021-07-29 18:10:41 GMT 34.083267 -84.617958 33,000 161 482 0
2021-07-29 18:10:38 GMT 34.086411 -84.619225 33,000 161 482 -64
2021-07-29 18:10:34 GMT 34.097046 -84.623566 33,000 161 482 -64
2021-07-29 18:10:29 GMT 34.104542 -84.626595 33,000 161 482 0
2021-07-29 18:10:25 GMT 34.114922 -84.630775 33,000 161 482 0
2021-07-29 18:10:23 GMT 34.119160 -84.632492 33,000 161 482 0
2021-07-29 18:10:20 GMT 34.124542 -84.634689 33,000 161 481 64
2021-07-29 18:10:17 GMT 34.133545 -84.638329 33,000 161 480 0
2021-07-29 18:10:13 GMT 34.140793 -84.641251 33,000 161 480 64
2021-07-29 18:10:10 GMT 34.148392 -84.644333 33,000 161 480 64
2021-07-29 18:10:06 GMT 34.154724 -84.646912 33,000 161 481 64
2021-07-29 18:10:02 GMT 34.163635 -84.650497 33,000 161 481 -64
2021-07-29 18:09:59 GMT 34.169994 -84.653091 33,000 161 481 0
2021-07-29 18:09:56 GMT 34.177582 -84.656120 33,000 161 481 0
2021-07-29 18:09:52 GMT 34.185608 -84.659409 33,000 161 481 -64
2021-07-29 18:09:49 GMT 34.190247 -84.661278 33,000 161 481 64
2021-07-29 18:09:46 GMT 34.202114 -84.666077 33,000 161 481 64
2021-07-29 18:09:40 GMT 34.212215 -84.670197 33,000 161 482 -64
2021-07-29 18:09:36 GMT 34.224926 -84.675346 33,000 161 482 0
2021-07-29 18:09:33 GMT 34.224926 -84.675346 33,000 161 482 0
2021-07-29 18:09:31 GMT 34.230423 -84.677574 33,000 161 482 0
2021-07-29 18:09:28 GMT 34.234982 -84.679413 33,000 161 482 -64
2021-07-29 18:09:24 GMT 34.242710 -84.682564 33,000 161 482 0
2021-07-29 18:09:19 GMT 34.252350 -84.686432 33,000 161 482 0
2021-07-29 18:09:15 GMT 34.263748 -84.691086 33,000 161 482 0
2021-07-29 18:09:10 GMT 34.273991 -84.695206 33,000 161 482 0
2021-07-29 18:09:07 GMT 34.280045 -84.697723 33,000 161 482 0
2021-07-29 18:09:03 GMT 34.287491 -84.700699 33,000 161 482 0
2021-07-29 18:08:57 GMT 34.300827 -84.706161 33,000 161 482 0
2021-07-29 18:08:53 GMT 34.309204 -84.709518 33,000 161 482 0
2021-07-29 18:08:50 GMT 34.316586 -84.712540 33,000 161 482 -64
2021-07-29 18:08:47 GMT 34.321663 -84.714600 33,000 161 483 -64
2021-07-29 18:08:42 GMT 34.330788 -84.718323 33,000 161 483 0
2021-07-29 18:08:36 GMT 34.344521 -84.723930 33,000 161 483 0
2021-07-29 18:08:31 GMT 34.355164 -84.728241 33,000 161 484 64
2021-07-29 18:08:26 GMT 34.365791 -84.732574 33,000 161 484 64
2021-07-29 18:08:21 GMT 34.377617 -84.737373 33,000 161 485 0
2021-07-29 18:08:15 GMT 34.388214 -84.741699 33,000 161 485 64
2021-07-29 18:08:10 GMT 34.400707 -84.746758 33,000 161 485 0
2021-07-29 18:08:05 GMT 34.411194 -84.751060 33,000 161 484 64
2021-07-29 18:07:59 GMT 34.421982 -84.755463 33,000 161 483 64
2021-07-29 18:07:55 GMT 34.432175 -84.759636 33,000 161 484 64
2021-07-29 18:07:50 GMT 34.444931 -84.764847 33,000 161 484 64
2021-07-29 18:07:44 GMT 34.466675 -84.773643 33,000 161 483 -64
2021-07-29 18:07:38 GMT 34.466675 -84.773643 33,000 161 483 0
2021-07-29 18:07:35 GMT 34.486645 -84.781837 33,000 161 483 0
2021-07-29 18:07:30 GMT 34.486645 -84.781837 33,000 161 483 64
2021-07-29 18:07:27 GMT 34.490433 -84.783340 33,000 161 483 0
2021-07-29 18:07:24 GMT 34.499352 -84.786987 33,000 161 483 0
2021-07-29 18:07:18 GMT 34.511490 -84.791977 33,000 161 484 -64
2021-07-29 18:07:13 GMT 34.521011 -84.795898 33,000 161 484 0
2021-07-29 18:07:07 GMT 34.533783 -84.801109 33,000 161 484 64
2021-07-29 18:07:02 GMT 34.543530 -84.805069 33,000 161 484 64
2021-07-29 18:06:58 GMT 34.553970 -84.809349 33,000 161 484 -64
2021-07-29 18:06:52 GMT 34.566479 -84.814453 33,000 161 484 0
2021-07-29 18:06:49 GMT 34.571869 -84.816643 33,000 161 484 0
2021-07-29 18:06:46 GMT 34.579048 -84.819603 33,000 161 484 0
2021-07-29 18:06:42 GMT 34.587753 -84.823151 33,000 161 484 64
2021-07-29 18:06:37 GMT 34.599438 -84.827957 33,000 161 483 0
2021-07-29 18:06:30 GMT 34.614349 -84.834015 33,000 161 483 0
2021-07-29 18:06:28 GMT 34.616570 -84.834938 33,000 161 482 0
2021-07-29 18:06:25 GMT 34.622040 -84.837212 33,000 161 482 0
2021-07-29 18:06:22 GMT 34.630955 -84.840836 33,000 161 482 -64
2021-07-29 18:06:19 GMT 34.643661 -84.846039 33,000 161 481 64
2021-07-29 18:06:16 GMT 34.643661 -84.846039 33,000 161 481 64
2021-07-29 18:06:11 GMT 34.654697 -84.850616 33,000 161 481 0
2021-07-29 18:06:08 GMT 34.659210 -84.852455 33,000 161 480 64
2021-07-29 18:06:04 GMT 34.668198 -84.856110 33,000 161 480 0
2021-07-29 18:06:00 GMT 34.682533 -84.862000 33,000 161 480 0
2021-07-29 18:05:57 GMT 34.682533 -84.862000 33,000 161 480 0
2021-07-29 18:05:53 GMT 34.691799 -84.865837 33,000 161 480 -64
2021-07-29 18:05:50 GMT 34.699387 -84.868927 33,000 161 480 0
2021-07-29 18:05:47 GMT 34.703625 -84.870644 33,000 161 480 0
2021-07-29 18:05:40 GMT 34.717529 -84.876389 33,000 161 479 0
2021-07-29 18:05:36 GMT 34.725082 -84.879471 33,000 161 479 0
2021-07-29 18:05:33 GMT 34.734764 -84.883461 33,000 161 479 64
2021-07-29 18:05:29 GMT 34.743576 -84.887039 33,000 161 479 0
2021-07-29 18:05:26 GMT 34.746544 -84.888268 33,000 161 479 0
2021-07-29 18:05:23 GMT 34.754086 -84.891357 33,000 161 478 -64
2021-07-29 18:05:20 GMT 34.761627 -84.894447 33,000 161 478 -64
2021-07-29 18:05:16 GMT 34.767929 -84.897072 33,000 161 478 0
2021-07-29 18:05:13 GMT 34.775036 -84.900002 33,000 161 478 -64
2021-07-29 18:05:07 GMT 34.787647 -84.905151 33,000 161 478 64
2021-07-29 18:05:04 GMT 34.792725 -84.907265 33,000 161 478 0
2021-07-29 18:05:01 GMT 34.798588 -84.909668 33,000 161 478 0
2021-07-29 18:04:56 GMT 34.811554 -84.915009 33,000 161 477 64
2021-07-29 18:04:52 GMT 34.821075 -84.918938 33,000 161 477 -64
2021-07-29 18:04:45 GMT 34.833344 -84.923981 33,000 161 476 0
2021-07-29 18:04:40 GMT 34.842499 -84.927734 33,000 161 476 0
2021-07-29 18:04:34 GMT 34.855431 -84.933067 33,000 161 475 64
2021-07-29 18:04:31 GMT 34.864929 -84.937042 33,000 161 475 -64
2021-07-29 18:04:24 GMT 34.877075 -84.942055 33,000 161 475 0
2021-07-29 18:04:19 GMT 34.887131 -84.946175 33,000 161 474 0
2021-07-29 18:04:14 GMT 34.898438 -84.950829 33,000 161 474 0
2021-07-29 18:04:09 GMT 34.908684 -84.955048 33,000 161 474 -64
2021-07-29 18:04:05 GMT 34.920090 -84.959740 33,000 161 475 0
2021-07-29 18:04:03 GMT 34.922184 -84.960594 33,000 161 475 0
2021-07-29 18:03:58 GMT 34.929977 -84.963837 33,000 161 475 64
2021-07-29 18:03:54 GMT 34.943436 -84.969383 33,000 161 475 -64
2021-07-29 18:03:48 GMT 34.951767 -84.972855 33,000 161 475 -64
2021-07-29 18:03:42 GMT 34.974697 -84.982338 33,000 161 475 -64
2021-07-29 18:03:37 GMT 34.974697 -84.982338 33,000 161 475 -64
2021-07-29 18:03:32 GMT 34.988010 -84.987831 33,000 161 474 -64
2021-07-29 18:03:28 GMT 34.998459 -84.992142 33,000 161 475 -64
2021-07-29 18:03:21 GMT 35.007191 -84.995728 33,000 161 474 64
2021-07-29 18:03:16 GMT 35.020504 -85.001221 33,000 161 474 -64
2021-07-29 18:03:11 GMT 35.030418 -85.005341 33,000 161 473 0
2021-07-29 18:03:06 GMT 35.039154 -85.008957 33,000 161 472 0
2021-07-29 18:03:00 GMT 35.050735 -85.013779 33,000 161 471 0
2021-07-29 18:02:56 GMT 35.061447 -85.018204 33,000 161 471 0
2021-07-29 18:02:51 GMT 35.076691 -85.024506 33,000 161 470 64
2021-07-29 18:02:49 GMT 35.076691 -85.024506 33,000 161 468 -64
2021-07-29 18:02:45 GMT 35.082870 -85.027061 33,000 161 470 0
2021-07-29 18:02:41 GMT 35.090881 -85.030426 33,000 161 468 -64
2021-07-29 18:02:38 GMT 35.096878 -85.032890 33,000 161 468 0
2021-07-29 18:02:35 GMT 35.104294 -85.035973 33,000 161 468 64
2021-07-29 18:02:30 GMT 35.114586 -85.040245 33,000 161 468 -64
2021-07-29 18:02:24 GMT 35.126083 -85.044991 33,000 161 468 0
2021-07-29 18:02:20 GMT 35.136093 -85.049110 33,000 161 468 64
2021-07-29 18:02:17 GMT 35.142242 -85.051727 33,000 161 468 64
2021-07-29 18:02:14 GMT 35.148430 -85.054260 33,000 161 469 0
2021-07-29 18:02:10 GMT 35.157120 -85.057892 33,000 161 469 0
2021-07-29 18:02:07 GMT 35.161240 -85.059631 33,000 161 469 -64
2021-07-29 18:02:02 GMT 35.170166 -85.063324 33,000 161 468 64
2021-07-29 18:01:59 GMT 35.182972 -85.068626 33,000 161 468 64
2021-07-29 18:01:56 GMT 35.182972 -85.068626 33,000 161 468 64
2021-07-29 18:01:53 GMT 35.191544 -85.072182 33,000 161 468 64
2021-07-29 18:01:49 GMT 35.199875 -85.075661 33,000 161 468 -64
2021-07-29 18:01:46 GMT 35.203903 -85.077339 33,000 161 468 -64
2021-07-29 18:01:42 GMT 35.212624 -85.080986 33,000 161 469 -64
2021-07-29 18:01:38 GMT 35.222542 -85.085052 33,000 161 469 -64
2021-07-29 18:01:36 GMT 35.224819 -85.086021 33,000 161 470 -64
2021-07-29 18:01:32 GMT 35.234528 -85.090027 33,000 161 471 0
2021-07-29 18:01:26 GMT 35.246109 -85.094833 33,000 161 471 128
2021-07-29 18:01:21 GMT 35.255592 -85.098808 33,000 161 471 64
2021-07-29 18:01:16 GMT 35.266159 -85.103195 33,000 161 471 64
2021-07-29 18:01:14 GMT 35.268402 -85.104156 33,000 161 471 -64
2021-07-29 18:01:11 GMT 35.277466 -85.107941 33,000 161 472 0
2021-07-29 18:01:07 GMT 35.286575 -85.111710 33,000 161 473 -64
2021-07-29 18:01:03 GMT 35.292789 -85.114357 33,000 161 473 -64
2021-07-29 18:01:00 GMT 35.299446 -85.117104 33,000 161 474 0
2021-07-29 18:00:55 GMT 35.311523 -85.122131 33,000 161 475 -64
2021-07-29 18:00:50 GMT 35.320999 -85.126106 33,000 161 476 -64
2021-07-29 18:00:46 GMT 35.330750 -85.130135 33,000 161 477 -64
2021-07-29 18:00:43 GMT 35.333660 -85.131363 33,000 161 477 -64
2021-07-29 18:00:39 GMT 35.342876 -85.135216 33,000 161 477 0
2021-07-29 18:00:36 GMT 35.349152 -85.137810 33,000 161 477 -64
2021-07-29 18:00:33 GMT 35.356937 -85.141121 33,000 161 477 64
2021-07-29 18:00:29 GMT 35.365501 -85.144684 33,000 161 477 128
2021-07-29 18:00:25 GMT 35.373413 -85.147987 33,000 161 477 128
2021-07-29 18:00:20 GMT 35.382614 -85.151825 33,000 161 477 -64
2021-07-29 18:00:16 GMT 35.389984 -85.154915 33,000 161 476 -64
2021-07-29 18:00:14 GMT 35.396027 -85.157433 33,000 161 477 0
2021-07-29 18:00:12 GMT 35.399578 -85.158890 33,000 161 477 64
2021-07-29 18:00:08 GMT 35.409393 -85.162987 33,000 161 477 0
2021-07-29 18:00:04 GMT 35.418198 -85.166718 33,000 161 478 -64
2021-07-29 18:00:02 GMT 35.422295 -85.168411 33,000 160 479 -128
2021-07-29 17:59:59 GMT 35.426533 -85.170166 33,000 160 479 -64
2021-07-29 17:59:56 GMT 35.431183 -85.172134 33,000 160 479 -64
2021-07-29 17:59:53 GMT 35.441116 -85.176315 33,000 161 479 64
2021-07-29 17:59:49 GMT 35.449677 -85.179863 33,000 161 479 64
2021-07-29 17:59:46 GMT 35.455814 -85.182434 33,000 161 480 64
2021-07-29 17:59:43 GMT 35.461487 -85.184837 33,000 161 480 0
2021-07-29 17:59:41 GMT 35.465698 -85.186615 33,000 161 480 -64
2021-07-29 17:59:35 GMT 35.477039 -85.191376 33,000 160 479 -64
2021-07-29 17:59:32 GMT 35.484879 -85.194626 33,000 161 478 -64
2021-07-29 17:59:30 GMT 35.487579 -85.195770 33,000 161 478 64
2021-07-29 17:59:27 GMT 35.493847 -85.198387 33,000 161 477 0
2021-07-29 17:59:24 GMT 35.500122 -85.201035 33,000 161 477 -64
2021-07-29 17:59:20 GMT 35.515678 -85.207565 33,000 161 476 0
2021-07-29 17:59:17 GMT 35.515678 -85.207565 33,000 161 475 64
2021-07-29 17:59:14 GMT 35.520660 -85.209671 33,000 161 475 64
2021-07-29 17:59:10 GMT 35.529831 -85.213470 33,000 161 475 64
2021-07-29 17:59:08 GMT 35.531937 -85.214371 33,000 161 475 128
2021-07-29 17:59:03 GMT 35.541962 -85.218544 33,000 161 474 -64
2021-07-29 17:58:59 GMT 35.553200 -85.223282 33,000 161 473 -64
2021-07-29 17:58:56 GMT 35.559402 -85.225868 33,000 161 473 64
2021-07-29 17:58:53 GMT 35.563477 -85.227585 33,000 161 473 64
2021-07-29 17:58:49 GMT 35.574326 -85.232162 33,000 161 473 -64
2021-07-29 17:58:46 GMT 35.577267 -85.233398 33,000 161 473 0
2021-07-29 17:58:43 GMT 35.597797 -85.241982 33,000 161 473 0
2021-07-29 17:58:38 GMT 35.597797 -85.241982 33,000 161 473 64
2021-07-29 17:58:34 GMT 35.604904 -85.244980 33,000 161 473 0
2021-07-29 17:58:30 GMT 35.611679 -85.247841 33,000 161 473 -128
2021-07-29 17:58:27 GMT 35.617069 -85.250107 33,000 161 473 -64
2021-07-29 17:58:25 GMT 35.621613 -85.252022 33,000 161 473 64
2021-07-29 17:58:22 GMT 35.638577 -85.259163 33,000 161 473 -64
2021-07-29 17:58:18 GMT 35.638577 -85.259163 33,000 161 473 0
2021-07-29 17:58:15 GMT 35.642303 -85.260712 33,000 161 473 0
2021-07-29 17:58:13 GMT 35.646072 -85.262321 33,000 161 473 0
2021-07-29 17:58:10 GMT 35.653839 -85.265579 33,000 160 472 -64
2021-07-29 17:58:07 GMT 35.660225 -85.268280 33,000 160 472 0
2021-07-29 17:58:05 GMT 35.664368 -85.270035 33,000 160 472 -64
2021-07-29 17:58:03 GMT 35.669350 -85.272079 33,000 160 472 128
2021-07-29 17:58:00 GMT 35.674282 -85.274185 33,000 160 472 128
2021-07-29 17:57:57 GMT 35.682175 -85.277481 33,000 160 472 -64
2021-07-29 17:57:54 GMT 35.686714 -85.279442 33,000 160 472 -64
2021-07-29 17:57:50 GMT 35.696674 -85.283592 33,000 160 472 0
2021-07-29 17:57:46 GMT 35.704727 -85.286980 33,000 161 473 -64
2021-07-29 17:57:43 GMT 35.711151 -85.289726 33,000 161 473 0
2021-07-29 17:57:40 GMT 35.714447 -85.291100 33,000 160 472 64
2021-07-29 17:57:36 GMT 35.725677 -85.295807 33,000 161 473 64
2021-07-29 17:57:32 GMT 35.733124 -85.298965 33,000 161 473 -64
2021-07-29 17:57:29 GMT 35.738106 -85.301064 33,000 160 472 64
2021-07-29 17:57:25 GMT 35.746811 -85.304718 33,000 160 472 64
2021-07-29 17:57:22 GMT 35.754272 -85.307861 33,000 160 472 64
2021-07-29 17:57:20 GMT 35.759216 -85.309982 33,000 160 472 64
2021-07-29 17:57:16 GMT 35.767502 -85.313477 33,000 160 472 64
2021-07-29 17:57:11 GMT 35.776188 -85.317139 33,000 160 472 64
2021-07-29 17:57:08 GMT 35.782051 -85.319588 33,000 160 472 0
2021-07-29 17:57:03 GMT 35.793228 -85.324348 33,000 160 472 -128
2021-07-29 17:57:01 GMT 35.797787 -85.326256 33,000 160 472 64
2021-07-29 17:56:57 GMT 35.804672 -85.329147 33,000 160 472 -64
2021-07-29 17:56:52 GMT 35.815704 -85.333786 33,000 161 473 64
2021-07-29 17:56:48 GMT 35.822598 -85.336716 33,000 161 473 0
2021-07-29 17:56:41 GMT 35.836845 -85.342735 33,000 160 474 0
2021-07-29 17:56:38 GMT 35.844105 -85.345825 33,000 160 474 64
2021-07-29 17:56:33 GMT 35.854256 -85.350151 33,000 160 475 -64
2021-07-29 17:56:30 GMT 35.861610 -85.353249 33,000 160 475 64
2021-07-29 17:56:27 GMT 35.874619 -85.358788 33,000 160 475 128
2021-07-29 17:56:24 GMT 35.874619 -85.358788 33,000 160 475 -64
2021-07-29 17:56:20 GMT 35.881302 -85.361595 33,000 160 475 -64
2021-07-29 17:56:17 GMT 35.887539 -85.364235 33,000 160 475 -64
2021-07-29 17:56:14 GMT 35.902084 -85.370407 33,000 160 475 -64
2021-07-29 17:56:11 GMT 35.902084 -85.370407 33,000 160 475 -64
2021-07-29 17:56:09 GMT 35.904160 -85.371307 33,000 160 475 0
2021-07-29 17:56:07 GMT 35.908161 -85.373001 33,000 160 475 64
2021-07-29 17:56:02 GMT 35.918961 -85.377563 33,000 160 475 64
2021-07-29 17:55:58 GMT 35.926502 -85.380775 33,000 160 475 64
2021-07-29 17:55:56 GMT 35.931530 -85.382881 33,000 160 475 64
2021-07-29 17:55:53 GMT 35.939484 -85.386253 33,000 160 475 0
2021-07-29 17:55:47 GMT 35.950470 -85.390945 33,000 160 475 -64
2021-07-29 17:55:37 GMT 35.972359 -85.400238 33,000 160 475 64
2021-07-29 17:55:34 GMT 35.978409 -85.402809 33,000 160 476 64
2021-07-29 17:55:27 GMT 35.991535 -85.408417 33,000 160 476 -64
2021-07-29 17:55:25 GMT 35.994236 -85.409523 33,000 160 478 0
2021-07-29 17:55:15 GMT 36.015930 -85.418762 33,000 160 477 -64
2021-07-29 17:55:08 GMT 36.031403 -85.425339 33,000 160 477 64
2021-07-29 17:55:05 GMT 36.037670 -85.427994 33,000 160 477 64
2021-07-29 17:54:56 GMT 36.057312 -85.436325 33,000 161 477 64
2021-07-29 17:54:46 GMT 36.078232 -85.445190 33,000 160 478 64
2021-07-29 17:54:44 GMT 36.081573 -85.446625 33,000 160 478 64
2021-07-29 17:54:36 GMT 36.098328 -85.453720 33,000 160 478 -64
2021-07-29 17:54:33 GMT 36.103134 -85.455780 33,000 160 478 -64
2021-07-29 17:54:30 GMT 36.109360 -85.458443 33,000 160 478 -64
2021-07-29 17:54:24 GMT 36.125061 -85.465111 33,000 160 478 64
2021-07-29 17:54:12 GMT 36.147205 -85.474571 33,000 160 477 -64
2021-07-29 17:54:03 GMT 36.168995 -85.483856 33,000 160 477 64
2021-07-29 17:53:58 GMT 36.176926 -85.487190 33,000 160 477 64
2021-07-29 17:53:52 GMT 36.192318 -85.493797 33,000 160 478 64
2021-07-29 17:53:43 GMT 36.227829 -85.508942 33,000 160 478 64
2021-07-29 17:53:34 GMT 36.227829 -85.508942 33,000 160 478 0
2021-07-29 17:53:31 GMT 36.235004 -85.512024 33,000 160 481 64
2021-07-29 17:53:25 GMT 36.246597 -85.516991 33,000 160 478 64
2021-07-29 17:53:22 GMT 36.252556 -85.519508 33,000 160 479 0
2021-07-29 17:53:20 GMT 36.257172 -85.521469 33,000 160 479 -64
2021-07-29 17:53:16 GMT 36.266663 -85.525528 33,000 160 480 -64
2021-07-29 17:53:13 GMT 36.272141 -85.527878 33,000 160 480 -64
2021-07-29 17:53:09 GMT 36.279099 -85.530853 33,000 160 480 0
2021-07-29 17:53:03 GMT 36.292557 -85.536636 33,000 160 481 64
2021-07-29 17:52:59 GMT 36.300797 -85.540176 33,000 160 482 0
2021-07-29 17:52:55 GMT 36.311539 -85.544754 33,000 160 482 -64
2021-07-29 17:52:52 GMT 36.314888 -85.546211 33,000 160 482 -64
2021-07-29 17:52:49 GMT 36.322521 -85.549484 33,000 160 482 64
2021-07-29 17:52:44 GMT 36.333069 -85.553970 33,000 160 483 0
2021-07-29 17:52:40 GMT 36.341099 -85.557434 33,000 160 483 -64
2021-07-29 17:52:38 GMT 36.346619 -85.559807 33,000 160 483 0
2021-07-29 17:52:34 GMT 36.355480 -85.563568 33,000 160 483 64
2021-07-29 17:52:30 GMT 36.363117 -85.566841 33,000 160 483 128
2021-07-29 17:52:28 GMT 36.366898 -85.568504 33,000 160 484 -64
2021-07-29 17:52:19 GMT 36.388962 -85.577950 33,000 160 487 64
2021-07-29 17:52:13 GMT 36.400452 -85.582909 33,000 160 486 -64
2021-07-29 17:52:08 GMT 36.408508 -85.586357 33,000 160 487 64
2021-07-29 17:52:02 GMT 36.429455 -85.595360 33,000 160 487 0
2021-07-29 17:51:59 GMT 36.429455 -85.595360 33,000 160 487 0
2021-07-29 17:51:52 GMT 36.444260 -85.601746 33,000 160 487 0
2021-07-29 17:51:47 GMT 36.453289 -85.605583 33,000 160 487 -64
2021-07-29 17:51:41 GMT 36.466927 -85.611488 33,000 160 487 -64
2021-07-29 17:51:38 GMT 36.474564 -85.614761 33,000 160 487 -64
2021-07-29 17:51:35 GMT 36.479683 -85.616982 33,000 160 487 -64
2021-07-29 17:51:30 GMT 36.491695 -85.622124 33,000 160 487 0
2021-07-29 17:51:27 GMT 36.516037 -85.632591 33,000 160 487 64
2021-07-29 17:51:18 GMT 36.516037 -85.632591 33,000 160 487 0
2021-07-29 17:51:14 GMT 36.524551 -85.636253 33,000 160 487 0
2021-07-29 17:51:11 GMT 36.533497 -85.640121 33,000 160 487 -64
2021-07-29 17:51:07 GMT 36.538620 -85.642342 33,000 160 487 128
2021-07-29 17:51:05 GMT 36.543552 -85.644447 33,000 160 487 0
2021-07-29 17:50:59 GMT 36.556137 -85.649872 33,000 160 487 -64
2021-07-29 17:50:56 GMT 36.562546 -85.652626 33,000 160 487 -64
2021-07-29 17:50:48 GMT 36.578701 -85.659584 33,000 160 487 0
2021-07-29 17:50:45 GMT 36.585114 -85.662346 33,000 160 487 -64
2021-07-29 17:50:39 GMT 36.599976 -85.668755 33,000 160 486 64
2021-07-29 17:50:36 GMT 36.606354 -85.671555 33,000 160 487 0
2021-07-29 17:50:33 GMT 36.610382 -85.673279 33,000 160 487 0
2021-07-29 17:50:30 GMT 36.619125 -85.677055 33,000 160 487 0
2021-07-29 17:50:27 GMT 36.623623 -85.678986 33,000 160 487 0
2021-07-29 17:50:24 GMT 36.630203 -85.681801 33,000 160 487 0
2021-07-29 17:50:15 GMT 36.649971 -85.690376 33,000 160 487 0
2021-07-29 17:50:10 GMT 36.665474 -85.697098 33,000 160 487 0
2021-07-29 17:50:04 GMT 36.672363 -85.700081 33,000 160 487 0
2021-07-29 17:49:57 GMT 36.690331 -85.707855 33,000 160 487 0
2021-07-29 17:49:53 GMT 36.695709 -85.710182 33,000 160 487 0
2021-07-29 17:49:49 GMT 36.707794 -85.715385 33,000 160 486 -64
2021-07-29 17:49:43 GMT 36.717133 -85.719452 33,000 160 486 0
2021-07-29 17:49:38 GMT 36.729813 -85.724945 33,000 160 487 0
2021-07-29 17:49:35 GMT 36.737209 -85.728127 33,000 160 487 0
2021-07-29 17:49:32 GMT 36.741447 -85.730003 33,000 160 487 0
2021-07-29 17:49:27 GMT 36.752525 -85.734795 33,000 160 487 64
2021-07-29 17:49:23 GMT 36.760815 -85.738358 33,000 160 487 64
2021-07-29 17:49:15 GMT 36.779758 -85.746597 33,000 160 487 0
2021-07-29 17:49:12 GMT 36.782730 -85.747887 33,000 160 487 -64
2021-07-29 17:49:06 GMT 36.800243 -85.755478 33,000 160 488 -128
2021-07-29 17:49:03 GMT 36.804478 -85.757294 33,000 160 488 -64
2021-07-29 17:48:54 GMT 36.818211 -85.763252 33,000 160 487 128
2021-07-29 17:48:51 GMT 36.828453 -85.767693 33,000 160 487 64
2021-07-29 17:48:48 GMT 36.835693 -85.770836 33,000 160 486 -64
2021-07-29 17:48:41 GMT 36.850113 -85.777130 33,000 160 486 64
2021-07-29 17:48:38 GMT 36.857361 -85.780296 33,000 160 485 -64
2021-07-29 17:48:31 GMT 36.872131 -85.786743 33,000 160 485 0
2021-07-29 17:48:28 GMT 36.880077 -85.790146 33,000 160 485 64
2021-07-29 17:48:22 GMT 36.889530 -85.794266 33,000 160 485 0
2021-07-29 17:48:17 GMT 36.901840 -85.799660 33,000 160 486 0
2021-07-29 17:48:14 GMT 36.906097 -85.801468 33,000 160 486 -64
2021-07-29 17:48:10 GMT 36.915436 -85.805557 33,000 160 487 -64
2021-07-29 17:48:06 GMT 36.923996 -85.809242 33,000 160 488 -64
2021-07-29 17:48:02 GMT 36.938461 -85.815552 33,000 160 488 -64
2021-07-29 17:47:59 GMT 36.938461 -85.815552 33,000 160 488 0
2021-07-29 17:47:56 GMT 36.945328 -85.818535 33,000 160 489 64
2021-07-29 17:47:50 GMT 36.958099 -85.824142 33,000 160 489 64
2021-07-29 17:47:47 GMT 36.967392 -85.828178 33,000 160 489 64
2021-07-29 17:47:41 GMT 36.976089 -85.831970 33,000 160 489 64
2021-07-29 17:47:38 GMT 36.983334 -85.835167 33,000 160 489 64
2021-07-29 17:47:34 GMT 36.992737 -85.839226 33,000 160 489 0
2021-07-29 17:47:31 GMT 36.997421 -85.841324 33,000 160 489 -64
2021-07-29 17:47:28 GMT 37.004745 -85.844482 33,000 160 489 -128
2021-07-29 17:47:24 GMT 37.013264 -85.848244 33,000 160 487 0
2021-07-29 17:47:20 GMT 37.025089 -85.853378 33,000 160 489 0
2021-07-29 17:47:17 GMT 37.037659 -85.858917 33,000 160 489 0
2021-07-29 17:47:10 GMT 37.049156 -85.863945 33,000 160 488 64
2021-07-29 17:47:07 GMT 37.049156 -85.863945 33,000 160 488 64
2021-07-29 17:47:03 GMT 37.060284 -85.868782 33,000 160 487 0
2021-07-29 17:46:57 GMT 37.071808 -85.873817 33,000 160 488 0
2021-07-29 17:46:51 GMT 37.083527 -85.878960 33,000 160 487 64
2021-07-29 17:46:47 GMT 37.093140 -85.883163 33,000 160 487 0
2021-07-29 17:46:40 GMT 37.107605 -85.889481 33,000 160 486 0
2021-07-29 17:46:37 GMT 37.114380 -85.892456 33,000 160 486 0
2021-07-29 17:46:30 GMT 37.127975 -85.898415 33,000 160 486 0
2021-07-29 17:46:25 GMT 37.137562 -85.902580 33,000 160 485 0
2021-07-29 17:46:19 GMT 37.153427 -85.909523 33,000 160 485 64
2021-07-29 17:46:14 GMT 37.161896 -85.913261 33,000 160 485 0
2021-07-29 17:46:10 GMT 37.171635 -85.917564 33,000 160 485 0
2021-07-29 17:46:05 GMT 37.180992 -85.921623 33,000 160 485 64
2021-07-29 17:45:59 GMT 37.193703 -85.927238 33,000 160 486 -64
2021-07-29 17:45:55 GMT 37.202637 -85.931145 33,000 160 486 0
2021-07-29 17:45:49 GMT 37.215363 -85.936752 33,000 160 486 0
2021-07-29 17:45:44 GMT 37.225525 -85.941193 33,000 160 486 -64
2021-07-29 17:45:38 GMT 37.237881 -85.946579 33,000 160 486 64
2021-07-29 17:45:34 GMT 37.248028 -85.951057 33,000 160 485 0
2021-07-29 17:45:29 GMT 37.259712 -85.956192 33,000 160 485 0
2021-07-29 17:45:26 GMT 37.265018 -85.958527 33,000 160 485 0
2021-07-29 17:45:23 GMT 37.273041 -85.962059 33,000 160 485 0
2021-07-29 17:45:16 GMT 37.286156 -85.967834 33,000 160 484 0
2021-07-29 17:45:06 GMT 37.308128 -85.977509 33,000 160 484 0
2021-07-29 17:45:02 GMT 37.317577 -85.981689 33,000 160 484 64
2021-07-29 17:44:57 GMT 37.326324 -85.985550 33,000 160 485 -64
2021-07-29 17:44:53 GMT 37.332802 -85.988380 33,000 160 485 -64
2021-07-29 17:44:45 GMT 37.351913 -85.996773 33,000 160 485 0
2021-07-29 17:44:41 GMT 37.364178 -86.002174 33,000 160 485 0
2021-07-29 17:44:34 GMT 37.376045 -86.007423 33,000 160 485 64
2021-07-29 17:44:28 GMT 37.386475 -86.012077 33,000 160 485 64
2021-07-29 17:44:20 GMT 37.411240 -86.023010 33,000 160 485 -64
2021-07-29 17:44:14 GMT 37.419662 -86.026688 33,000 160 485 -64
2021-07-29 17:44:07 GMT 37.432049 -86.032143 33,000 160 485 0
2021-07-29 17:44:03 GMT 37.440521 -86.035904 33,000 160 485 0
2021-07-29 17:43:59 GMT 37.448410 -86.039429 33,000 160 485 0
2021-07-29 17:43:56 GMT 37.454906 -86.042297 33,000 160 485 64
2021-07-29 17:43:53 GMT 37.461704 -86.045280 33,000 160 485 0
2021-07-29 17:43:45 GMT 37.479080 -86.052986 33,000 160 485 0
2021-07-29 17:43:43 GMT 37.484421 -86.055313 33,000 160 485 0
2021-07-29 17:43:35 GMT 37.500092 -86.062279 33,000 160 485 -64
2021-07-29 17:43:32 GMT 37.506580 -86.065163 33,000 160 485 -64
2021-07-29 17:43:23 GMT 37.524857 -86.073265 33,000 160 485 64
2021-07-29 17:43:14 GMT 37.544357 -86.081856 33,000 160 484 0
2021-07-29 17:43:11 GMT 37.550949 -86.084831 33,000 160 484 64
2021-07-29 17:43:03 GMT 37.568893 -86.092728 33,000 160 484 -64
2021-07-29 17:42:56 GMT 37.584507 -86.099670 33,000 160 483 0
2021-07-29 17:42:52 GMT 37.591118 -86.102600 33,000 160 483 0
2021-07-29 17:42:48 GMT 37.597172 -86.105286 33,000 160 483 0
2021-07-29 17:42:45 GMT 37.605595 -86.109047 33,000 160 483 64
2021-07-29 17:42:42 GMT 37.612839 -86.112244 33,000 160 483 64
2021-07-29 17:42:33 GMT 37.629684 -86.119720 33,000 160 484 0
2021-07-29 17:42:30 GMT 37.637329 -86.123169 33,000 160 484 0
2021-07-29 17:42:23 GMT 37.651703 -86.129539 33,000 160 484 -64
2021-07-29 17:42:19 GMT 37.661041 -86.133690 33,000 160 485 0
2021-07-29 17:42:15 GMT 37.669510 -86.137428 33,000 160 485 64
2021-07-29 17:42:12 GMT 37.674591 -86.139709 33,000 160 485 64
2021-07-29 17:42:08 GMT 37.682190 -86.143097 33,000 160 485 -64
2021-07-29 17:42:05 GMT 37.688919 -86.146080 33,000 160 485 0
2021-07-29 17:42:02 GMT 37.695351 -86.148933 33,000 160 485 -64
2021-07-29 17:41:59 GMT 37.701305 -86.151619 33,000 160 485 0
2021-07-29 17:41:54 GMT 37.716019 -86.158173 33,000 160 485 0
2021-07-29 17:41:51 GMT 37.722397 -86.160995 33,000 160 485 -64
2021-07-29 17:41:48 GMT 37.732731 -86.165588 33,000 160 486 0
2021-07-29 17:41:45 GMT 37.732731 -86.165588 33,000 160 486 0
2021-07-29 17:41:42 GMT 37.739090 -86.168404 33,000 160 486 -64
2021-07-29 17:41:38 GMT 37.747559 -86.172203 33,000 160 486 64
2021-07-29 17:41:34 GMT 37.754841 -86.175446 33,000 160 486 128
2021-07-29 17:41:31 GMT 37.773102 -86.183594 33,000 160 487 64
2021-07-29 17:41:27 GMT 37.773102 -86.183594 33,000 160 487 0
2021-07-29 17:41:23 GMT 37.780563 -86.186867 33,000 160 488 0
2021-07-29 17:41:20 GMT 37.783752 -86.188339 33,000 160 488 0
2021-07-29 17:41:17 GMT 37.791000 -86.191544 33,000 160 488 -64
2021-07-29 17:41:14 GMT 37.811462 -86.200714 33,000 160 489 64
2021-07-29 17:41:09 GMT 37.811462 -86.200714 33,000 160 489 64
2021-07-29 17:41:06 GMT 37.816990 -86.203209 33,000 160 490 0
2021-07-29 17:41:00 GMT 37.827713 -86.207962 33,000 160 490 -64
2021-07-29 17:40:57 GMT 37.837097 -86.212173 33,000 160 490 -64
2021-07-29 17:40:53 GMT 37.843525 -86.215034 33,000 160 491 0
2021-07-29 17:40:49 GMT 37.852089 -86.218849 33,000 160 491 0
2021-07-29 17:40:46 GMT 37.857956 -86.221481 33,000 160 491 64
2021-07-29 17:40:41 GMT 37.870514 -86.227135 33,000 160 491 0
2021-07-29 17:40:38 GMT 37.873505 -86.228462 33,000 160 491 -64
2021-07-29 17:40:35 GMT 37.880768 -86.231750 33,000 160 491 -64
2021-07-29 17:40:32 GMT 37.887634 -86.234787 33,000 160 491 0
2021-07-29 17:40:29 GMT 37.894684 -86.237961 33,000 160 491 0
2021-07-29 17:40:25 GMT 37.903484 -86.241837 33,000 160 491 0
2021-07-29 17:40:20 GMT 37.916332 -86.247635 33,000 160 491 64
2021-07-29 17:40:16 GMT 37.923660 -86.250916 33,000 160 490 0
2021-07-29 17:40:12 GMT 37.931351 -86.254364 33,000 160 490 0
2021-07-29 17:40:08 GMT 37.939087 -86.257812 33,000 160 490 -64
2021-07-29 17:40:05 GMT 37.948334 -86.261963 33,000 160 490 -64
2021-07-29 17:40:00 GMT 37.956985 -86.265816 33,000 160 490 64
2021-07-29 17:39:56 GMT 37.969711 -86.271545 33,000 160 490 0
2021-07-29 17:39:54 GMT 37.969711 -86.271545 33,000 160 489 0
2021-07-29 17:39:50 GMT 37.978806 -86.275635 33,000 160 489 64
2021-07-29 17:39:47 GMT 37.984718 -86.278259 33,000 160 489 64
2021-07-29 17:39:44 GMT 37.991180 -86.281189 33,000 160 488 64
2021-07-29 17:39:40 GMT 37.998405 -86.284470 33,000 160 488 0
2021-07-29 17:39:36 GMT 38.008644 -86.289009 33,000 160 487 64
2021-07-29 17:39:34 GMT 38.014114 -86.291473 33,000 160 487 64
2021-07-29 17:39:31 GMT 38.020470 -86.294327 33,000 160 487 0
2021-07-29 17:39:27 GMT 38.028057 -86.297791 33,000 160 487 -64
2021-07-29 17:39:24 GMT 38.033569 -86.300240 33,000 160 487 -64
2021-07-29 17:39:21 GMT 38.040020 -86.303101 33,000 160 486 64
2021-07-29 17:39:17 GMT 38.048950 -86.307137 33,000 160 486 0
2021-07-29 17:39:14 GMT 38.054455 -86.309608 33,000 160 486 -64
2021-07-29 17:39:11 GMT 38.060852 -86.312508 33,000 160 486 0
2021-07-29 17:39:08 GMT 38.067066 -86.315285 33,000 160 486 64
2021-07-29 17:39:05 GMT 38.073864 -86.318329 33,000 160 486 64
2021-07-29 17:39:03 GMT 38.078613 -86.320518 33,000 160 486 0
2021-07-29 17:39:00 GMT 38.086166 -86.323906 33,000 160 486 0
2021-07-29 17:38:57 GMT 38.089088 -86.325195 33,000 160 486 0
2021-07-29 17:38:54 GMT 38.096863 -86.328712 33,000 160 486 0
2021-07-29 17:38:52 GMT 38.100910 -86.330505 33,000 160 486 -64
2021-07-29 17:38:49 GMT 38.107056 -86.333313 33,000 160 487 -64
2021-07-29 17:38:45 GMT 38.115921 -86.337288 33,000 160 487 -64
2021-07-29 17:38:42 GMT 38.123566 -86.340736 33,000 160 487 -64
2021-07-29 17:38:39 GMT 38.127399 -86.342445 33,000 160 487 -64
2021-07-29 17:38:36 GMT 38.133774 -86.345352 33,000 160 487 0
2021-07-29 17:38:33 GMT 38.140156 -86.348244 33,000 160 488 64
2021-07-29 17:38:29 GMT 38.151188 -86.353195 33,000 160 488 0
2021-07-29 17:38:23 GMT 38.161011 -86.357620 33,000 160 488 0
2021-07-29 17:38:18 GMT 38.173828 -86.363411 33,000 160 488 0
2021-07-29 17:38:15 GMT 38.180649 -86.366447 33,000 160 488 -64
2021-07-29 17:38:11 GMT 38.189594 -86.370514 33,000 160 489 0
2021-07-29 17:38:06 GMT 38.198952 -86.374748 33,000 160 489 64
2021-07-29 17:38:03 GMT 38.205368 -86.377670 33,000 160 489 -64
2021-07-29 17:37:59 GMT 38.213474 -86.381317 33,000 160 489 64
2021-07-29 17:37:55 GMT 38.222443 -86.385384 33,000 160 489 64
2021-07-29 17:37:52 GMT 38.227116 -86.387466 33,000 160 489 0
2021-07-29 17:37:48 GMT 38.244015 -86.395111 33,000 160 489 64
2021-07-29 17:37:42 GMT 38.249725 -86.397713 33,000 160 489 0
2021-07-29 17:37:39 GMT 38.256409 -86.400749 33,000 160 489 0
2021-07-29 17:37:35 GMT 38.264683 -86.404488 33,000 160 489 0
2021-07-29 17:37:32 GMT 38.271103 -86.407356 33,000 160 489 -64
2021-07-29 17:37:28 GMT 38.282043 -86.412323 33,000 160 489 0
2021-07-29 17:37:25 GMT 38.286301 -86.414253 33,000 160 489 -64
2021-07-29 17:37:21 GMT 38.294037 -86.417755 33,000 160 489 0
2021-07-29 17:37:18 GMT 38.300995 -86.420914 33,000 160 490 0
2021-07-29 17:37:14 GMT 38.308594 -86.424362 33,000 160 490 0
2021-07-29 17:37:10 GMT 38.317245 -86.428276 33,000 160 490 0
2021-07-29 17:37:06 GMT 38.329239 -86.433708 33,000 160 490 -64
2021-07-29 17:37:00 GMT 38.338531 -86.437920 33,000 160 490 -64
2021-07-29 17:36:55 GMT 38.350105 -86.443237 33,000 160 490 0
2021-07-29 17:36:52 GMT 38.358719 -86.447121 33,000 160 490 -128
2021-07-29 17:36:48 GMT 38.366447 -86.450577 33,000 160 490 -64
2021-07-29 17:36:44 GMT 38.375427 -86.454689 33,000 160 490 128
2021-07-29 17:36:40 GMT 38.381378 -86.457375 33,000 160 490 128
2021-07-29 17:36:37 GMT 38.390808 -86.461639 33,000 160 490 -64
2021-07-29 17:36:33 GMT 38.397217 -86.464554 33,000 160 490 64
2021-07-29 17:36:29 GMT 38.404945 -86.468079 33,000 160 490 0
2021-07-29 17:36:25 GMT 38.414749 -86.472549 33,000 160 490 0
2021-07-29 17:36:22 GMT 38.419830 -86.474823 33,000 160 490 -64
2021-07-29 17:36:17 GMT 38.433155 -86.480896 33,000 160 490 64
2021-07-29 17:36:13 GMT 38.449261 -86.488281 33,000 160 489 0
2021-07-29 17:36:08 GMT 38.449261 -86.488281 33,000 160 490 -64
2021-07-29 17:36:04 GMT 38.459644 -86.492981 33,000 160 490 64
2021-07-29 17:35:59 GMT 38.469498 -86.497452 33,000 160 489 0
2021-07-29 17:35:56 GMT 38.477142 -86.500977 33,000 160 489 0
2021-07-29 17:35:53 GMT 38.483570 -86.503906 33,000 160 491 64
2021-07-29 17:35:50 GMT 38.494217 -86.508736 33,000 160 491 64
2021-07-29 17:35:47 GMT 38.494217 -86.508736 33,000 160 489 64
2021-07-29 17:35:43 GMT 38.506073 -86.514107 33,000 160 489 0
2021-07-29 17:35:37 GMT 38.515972 -86.518616 33,000 160 489 0
2021-07-29 17:35:34 GMT 38.522369 -86.521515 33,000 160 489 0
2021-07-29 17:35:31 GMT 38.529610 -86.524841 33,000 160 490 -64
2021-07-29 17:35:28 GMT 38.536011 -86.527786 33,000 160 490 -64
2021-07-29 17:35:25 GMT 38.544136 -86.531494 33,000 160 490 -64
2021-07-29 17:35:19 GMT 38.556381 -86.537094 33,000 160 490 -64
2021-07-29 17:35:16 GMT 38.560638 -86.539009 33,000 160 491 0
2021-07-29 17:35:13 GMT 38.576675 -86.546326 33,000 160 491 64
2021-07-29 17:35:10 GMT 38.576675 -86.546326 33,000 160 491 0
2021-07-29 17:35:08 GMT 38.580551 -86.548080 33,000 160 491 128
2021-07-29 17:35:04 GMT 38.587849 -86.551392 33,000 160 491 0
2021-07-29 17:35:00 GMT 38.595978 -86.555130 33,000 160 490 0
2021-07-29 17:34:57 GMT 38.602798 -86.558235 33,000 160 490 -64
2021-07-29 17:34:53 GMT 38.617737 -86.565125 33,000 160 490 -64
2021-07-29 17:34:50 GMT 38.624393 -86.568115 33,000 160 489 0
2021-07-29 17:34:47 GMT 38.624393 -86.568115 33,000 160 489 64
2021-07-29 17:34:43 GMT 38.632690 -86.571907 33,000 160 489 0
2021-07-29 17:34:39 GMT 38.642502 -86.576416 33,000 160 489 64
2021-07-29 17:34:36 GMT 38.648026 -86.578957 33,000 160 489 64
2021-07-29 17:34:33 GMT 38.655300 -86.582275 33,000 160 488 0
2021-07-29 17:34:29 GMT 38.663822 -86.586182 33,000 160 488 64
2021-07-29 17:34:26 GMT 38.668896 -86.588501 33,000 160 488 64
2021-07-29 17:34:22 GMT 38.678696 -86.592987 33,000 160 488 -64
2021-07-29 17:34:19 GMT 38.685932 -86.596313 33,000 160 488 0
2021-07-29 17:34:16 GMT 38.692337 -86.599251 33,000 160 488 64
2021-07-29 17:34:12 GMT 38.700668 -86.603073 33,000 160 488 -192
2021-07-29 17:34:09 GMT 38.707207 -86.606018 33,000 160 488 0
2021-07-29 17:34:05 GMT 38.714935 -86.609558 33,000 160 488 128
2021-07-29 17:34:02 GMT 38.721222 -86.612450 33,000 160 488 64
2021-07-29 17:33:58 GMT 38.728577 -86.615845 33,000 160 488 -64
2021-07-29 17:33:51 GMT 38.745522 -86.623596 33,000 160 489 128
2021-07-29 17:33:48 GMT 38.760544 -86.630478 33,000 160 495 -64
2021-07-29 17:33:43 GMT 38.760544 -86.630478 33,000 160 490 0
2021-07-29 17:33:40 GMT 38.769012 -86.634361 33,000 160 490 0
2021-07-29 17:33:37 GMT 38.772800 -86.636108 33,000 160 490 0
2021-07-29 17:33:30 GMT 38.789520 -86.643799 33,000 160 492 0
2021-07-29 17:33:27 GMT 38.794601 -86.646187 33,000 160 493 -64
2021-07-29 17:33:22 GMT 38.805481 -86.651184 33,000 160 493 64
2021-07-29 17:33:19 GMT 38.811485 -86.653931 33,000 160 493 -64
2021-07-29 17:33:16 GMT 38.817352 -86.656616 33,000 160 494 -64
2021-07-29 17:33:12 GMT 38.827423 -86.661232 33,000 160 494 64
2021-07-29 17:33:09 GMT 38.834290 -86.664398 33,000 160 495 64
2021-07-29 17:33:06 GMT 38.839928 -86.666992 33,000 160 495 64
2021-07-29 17:33:00 GMT 38.853333 -86.673172 33,000 160 496 -64
2021-07-29 17:32:57 GMT 38.860886 -86.676636 33,000 160 496 128
2021-07-29 17:32:55 GMT 38.864975 -86.678528 33,000 160 496 0
2021-07-29 17:32:50 GMT 38.874939 -86.683083 33,000 160 497 64
2021-07-29 17:32:47 GMT 38.885735 -86.688110 33,000 160 497 0
2021-07-29 17:32:44 GMT 38.885735 -86.688110 33,000 160 497 0
2021-07-29 17:32:41 GMT 38.894852 -86.692276 33,000 160 498 -64
2021-07-29 17:32:36 GMT 38.905060 -86.696999 33,000 160 498 64
2021-07-29 17:32:34 GMT 38.909592 -86.699089 33,000 160 498 64
2021-07-29 17:32:29 GMT 38.920029 -86.703918 33,000 160 498 0
2021-07-29 17:32:26 GMT 38.927261 -86.707275 33,000 160 498 0
2021-07-29 17:32:24 GMT 38.942551 -86.714310 33,000 160 498 64
2021-07-29 17:32:19 GMT 38.942551 -86.714310 33,000 160 498 0
2021-07-29 17:32:16 GMT 38.952942 -86.719147 33,000 160 498 0
2021-07-29 17:32:13 GMT 38.952942 -86.719147 33,000 160 497 0
2021-07-29 17:32:08 GMT 38.964687 -86.724548 33,000 160 497 64
2021-07-29 17:32:05 GMT 38.971626 -86.727722 33,000 160 497 -64
2021-07-29 17:32:03 GMT 38.976288 -86.729897 33,000 160 497 0
2021-07-29 17:31:59 GMT 38.984612 -86.733765 33,000 160 496 0
2021-07-29 17:31:55 GMT 38.994995 -86.738525 33,000 160 497 64
2021-07-29 17:31:52 GMT 38.999184 -86.740479 33,000 160 497 -64
2021-07-29 17:31:49 GMT 39.006683 -86.743927 33,000 160 496 0
2021-07-29 17:31:46 GMT 39.015198 -86.747871 33,000 160 496 64
2021-07-29 17:31:43 GMT 39.021667 -86.750854 33,000 160 496 0
2021-07-29 17:31:37 GMT 39.032455 -86.755867 33,000 160 496 -64
2021-07-29 17:31:34 GMT 39.039127 -86.758972 33,000 160 496 -64
2021-07-29 17:31:31 GMT 39.047737 -86.762939 33,000 160 496 64
2021-07-29 17:31:27 GMT 39.054153 -86.765900 33,000 160 496 64
2021-07-29 17:31:24 GMT 39.062759 -86.769897 33,000 160 496 64
2021-07-29 17:31:21 GMT 39.067978 -86.772346 33,000 160 496 0
2021-07-29 17:31:18 GMT 39.081894 -86.778793 33,000 160 496 0
2021-07-29 17:31:15 GMT 39.081894 -86.778793 33,000 160 496 0
2021-07-29 17:31:11 GMT 39.088329 -86.781799 33,000 160 496 0
2021-07-29 17:31:08 GMT 39.095627 -86.785187 33,000 160 496 -64
2021-07-29 17:31:04 GMT 39.103786 -86.788940 33,000 160 496 0
2021-07-29 17:31:01 GMT 39.110321 -86.791992 33,000 160 496 -64
2021-07-29 17:30:57 GMT 39.118927 -86.795990 33,000 160 496 0
2021-07-29 17:30:54 GMT 39.133301 -86.802673 33,000 160 496 64
2021-07-29 17:30:51 GMT 39.133301 -86.802673 33,000 160 494 0
2021-07-29 17:30:48 GMT 39.139355 -86.805481 33,000 160 494 0
2021-07-29 17:30:45 GMT 39.144974 -86.808052 33,000 160 496 0
2021-07-29 17:30:42 GMT 39.153179 -86.811890 33,000 160 496 0
2021-07-29 17:30:40 GMT 39.155785 -86.813110 33,000 160 495 0
2021-07-29 17:30:37 GMT 39.163055 -86.816475 33,000 160 495 -64
2021-07-29 17:30:33 GMT 39.170403 -86.819885 33,000 160 494 0
2021-07-29 17:30:30 GMT 39.178528 -86.823700 33,000 160 494 0
2021-07-29 17:30:24 GMT 39.188095 -86.828117 33,000 160 494 0
2021-07-29 17:30:21 GMT 39.202698 -86.834923 33,000 160 494 0
2021-07-29 17:30:18 GMT 39.202698 -86.834923 33,000 160 494 0
2021-07-29 17:30:13 GMT 39.219086 -86.842567 33,000 160 494 -64
2021-07-29 17:30:07 GMT 39.225952 -86.845734 33,000 160 494 64
2021-07-29 17:30:03 GMT 39.236984 -86.850868 33,000 160 494 0
2021-07-29 17:30:00 GMT 39.242744 -86.853577 33,000 160 495 -64
2021-07-29 17:29:57 GMT 39.250076 -86.857018 33,000 160 495 -64
2021-07-29 17:29:54 GMT 39.254379 -86.858986 33,000 160 495 -64
2021-07-29 17:29:50 GMT 39.263901 -86.863403 33,000 160 495 -64
2021-07-29 17:29:47 GMT 39.268204 -86.865433 33,000 160 495 -64
2021-07-29 17:29:44 GMT 39.277287 -86.869629 33,000 160 495 64
2021-07-29 17:29:41 GMT 39.282852 -86.872238 33,000 160 495 64
2021-07-29 17:29:39 GMT 39.288025 -86.874687 33,000 160 494 64
2021-07-29 17:29:35 GMT 39.296234 -86.878479 33,000 160 494 64
2021-07-29 17:29:32 GMT 39.303543 -86.881912 33,000 160 494 0
2021-07-29 17:29:26 GMT 39.313412 -86.886536 33,000 160 493 64
2021-07-29 17:29:23 GMT 39.328445 -86.893555 33,000 160 493 0
2021-07-29 17:29:20 GMT 39.328445 -86.893555 33,000 160 492 -64
2021-07-29 17:29:17 GMT 39.336361 -86.897217 33,000 160 492 0
2021-07-29 17:29:14 GMT 39.340439 -86.899170 33,000 160 492 64
2021-07-29 17:29:11 GMT 39.348175 -86.902748 33,000 160 492 64
2021-07-29 17:29:08 GMT 39.354565 -86.905762 33,000 160 491 64
2021-07-29 17:29:04 GMT 39.363129 -86.909729 33,000 160 491 64
2021-07-29 17:28:59 GMT 39.371696 -86.913757 33,000 160 491 64
2021-07-29 17:28:56 GMT 39.380028 -86.917664 33,000 160 491 64
2021-07-29 17:28:53 GMT 39.385380 -86.920166 33,000 159 490 64
2021-07-29 17:28:50 GMT 39.392178 -86.923340 33,000 160 491 128
2021-07-29 17:28:48 GMT 39.397751 -86.925980 33,000 160 491 0
2021-07-29 17:28:45 GMT 39.401581 -86.927734 33,000 160 491 -64
2021-07-29 17:28:42 GMT 39.410568 -86.931946 33,000 160 491 -64
2021-07-29 17:28:39 GMT 39.417828 -86.935364 33,000 160 492 -64
2021-07-29 17:28:36 GMT 39.421272 -86.936951 33,000 159 493 64
2021-07-29 17:28:33 GMT 39.428955 -86.940613 33,000 159 493 0
2021-07-29 17:28:30 GMT 39.435379 -86.943588 33,000 160 494 64
2021-07-29 17:28:25 GMT 39.447018 -86.949036 33,000 160 495 -64
2021-07-29 17:28:22 GMT 39.452183 -86.951477 33,000 159 496 -128
2021-07-29 17:28:18 GMT 39.462566 -86.956360 33,000 160 498 -64
2021-07-29 17:28:14 GMT 39.469360 -86.959534 33,000 160 500 64
2021-07-29 17:28:11 GMT 39.473419 -86.961441 33,000 160 500 64
2021-07-29 17:28:08 GMT 39.481155 -86.965027 33,000 160 501 -128
2021-07-29 17:28:05 GMT 39.489471 -86.968933 33,000 159 502 -64
2021-07-29 17:28:02 GMT 39.496124 -86.972069 33,000 159 502 0
2021-07-29 17:27:59 GMT 39.501808 -86.974731 33,000 160 503 64
2021-07-29 17:27:56 GMT 39.514935 -86.980957 33,000 160 503 0
2021-07-29 17:27:53 GMT 39.514935 -86.980957 33,000 160 503 128
2021-07-29 17:27:49 GMT 39.524570 -86.985474 33,000 159 502 0
2021-07-29 17:27:46 GMT 39.530624 -86.988281 33,000 160 502 64
2021-07-29 17:27:43 GMT 39.537094 -86.991356 33,000 160 501 64
2021-07-29 17:27:40 GMT 39.541580 -86.993446 33,000 160 500 64
2021-07-29 17:27:37 GMT 39.548965 -86.996948 33,000 160 500 0
2021-07-29 17:27:34 GMT 39.556229 -87.000313 33,000 160 498 64
2021-07-29 17:27:31 GMT 39.564194 -87.004074 33,000 160 497 64
2021-07-29 17:27:27 GMT 39.578434 -87.010742 33,000 159 496 64
2021-07-29 17:27:24 GMT 39.578434 -87.010742 33,000 159 496 64
2021-07-29 17:27:21 GMT 39.582668 -87.012756 33,000 159 496 -64
2021-07-29 17:27:18 GMT 39.590351 -87.016357 33,000 160 494 -128
2021-07-29 17:27:14 GMT 39.598267 -87.020081 33,000 159 493 64
2021-07-29 17:27:11 GMT 39.608139 -87.024734 33,000 159 492 64
2021-07-29 17:27:07 GMT 39.613174 -87.027122 33,000 160 491 64
2021-07-29 17:27:04 GMT 39.619263 -87.029991 33,000 159 490 0
2021-07-29 17:27:01 GMT 39.627640 -87.033928 33,000 160 488 -64
2021-07-29 17:26:58 GMT 39.634018 -87.036926 33,000 159 487 -64
2021-07-29 17:26:56 GMT 39.640022 -87.039795 33,000 159 486 -64
2021-07-29 17:26:53 GMT 39.646500 -87.042824 33,000 159 485 128
2021-07-29 17:26:50 GMT 39.651798 -87.045349 32,975 159 485 512
2021-07-29 17:26:47 GMT 39.657898 -87.048218 32,950 159 484 704
2021-07-29 17:26:44 GMT 39.664032 -87.051064 32,925 159 484 640
2021-07-29 17:26:41 GMT 39.668427 -87.053154 32,900 159 484 448
2021-07-29 17:26:37 GMT 39.678101 -87.057739 32,875 159 483 384
2021-07-29 17:26:34 GMT 39.684402 -87.060738 32,850 159 482 320
2021-07-29 17:26:32 GMT 39.688568 -87.062714 32,850 159 482 320
2021-07-29 17:26:27 GMT 39.701157 -87.068619 32,800 159 481 512
2021-07-29 17:26:24 GMT 39.704498 -87.070236 32,750 159 481 704
2021-07-29 17:26:21 GMT 39.709709 -87.072693 32,750 159 481 704
2021-07-29 17:26:18 GMT 39.723957 -87.079407 32,700 159 481 768
2021-07-29 17:26:15 GMT 39.723957 -87.079407 32,625 159 480 704
2021-07-29 17:26:11 GMT 39.732475 -87.083435 32,575 159 480 960
2021-07-29 17:26:07 GMT 39.742481 -87.088196 32,550 159 480 768
2021-07-29 17:26:04 GMT 39.745693 -87.089722 32,325 159 480 1280
2021-07-29 17:26:01 GMT 39.754623 -87.093941 32,475 159 480 1088
2021-07-29 17:25:58 GMT 39.760437 -87.096687 32,425 159 480 1216
2021-07-29 17:25:55 GMT 39.765854 -87.099243 32,375 159 480 1216
2021-07-29 17:25:51 GMT 39.774048 -87.103149 32,275 159 481 1344
2021-07-29 17:25:48 GMT 39.788040 -87.109756 32,225 159 481 1344
2021-07-29 17:25:45 GMT 39.797241 -87.114120 32,000 159 483 1280
2021-07-29 17:25:40 GMT 39.797241 -87.114120 32,075 159 482 1216
2021-07-29 17:25:36 GMT 39.807518 -87.119019 31,975 159 483 1280
2021-07-29 17:25:32 GMT 39.813614 -87.121887 31,875 159 483 1280
2021-07-29 17:25:29 GMT 39.819901 -87.124924 31,825 159 484 1280
2021-07-29 17:25:25 GMT 39.830017 -87.129700 31,750 159 484 1088
2021-07-29 17:25:22 GMT 39.834183 -87.131676 31,550 159 485 1024
2021-07-29 17:25:19 GMT 39.841358 -87.135071 31,650 159 484 1088
2021-07-29 17:25:15 GMT 39.849380 -87.138901 31,575 159 485 1024
2021-07-29 17:25:12 GMT 39.856934 -87.142540 31,500 159 485 1088
2021-07-29 17:25:09 GMT 39.862885 -87.145348 31,150 159 485 1472
2021-07-29 17:25:05 GMT 39.871353 -87.149345 31,375 159 485 1280
2021-07-29 17:25:01 GMT 39.877670 -87.152405 31,325 159 485 1408
2021-07-29 17:24:58 GMT 39.885258 -87.156006 31,200 159 485 1472
2021-07-29 17:24:54 GMT 39.893280 -87.159859 31,125 159 486 1408
2021-07-29 17:24:51 GMT 39.901321 -87.163696 31,050 159 488 1472
2021-07-29 17:24:48 GMT 39.906830 -87.166367 30,975 159 488 1472
2021-07-29 17:24:45 GMT 39.913143 -87.169373 30,875 159 488 1344
2021-07-29 17:24:41 GMT 39.920380 -87.172813 30,775 159 489 1280
2021-07-29 17:24:38 GMT 39.929298 -87.177139 30,750 159 489 1280
2021-07-29 17:24:33 GMT 39.936977 -87.180824 30,475 159 491 960
2021-07-29 17:24:30 GMT 39.944092 -87.184204 30,550 159 490 1344
2021-07-29 17:24:27 GMT 39.951004 -87.187561 30,400 159 490 1280
2021-07-29 17:24:24 GMT 39.958649 -87.191284 30,450 159 491 1152
2021-07-29 17:24:20 GMT 39.965889 -87.194801 30,400 159 491 1024
2021-07-29 17:24:17 GMT 39.981949 -87.202728 28,725 159 491 1088
2021-07-29 17:24:12 GMT 39.981949 -87.202728 30,275 159 491 1152
2021-07-29 17:24:09 GMT 39.989227 -87.206299 30,075 159 491 1216
2021-07-29 17:24:06 GMT 39.995586 -87.209412 30,075 160 491 1216
2021-07-29 17:24:03 GMT 40.002960 -87.212891 30,050 160 491 1216
2021-07-29 17:23:59 GMT 40.011089 -87.216591 29,950 161 491 1216
2021-07-29 17:23:55 GMT 40.018864 -87.219894 29,675 162 493 1472
2021-07-29 17:23:52 GMT 40.025799 -87.222832 29,850 162 492 1408
2021-07-29 17:23:49 GMT 40.034412 -87.226387 29,750 162 492 1472
2021-07-29 17:23:46 GMT 40.040085 -87.228699 29,500 162 493 1472
2021-07-29 17:23:42 GMT 40.048286 -87.232010 29,600 162 493 1408
2021-07-29 17:23:40 GMT 40.051914 -87.233505 29,525 162 494 1408
2021-07-29 17:23:37 GMT 40.058487 -87.236145 29,425 162 494 1408
2021-07-29 17:23:34 GMT 40.064346 -87.238647 29,425 162 494 1408
2021-07-29 17:23:32 GMT 40.070663 -87.241394 29,350 160 496 1344
2021-07-29 17:23:29 GMT 40.074966 -87.243408 29,325 159 496 1280
2021-07-29 17:23:26 GMT 40.083153 -87.247421 29,250 158 498 1152
2021-07-29 17:23:23 GMT 40.086411 -87.249107 29,225 158 498 1088
2021-07-29 17:23:21 GMT 40.092224 -87.252075 29,175 158 498 1024
2021-07-29 17:23:18 GMT 40.101028 -87.256538 29,125 158 498 832
2021-07-29 17:23:15 GMT 40.106380 -87.259346 29,075 158 498 832
2021-07-29 17:23:12 GMT 40.111908 -87.262268 29,050 157 498 832
2021-07-29 17:23:10 GMT 40.114902 -87.263840 29,025 157 497 832
2021-07-29 17:23:07 GMT 40.124680 -87.269226 28,950 156 498 896
2021-07-29 17:23:03 GMT 40.130775 -87.272705 28,925 156 497 960
2021-07-29 17:23:01 GMT 40.136261 -87.275879 28,750 154 496 768
2021-07-29 17:22:56 GMT 40.146091 -87.281631 28,800 155 497 896
2021-07-29 17:22:53 GMT 40.151958 -87.285065 28,725 155 496 832
2021-07-29 17:22:51 GMT 40.156147 -87.287628 28,725 154 496 768
2021-07-29 17:22:48 GMT 40.162170 -87.291260 28,550 153 494 896
2021-07-29 17:22:43 GMT 40.171463 -87.297180 28,600 153 495 704
2021-07-29 17:22:40 GMT 40.187290 -87.307541 28,575 153 495 832
2021-07-29 17:22:36 GMT 40.187290 -87.307541 28,525 153 494 832
2021-07-29 17:22:33 GMT 40.195389 -87.312904 28,475 153 494 896
2021-07-29 17:22:30 GMT 40.200897 -87.316528 28,450 153 494 896
2021-07-29 17:22:27 GMT 40.204147 -87.318665 28,450 153 493 896
2021-07-29 17:22:24 GMT 40.211868 -87.323830 28,400 153 493 832
2021-07-29 17:22:20 GMT 40.219227 -87.328636 28,350 153 492 768
2021-07-29 17:22:18 GMT 40.222485 -87.330826 28,125 152 490 960
2021-07-29 17:22:14 GMT 40.234634 -87.338875 28,250 153 491 832
2021-07-29 17:22:10 GMT 40.241104 -87.343178 28,200 152 490 832
2021-07-29 17:22:07 GMT 40.245155 -87.345863 27,900 153 488 640
2021-07-29 17:22:04 GMT 40.252029 -87.350464 28,000 153 489 704
2021-07-29 17:21:59 GMT 40.263382 -87.357971 28,025 153 490 832
2021-07-29 17:21:55 GMT 40.271439 -87.363342 27,925 153 488 640
2021-07-29 17:21:48 GMT 40.284771 -87.372147 27,925 153 487 704
2021-07-29 17:21:45 GMT 40.289612 -87.375328 27,875 155 487 1152
2021-07-29 17:21:42 GMT 40.297478 -87.380569 27,825 153 487 1024
2021-07-29 17:21:36 GMT 40.308517 -87.387817 27,725 153 486 1024
2021-07-29 17:21:31 GMT 40.320557 -87.395813 27,575 153 486 1216
2021-07-29 17:21:28 GMT 40.326187 -87.399475 27,450 153 486 1408
2021-07-29 17:21:25 GMT 40.329208 -87.401489 27,525 153 486 1344
2021-07-29 17:21:20 GMT 40.341339 -87.409424 27,400 153 487 1536
2021-07-29 17:21:15 GMT 40.349350 -87.414673 27,275 153 487 1600
2021-07-29 17:21:12 GMT 40.355988 -87.419006 26,925 153 490 1280
2021-07-29 17:21:06 GMT 40.368759 -87.427246 27,050 153 488 1664
2021-07-29 17:21:03 GMT 40.376663 -87.432381 26,900 153 490 1536
2021-07-29 17:20:58 GMT 40.386841 -87.438965 26,800 153 490 1280
2021-07-29 17:20:54 GMT 40.394989 -87.444153 26,575 155 487 1088
2021-07-29 17:20:50 GMT 40.401104 -87.448051 26,500 154 487 1024
2021-07-29 17:20:46 GMT 40.409206 -87.453171 26,600 154 487 896
2021-07-29 17:20:42 GMT 40.422287 -87.461349 26,500 154 487 1088
2021-07-29 17:20:35 GMT 40.433784 -87.468216 26,400 156 487 1152
2021-07-29 17:20:32 GMT 40.437927 -87.470589 26,325 157 486 1088
2021-07-29 17:20:28 GMT 40.454548 -87.479576 26,175 158 485 1024
2021-07-29 17:20:24 GMT 40.454548 -87.479576 26,175 159 485 1024
2021-07-29 17:20:21 GMT 40.461994 -87.483383 26,175 159 485 1024
2021-07-29 17:20:18 GMT 40.466537 -87.485596 26,100 159 485 960
2021-07-29 17:20:15 GMT 40.473358 -87.489014 26,025 159 484 960
2021-07-29 17:20:12 GMT 40.479733 -87.492180 26,025 159 484 960
2021-07-29 17:20:10 GMT 40.484344 -87.494446 25,975 159 481 1216
2021-07-29 17:20:05 GMT 40.495239 -87.499817 25,900 159 483 1152
2021-07-29 17:20:02 GMT 40.501923 -87.503174 25,800 159 483 1152
2021-07-29 17:19:59 GMT 40.506958 -87.505676 25,775 159 483 1152
2021-07-29 17:19:53 GMT 40.519501 -87.511902 25,650 159 482 1152
2021-07-29 17:19:50 GMT 40.528610 -87.516418 25,475 159 481 1152
2021-07-29 17:19:42 GMT 40.541931 -87.523010 25,400 159 481 1152
2021-07-29 17:19:39 GMT 40.549095 -87.526581 25,225 159 479 1280
2021-07-29 17:19:33 GMT 40.562408 -87.533195 25,275 159 480 1216
2021-07-29 17:19:29 GMT 40.570267 -87.537109 25,200 159 480 1216
2021-07-29 17:19:26 GMT 40.578598 -87.541199 25,125 159 479 1216
2021-07-29 17:19:22 GMT 40.584412 -87.544067 25,075 159 478 1152
2021-07-29 17:19:18 GMT 40.594345 -87.548950 24,975 159 478 960
2021-07-29 17:19:12 GMT 40.605515 -87.554482 24,900 159 477 960
2021-07-29 17:19:09 GMT 40.612125 -87.557724 24,850 159 476 1024
2021-07-29 17:19:07 GMT 40.613804 -87.558540 24,825 159 476 1024
2021-07-29 17:19:02 GMT 40.627396 -87.565247 24,550 159 474 1088
2021-07-29 17:18:58 GMT 40.633987 -87.568542 24,650 159 475 1088
2021-07-29 17:18:54 GMT 40.643784 -87.573364 24,575 159 474 1088
2021-07-29 17:18:50 GMT 40.649090 -87.575890 24,525 159 473 1088
2021-07-29 17:18:47 GMT 40.657837 -87.580200 24,450 159 472 1088
2021-07-29 17:18:42 GMT 40.666855 -87.584595 24,350 159 472 1152
2021-07-29 17:18:39 GMT 40.674690 -87.588379 24,250 160 471 1216
2021-07-29 17:18:36 GMT 40.679214 -87.590515 24,250 160 471 1216
2021-07-29 17:18:33 GMT 40.686192 -87.593803 24,175 160 471 1216
2021-07-29 17:18:30 GMT 40.691299 -87.596252 24,125 160 470 1344
2021-07-29 17:18:26 GMT 40.699085 -87.599983 24,050 159 469 1472
2021-07-29 17:18:23 GMT 40.704575 -87.602661 23,975 159 469 1472
2021-07-29 17:18:20 GMT 40.711716 -87.606262 23,875 158 469 1472
2021-07-29 17:18:17 GMT 40.717529 -87.609253 23,800 157 470 1408
2021-07-29 17:18:14 GMT 40.725807 -87.613724 23,725 157 470 1344
2021-07-29 17:18:09 GMT 40.733643 -87.617920 23,575 158 468 1344
2021-07-29 17:18:06 GMT 40.745544 -87.624207 23,550 158 468 1344
2021-07-29 17:18:03 GMT 40.745544 -87.624207 23,500 158 468 1344
2021-07-29 17:18:00 GMT 40.762211 -87.632942 23,375 158 468 1216
2021-07-29 17:17:55 GMT 40.762211 -87.632942 23,325 158 466 1152
2021-07-29 17:17:52 GMT 40.768021 -87.635986 23,275 158 466 1152
2021-07-29 17:17:49 GMT 40.773834 -87.639099 23,225 158 465 1152
2021-07-29 17:17:46 GMT 40.780838 -87.642761 23,000 158 465 1216
2021-07-29 17:17:43 GMT 40.787720 -87.646431 23,100 158 464 1280
2021-07-29 17:17:38 GMT 40.796425 -87.650986 22,700 158 462 1280
2021-07-29 17:17:33 GMT 40.806015 -87.656044 22,900 158 462 1344
2021-07-29 17:17:30 GMT 40.812534 -87.659416 22,775 158 461 1280
2021-07-29 17:17:27 GMT 40.819336 -87.662903 22,700 159 461 1280
2021-07-29 17:17:24 GMT 40.823708 -87.665092 22,700 159 460 1280
2021-07-29 17:17:21 GMT 40.828720 -87.667542 22,625 160 460 1344
2021-07-29 17:17:18 GMT 40.837738 -87.671753 22,550 161 458 1344
2021-07-29 17:17:15 GMT 40.843582 -87.674141 22,500 163 458 1344
2021-07-29 17:17:12 GMT 40.849777 -87.676331 22,225 172 453 1344
2021-07-29 17:17:09 GMT 40.853897 -87.677612 22,325 168 454 1408
2021-07-29 17:17:06 GMT 40.861088 -87.679512 22,275 173 452 1344
2021-07-29 17:17:03 GMT 40.866859 -87.680763 22,225 172 452 1344
2021-07-29 17:17:01 GMT 40.871002 -87.681450 22,200 173 451 1344
2021-07-29 17:16:58 GMT 40.878937 -87.682556 22,100 174 451 1280
2021-07-29 17:16:54 GMT 40.893299 -87.684441 22,025 174 449 1088
2021-07-29 17:16:51 GMT 40.893299 -87.684441 21,950 174 448 1024
2021-07-29 17:16:47 GMT 40.899628 -87.685303 21,925 174 447 1024
2021-07-29 17:16:43 GMT 40.914459 -87.687317 21,825 174 445 1088
2021-07-29 17:16:40 GMT 40.914459 -87.687317 21,725 174 445 1088
2021-07-29 17:16:37 GMT 40.920582 -87.688126 21,750 174 444 1088
2021-07-29 17:16:33 GMT 40.935337 -87.690125 21,625 174 442 960
2021-07-29 17:16:30 GMT 40.939682 -87.690674 21,600 174 441 960
2021-07-29 17:16:27 GMT 40.946697 -87.691620 21,600 174 440 960
2021-07-29 17:16:24 GMT 40.946697 -87.691620 21,500 174 438 1024
2021-07-29 17:16:21 GMT 40.954193 -87.692627 21,475 174 438 1088
2021-07-29 17:16:18 GMT 40.958405 -87.693176 21,450 174 437 1088
2021-07-29 17:16:13 GMT 40.969090 -87.694618 21,325 174 435 1088
2021-07-29 17:16:10 GMT 40.975651 -87.695496 21,300 174 434 1152
2021-07-29 17:16:08 GMT 40.979656 -87.696053 21,250 174 434 1216
2021-07-29 17:16:06 GMT 40.983261 -87.696533 21,200 174 433 1344
2021-07-29 17:16:02 GMT 40.992828 -87.697815 21,025 174 432 1664
2021-07-29 17:15:59 GMT 40.996811 -87.698364 21,025 174 432 1728
2021-07-29 17:15:55 GMT 41.003582 -87.699303 20,825 174 432 1728
2021-07-29 17:15:52 GMT 41.012558 -87.700500 20,800 174 432 1728
2021-07-29 17:15:48 GMT 41.018715 -87.701363 20,725 174 431 1792
2021-07-29 17:15:46 GMT 41.024254 -87.702110 20,625 174 431 1856
2021-07-29 17:15:43 GMT 41.028862 -87.702736 20,525 174 431 1984
2021-07-29 17:15:40 GMT 41.040390 -87.704285 20,425 174 431 2176
2021-07-29 17:15:37 GMT 41.045242 -87.704895 20,150 174 431 2176
2021-07-29 17:15:34 GMT 41.045242 -87.704895 20,250 174 432 2176
2021-07-29 17:15:30 GMT 41.056049 -87.706352 20,075 174 432 2176
2021-07-29 17:15:26 GMT 41.063644 -87.707397 19,925 174 432 2112
2021-07-29 17:15:23 GMT 41.067871 -87.707977 19,850 174 432 2048
2021-07-29 17:15:19 GMT 41.076809 -87.709229 19,525 174 432 2048
2021-07-29 17:15:14 GMT 41.094360 -87.711601 19,525 174 432 2048
2021-07-29 17:15:11 GMT 41.094360 -87.711601 19,425 174 432 2112
2021-07-29 17:15:07 GMT 41.101135 -87.712524 19,300 174 433 2176
2021-07-29 17:15:04 GMT 41.106930 -87.713348 19,125 174 433 2048
2021-07-29 17:14:59 GMT 41.116287 -87.714600 18,850 173 432 1600
2021-07-29 17:14:56 GMT 41.122292 -87.715469 18,800 173 431 1664
2021-07-29 17:14:53 GMT 41.129059 -87.716431 18,875 173 431 1600
2021-07-29 17:14:51 GMT 41.134209 -87.717155 18,800 173 431 1664
2021-07-29 17:14:48 GMT 41.137188 -87.717529 18,575 173 430 1664
2021-07-29 17:14:45 GMT 41.142960 -87.718399 18,675 173 430 1664
2021-07-29 17:14:42 GMT 41.150875 -87.719528 18,575 173 429 1664
2021-07-29 17:14:39 GMT 41.157207 -87.720398 18,350 174 426 1536
2021-07-29 17:14:36 GMT 41.163895 -87.721313 18,400 174 426 1536
2021-07-29 17:14:31 GMT 41.171768 -87.722290 18,350 174 426 1536
2021-07-29 17:14:29 GMT 41.177261 -87.722900 18,250 175 425 1472
2021-07-29 17:14:26 GMT 41.181553 -87.723335 18,200 175 424 1408
2021-07-29 17:14:22 GMT 41.194775 -87.724457 18,025 176 421 1408
2021-07-29 17:14:20 GMT 41.194775 -87.724457 18,000 177 420 1344
2021-07-29 17:14:17 GMT 41.200790 -87.724854 17,950 177 419 1408
2021-07-29 17:14:13 GMT 41.207748 -87.725220 17,875 178 417 1408
2021-07-29 17:14:09 GMT 41.213627 -87.725456 17,800 178 416 1408
2021-07-29 17:14:07 GMT 41.218235 -87.725639 17,750 178 415 1472
2021-07-29 17:14:04 GMT 41.230865 -87.725830 17,600 179 414 1600
2021-07-29 17:14:01 GMT 41.230865 -87.725830 17,575 180 412 1664
2021-07-29 17:13:59 GMT 41.235741 -87.725830 17,500 181 412 1664
2021-07-29 17:13:56 GMT 41.246017 -87.725830 17,400 181 411 1792
2021-07-29 17:13:53 GMT 41.246017 -87.725830 17,300 181 410 1856
2021-07-29 17:13:50 GMT 41.251705 -87.725769 17,250 181 410 1856
2021-07-29 17:13:48 GMT 41.254532 -87.725708 17,200 181 410 1856
2021-07-29 17:13:46 GMT 41.260178 -87.725708 17,100 181 409 1856
2021-07-29 17:13:42 GMT 41.268173 -87.725586 16,975 181 409 1792
2021-07-29 17:13:38 GMT 41.273075 -87.725517 16,900 181 408 1728
2021-07-29 17:13:35 GMT 41.279125 -87.725456 16,775 181 407 1728
2021-07-29 17:13:32 GMT 41.284790 -87.725403 16,725 181 407 1728
2021-07-29 17:13:29 GMT 41.289322 -87.725342 16,675 181 406 1664
2021-07-29 17:13:25 GMT 41.299805 -87.725281 16,525 181 405 1536
2021-07-29 17:13:19 GMT 41.308044 -87.725159 16,425 181 403 1536
2021-07-29 17:13:16 GMT 41.316879 -87.725037 16,275 181 402 1600
2021-07-29 17:13:13 GMT 41.321720 -87.724953 16,225 181 400 1600
2021-07-29 17:13:10 GMT 41.326935 -87.724892 16,150 181 400 1600
2021-07-29 17:13:05 GMT 41.336151 -87.724670 16,025 181 398 1472
2021-07-29 17:13:02 GMT 41.340729 -87.724609 15,900 181 396 1536
2021-07-29 17:12:59 GMT 41.345169 -87.724487 15,900 181 396 1536
2021-07-29 17:12:56 GMT 41.353226 -87.724365 15,625 181 394 1856
2021-07-29 17:12:52 GMT 41.360966 -87.724205 15,650 181 393 1792
2021-07-29 17:12:47 GMT 41.367188 -87.724121 15,550 181 394 1856
2021-07-29 17:12:44 GMT 41.373440 -87.724083 15,450 181 393 1792
2021-07-29 17:12:41 GMT 41.378906 -87.724060 15,275 179 391 1728
2021-07-29 17:12:36 GMT 41.389938 -87.724144 15,225 178 391 1792
2021-07-29 17:12:33 GMT 41.395706 -87.724396 15,100 177 390 1728
2021-07-29 17:12:30 GMT 41.398952 -87.724617 15,000 176 389 1472
2021-07-29 17:12:26 GMT 41.406216 -87.725128 14,950 176 387 1024
2021-07-29 17:12:23 GMT 41.416828 -87.726089 14,925 175 386 960
2021-07-29 17:12:21 GMT 41.416828 -87.726089 14,875 174 383 704
2021-07-29 17:12:17 GMT 41.423393 -87.726913 14,850 172 380 704
2021-07-29 17:12:13 GMT 41.430634 -87.728142 14,800 171 379 768
2021-07-29 17:12:09 GMT 41.436310 -87.729324 14,750 170 377 832
2021-07-29 17:12:04 GMT 41.445549 -87.731514 14,700 169 371 512
2021-07-29 17:12:00 GMT 41.463799 -87.736115 14,625 169 363 640
2021-07-29 17:11:53 GMT 41.463799 -87.736115 14,575 169 360 832
2021-07-29 17:11:51 GMT 41.467300 -87.737007 14,550 169 358 960
2021-07-29 17:11:48 GMT 41.478470 -87.739937 14,425 166 345 960
2021-07-29 17:11:44 GMT 41.478470 -87.739937 14,425 168 353 1280
2021-07-29 17:11:41 GMT 41.484001 -87.741417 14,350 167 348 1152
2021-07-29 17:11:38 GMT 41.486423 -87.742119 14,325 167 348 1152
2021-07-29 17:11:33 GMT 41.496231 -87.744995 14,175 166 344 960
2021-07-29 17:11:30 GMT 41.500343 -87.746269 14,150 166 341 896
2021-07-29 17:11:27 GMT 41.505276 -87.747803 14,150 166 341 896
2021-07-29 17:11:24 GMT 41.508953 -87.748955 14,000 167 335 1344
2021-07-29 17:11:20 GMT 41.514961 -87.750809 14,000 167 334 1472
2021-07-29 17:11:17 GMT 41.518684 -87.751823 13,900 168 332 1792
2021-07-29 17:11:14 GMT 41.523880 -87.753235 13,700 168 330 2368
2021-07-29 17:11:10 GMT 41.530090 -87.754890 13,625 169 329 2688
2021-07-29 17:11:08 GMT 41.533909 -87.755852 13,500 168 330 2688
2021-07-29 17:11:04 GMT 41.539032 -87.757164 13,350 168 330 2688
2021-07-29 17:11:01 GMT 41.545074 -87.758789 13,150 168 330 2496
2021-07-29 17:10:58 GMT 41.548096 -87.759598 13,100 168 330 2496
2021-07-29 17:10:56 GMT 41.551712 -87.760536 13,000 168 330 2432
2021-07-29 17:10:51 GMT 41.560394 -87.762878 12,800 168 329 2112
2021-07-29 17:10:48 GMT 41.562862 -87.763519 12,725 168 329 2048
2021-07-29 17:10:46 GMT 41.566132 -87.764465 12,650 168 327 2048
2021-07-29 17:10:42 GMT 41.571892 -87.766068 12,450 168 326 2240
2021-07-29 17:10:39 GMT 41.576385 -87.767281 12,400 168 326 2304
2021-07-29 17:10:37 GMT 41.580925 -87.768562 12,350 168 326 2304
2021-07-29 17:10:31 GMT 41.587486 -87.770416 12,100 167 326 2560
2021-07-29 17:10:28 GMT 41.592934 -87.772011 11,925 167 326 2816
2021-07-29 17:10:26 GMT 41.596519 -87.773033 11,825 168 326 2752
2021-07-29 17:10:21 GMT 41.603897 -87.775078 11,575 169 326 2560
2021-07-29 17:10:18 GMT 41.607559 -87.776016 11,500 169 327 2432
2021-07-29 17:10:16 GMT 41.610489 -87.776764 11,450 169 327 2432
2021-07-29 17:10:14 GMT 41.612766 -87.777313 11,375 169 326 2240
2021-07-29 17:10:11 GMT 41.618362 -87.778763 11,250 168 326 1664
2021-07-29 17:10:05 GMT 41.635071 -87.783447 11,150 168 323 1280
2021-07-29 17:09:59 GMT 41.637066 -87.784019 10,950 168 314 2112
2021-07-29 17:09:56 GMT 41.644272 -87.786003 10,750 168 313 2560
2021-07-29 17:09:50 GMT 41.649994 -87.787506 10,575 168 313 2816
2021-07-29 17:09:46 GMT 41.654385 -87.788750 10,450 168 312 2816
2021-07-29 17:09:44 GMT 41.657269 -87.789513 10,150 168 311 2048
2021-07-29 17:09:41 GMT 41.667046 -87.792259 10,175 168 312 2112
2021-07-29 17:09:38 GMT 41.667046 -87.792259 10,100 169 309 1984
2021-07-29 17:09:35 GMT 41.672680 -87.793732 9,875 168 310 704
2021-07-29 17:09:30 GMT 41.676727 -87.794815 9,900 168 310 768
2021-07-29 17:09:26 GMT 41.682129 -87.796242 9,825 168 309 704
2021-07-29 17:09:23 GMT 41.686413 -87.797432 9,825 168 309 896
2021-07-29 17:09:21 GMT 41.690323 -87.798515 9,750 168 308 1088
2021-07-29 17:09:18 GMT 41.694534 -87.799675 9,700 167 308 832
2021-07-29 17:09:15 GMT 41.698105 -87.800735 9,675 167 309 768
2021-07-29 17:09:12 GMT 41.701538 -87.801674 9,575 167 309 768
2021-07-29 17:09:09 GMT 41.705475 -87.802856 9,600 167 309 832
2021-07-29 17:09:06 GMT 41.715088 -87.805542 9,500 168 310 1408
2021-07-29 17:09:03 GMT 41.715088 -87.805542 9,450 168 308 2112
2021-07-29 17:08:59 GMT 41.721142 -87.807144 9,275 168 306 2816
2021-07-29 17:08:56 GMT 41.725388 -87.808228 9,100 169 307 3712
2021-07-29 17:08:52 GMT 41.730171 -87.809441 8,900 169 309 3584
2021-07-29 17:08:49 GMT 41.735596 -87.810783 8,675 167 310 3008
2021-07-29 17:08:46 GMT 41.739296 -87.811996 8,575 160 312 2752
2021-07-29 17:08:43 GMT 41.743206 -87.813591 8,375 160 312 2752
2021-07-29 17:08:40 GMT 41.746216 -87.815033 8,350 159 312 2624
2021-07-29 17:08:38 GMT 41.748871 -87.816467 8,275 156 312 2240
2021-07-29 17:08:35 GMT 41.754005 -87.819466 8,125 154 311 1984
2021-07-29 17:08:31 GMT 41.759174 -87.822983 8,025 148 307 1024
2021-07-29 17:08:26 GMT 41.767109 -87.822456 6,400 132 298 3904
2021-07-29 17:08:24 GMT 41.768959 -87.825172 6,400 132 298 3904
2021-07-29 17:08:23 GMT 41.769890 -87.826530 6,400 132 298 3904
2021-07-29 17:08:22 GMT 41.771751 -87.829247 6,400 132 298 3904
2021-07-29 17:08:20 GMT 41.772678 -87.830612 6,400 132 298 3904
2021-07-29 17:08:19 GMT 41.773609 -87.831963 6,400 132 298 3904
2021-07-29 17:08:18 GMT 41.775471 -87.834679 6,400 132 298 3904
2021-07-29 17:08:16 GMT 41.776390 -87.836037 6,400 132 298 3904
2021-07-29 17:08:15 GMT 41.778252 -87.838760 6,400 132 298 3904
2021-07-29 17:08:13 GMT 41.779179 -87.840118 6,400 132 298 3904
2021-07-29 17:08:12 GMT 41.780109 -87.841469 6,400 132 298 3904
2021-07-29 17:08:10 GMT 41.781971 -87.844193 6,400 132 298 3904
2021-07-29 17:08:09 GMT 41.782902 -87.845551 6,400 132 298 3904
2021-07-29 17:08:08 GMT 41.783821 -87.846909 6,400 132 298 3904
2021-07-29 17:08:06 GMT 41.785679 -87.849632 6,400 132 298 3904
2021-07-29 17:08:05 GMT 41.787540 -87.852348 6,400 132 298 3904
2021-07-29 17:08:03 GMT 41.788471 -87.853706 6,400 132 298 3904
2021-07-29 17:08:02 GMT 41.789398 -87.855072 6,400 132 298 3904
2021-07-29 17:08:00 GMT 41.791248 -87.857780 6,400 132 298 3904
2021-07-29 17:07:59 GMT 41.792179 -87.859138 6,400 132 298 3904
2021-07-29 17:07:57 GMT 41.794041 -87.861862 6,400 132 298 3744
2021-07-29 17:07:56 GMT 41.795898 -87.863380 6,400 132 310 3744
2021-07-29 17:07:54 GMT 41.796848 -87.864822 6,400 132 310 3744
2021-07-29 17:07:53 GMT 41.797798 -87.866257 6,400 132 310 3744
2021-07-29 17:07:51 GMT 41.799709 -87.869133 6,400 132 310 3744
2021-07-29 17:07:50 GMT 41.800831 -87.870247 6,000 134 306 3744
2021-07-29 17:07:48 GMT 41.802738 -87.873032 6,000 134 306 3744
2021-07-29 17:07:47 GMT 41.803699 -87.874428 6,000 134 306 3744
2021-07-29 17:07:46 GMT 41.805599 -87.877136 5,700 139 300 3744
2021-07-29 17:07:44 GMT 41.806599 -87.878441 5,700 139 300 3744
2021-07-29 17:07:43 GMT 41.807598 -87.879730 5,700 139 300 3744
2021-07-29 17:07:41 GMT 41.809120 -87.883560 5,400 149 292 3744
2021-07-29 17:07:40 GMT 41.811310 -87.885674 5,400 149 292 3744
2021-07-29 17:07:38 GMT 41.812401 -87.886719 5,400 149 292 3744
2021-07-29 17:07:37 GMT 41.813499 -87.887779 5,400 149 292 3744
2021-07-29 17:07:35 GMT 41.815170 -87.891663 5,000 160 286 3744
2021-07-29 17:07:34 GMT 41.816380 -87.892380 5,000 160 286 3744
2021-07-29 17:07:32 GMT 41.818298 -87.897690 5,000 172 282 3744
2021-07-29 17:07:31 GMT 41.819592 -87.897942 5,000 172 282 3744
2021-07-29 17:07:30 GMT 41.822182 -87.898460 5,000 172 282 3744
2021-07-29 17:07:28 GMT 41.823471 -87.898712 5,100 172 282 3744
2021-07-29 17:07:27 GMT 41.825600 -87.899879 4,900 173 293 3744
2021-07-29 17:07:25 GMT 41.826939 -87.900124 4,900 173 293 3744
2021-07-29 17:07:24 GMT 41.828289 -87.900360 4,900 173 293 3744
2021-07-29 17:07:23 GMT 41.830742 -87.901581 4,700 175 294 3744
2021-07-29 17:07:21 GMT 41.832100 -87.901733 4,700 175 294 3744
2021-07-29 17:07:19 GMT 41.834808 -87.902031 4,700 175 294 3744
2021-07-29 17:07:18 GMT 41.836491 -87.902252 4,600 174 280 3744
2021-07-29 17:07:17 GMT 41.837780 -87.902397 4,600 174 280 3744
2021-07-29 17:07:15 GMT 41.840359 -87.902679 4,600 174 280 3744
2021-07-29 17:07:14 GMT 41.841648 -87.902817 4,600 174 280 3744
2021-07-29 17:07:12 GMT 41.844421 -87.902519 4,400 173 270 3744
2021-07-29 17:07:11 GMT 41.845661 -87.902733 4,400 173 270 3744
2021-07-29 17:07:10 GMT 41.848110 -87.903542 4,400 174 266 3744
2021-07-29 17:07:08 GMT 41.849331 -87.903702 4,400 174 266 3744
2021-07-29 17:07:07 GMT 41.851780 -87.904007 4,425 174 266 3744
2021-07-29 17:07:05 GMT 41.854568 -87.904442 4,300 174 250 3744
2021-07-29 17:07:03 GMT 41.855721 -87.904579 4,300 174 250 3744
2021-07-29 17:07:02 GMT 41.856869 -87.904709 4,300 174 250 3744
2021-07-29 17:07:01 GMT 41.859211 -87.904999 4,200 174 246 3744
2021-07-29 17:06:59 GMT 41.860619 -87.905029 4,100 174 239 3744
2021-07-29 17:06:58 GMT 41.861721 -87.905182 4,100 174 239 192
2021-07-29 17:06:56 GMT 41.863831 -87.905571 3,800 174 242 192
2021-07-29 17:06:55 GMT 41.865108 -87.905548 3,800 173 238 192
2021-07-29 17:06:53 GMT 41.867298 -87.905869 3,800 173 238 192
2021-07-29 17:06:52 GMT 41.868389 -87.906036 3,800 173 238 192
2021-07-29 17:06:51 GMT 41.869438 -87.906250 3,800 174 239 192
2021-07-29 17:06:50 GMT 41.870380 -87.906387 3,600 174 246 192
2021-07-29 17:06:48 GMT 41.872639 -87.906700 3,600 174 246 192
2021-07-29 17:06:47 GMT 41.873699 -87.906860 3,600 173 249 192
2021-07-29 17:06:46 GMT 41.874821 -87.907013 3,600 173 251 192
2021-07-29 17:06:44 GMT 41.877201 -87.907303 3,600 172 244 192
2021-07-29 17:06:42 GMT 41.879471 -87.907677 3,600 172 240 192
2021-07-29 17:06:40 GMT 41.881649 -87.907997 3,500 172 243 192
2021-07-29 17:06:39 GMT 41.883919 -87.908371 3,500 171 239 192
2021-07-29 17:06:38 GMT 41.884979 -87.908577 3,400 172 241 192
2021-07-29 17:06:36 GMT 41.887180 -87.909012 3,475 172 237 192
2021-07-29 17:06:34 GMT 41.888271 -87.909180 3,400 172 235 192
2021-07-29 17:06:33 GMT 41.889359 -87.909409 3,400 172 230 192
2021-07-29 17:06:31 GMT 41.891499 -87.909813 3,400 173 224 192
2021-07-29 17:06:30 GMT 41.892590 -87.909988 3,400 173 218 192
2021-07-29 17:06:28 GMT 41.894520 -87.910316 3,400 173 223 192
2021-07-29 17:06:27 GMT 41.895649 -87.910538 3,300 173 212 192
2021-07-29 17:06:26 GMT 41.897709 -87.910858 3,300 173 202 192
2021-07-29 17:06:24 GMT 41.898609 -87.910957 3,300 173 206 -352
2021-07-29 17:06:23 GMT 41.899521 -87.911118 3,300 173 208 2368
2021-07-29 17:06:21 GMT 41.901409 -87.911392 3,300 172 207 2368
2021-07-29 17:06:20 GMT 41.902390 -87.911537 3,300 172 204 2368
2021-07-29 17:06:18 GMT 41.904251 -87.911873 3,200 172 201 2368
2021-07-29 17:06:17 GMT 41.906120 -87.912216 3,200 172 197 2368
2021-07-29 17:06:15 GMT 41.907051 -87.912422 3,200 172 192 2368
2021-07-29 17:06:14 GMT 41.908859 -87.912666 3,125 171 190 2368
2021-07-29 17:06:12 GMT 41.909721 -87.912880 3,125 172 190 2368
2021-07-29 17:06:11 GMT 41.910591 -87.913040 3,000 172 190 2368
2021-07-29 17:06:09 GMT 41.912361 -87.913353 3,050 172 184 2368
2021-07-29 17:06:08 GMT 41.913200 -87.913551 2,900 173 183 2368
2021-07-29 17:06:07 GMT 41.914879 -87.913727 2,900 171 186 2368
2021-07-29 17:06:05 GMT 41.915680 -87.913872 2,800 171 189 2368
2021-07-29 17:06:04 GMT 41.916561 -87.914001 2,800 171 188 2368
2021-07-29 17:06:02 GMT 41.918308 -87.914368 2,800 173 184 2368
2021-07-29 17:06:01 GMT 41.919151 -87.914520 2,800 174 184 2368
2021-07-29 17:05:59 GMT 41.920849 -87.914749 2,700 175 184 2368
2021-07-29 17:05:58 GMT 41.921661 -87.914871 2,600 176 187 160
2021-07-29 17:05:57 GMT 41.923450 -87.914978 2,600 176 179 160
2021-07-29 17:05:55 GMT 41.924221 -87.915031 2,450 176 184 160
2021-07-29 17:05:53 GMT 41.925911 -87.915062 2,450 175 185 160
2021-07-29 17:05:52 GMT 41.927620 -87.915131 2,400 175 185 160
2021-07-29 17:05:50 GMT 41.928429 -87.915161 2,200 176 187 160
2021-07-29 17:05:49 GMT 41.929260 -87.915230 2,200 177 188 160
2021-07-29 17:05:47 GMT 41.930931 -87.915329 2,200 181 190 160
2021-07-29 17:05:46 GMT 41.931782 -87.915321 2,200 184 189 160
2021-07-29 17:05:44 GMT 41.933472 -87.915222 2,000 189 188 160
2021-07-29 17:05:43 GMT 41.934349 -87.915062 2,000 190 186 160
2021-07-29 17:05:41 GMT 41.935970 -87.914680 1,875 196 186 160
2021-07-29 17:05:40 GMT 41.937649 -87.914139 1,875 202 182 160
2021-07-29 17:05:38 GMT 41.938492 -87.913727 1,800 205 176 160
2021-07-29 17:05:37 GMT 41.939281 -87.913261 1,800 206 171 160
2021-07-29 17:05:36 GMT 41.940708 -87.912331 1,625 209 170 160
2021-07-29 17:05:34 GMT 41.941399 -87.911797 1,625 210 168 160
2021-07-29 17:05:33 GMT 41.942799 -87.910759 1,600 214 163 160
2021-07-29 17:05:31 GMT 41.943409 -87.910233 1,400 215 167 160
2021-07-29 17:05:30 GMT 41.944069 -87.909630 1,400 216 164 160
2021-07-29 17:05:29 GMT 41.945320 -87.908371 1,325 218 161 160
2021-07-29 17:05:27 GMT 41.945961 -87.907738 1,325 219 157 160
2021-07-29 17:05:25 GMT 41.947079 -87.906509 1,275 220 164 160
2021-07-29 17:05:24 GMT 41.948261 -87.905182 1,200 220 164 160
2021-07-29 17:05:22 GMT 41.949379 -87.903893 1,050 220 169 160
2021-07-29 17:05:20 GMT 41.950539 -87.902542 1,100 221 167 2944
2021-07-29 17:05:18 GMT 41.951099 -87.901871 900 219 174 160
2021-07-29 17:05:17 GMT 41.951729 -87.901176 900 219 172 160
2021-07-29 17:05:15 GMT 41.953541 -87.899117 800 222 166 160
2021-07-29 17:05:13 GMT 41.954102 -87.898438 675 221 170 160
2021-07-29 17:05:12 GMT 41.954670 -87.897751 675 221 170 160
2021-07-29 17:05:11 GMT 41.955231 -87.897034 675 220 170 160
2021-07-29 17:05:09 GMT 41.956421 -87.895691 675 220 168 160
2021-07-29 17:05:07 GMT 41.957600 -87.894371 650 221 166 160
2021-07-29 17:05:06 GMT 41.958160 -87.893669 650 221 163 160
2021-07-29 17:05:05 GMT 41.959270 -87.892342 650 220 157 160
2021-07-29 17:05:03 GMT 41.959881 -87.891708 650 222 150 160
2021-07-29 17:05:01 GMT 41.960869 -87.890457 650 221 146 160
2021-07-29 17:05:00 GMT 41.961391 -87.889847 650 221 142 -352
2021-07-29 17:04:59 GMT 41.961891 -87.889282 650 221 139 64
2021-07-29 17:04:57 GMT 41.962879 -87.888138 650 222 128 -64
2021-07-29 17:04:56 GMT 41.963310 -87.887611 650 222 126 -64
2021-07-29 17:04:55 GMT 41.964161 -87.886559 650 221 120 -64
2021-07-29 17:04:53 GMT 41.964569 -87.886078 650 221 117 -64
2021-07-29 17:04:51 GMT 41.965359 -87.885132 675 221 107 0
2021-07-29 17:04:50 GMT 41.965752 -87.884682 675 221 102 0
2021-07-29 17:04:48 GMT 41.966450 -87.883842 675 221 90 0
2021-07-29 17:04:47 GMT 41.966751 -87.883469 675 220 88 0
2021-07-29 17:04:46 GMT 41.967030 -87.883118 675 219 86 0
2021-07-29 17:04:44 GMT 41.967651 -87.882462 0 221 73 0
2021-07-29 17:04:43 GMT 41.967911 -87.882172 0 222 68 -128
2021-07-29 17:04:42 GMT 41.968140 -87.881866 0 221 63 -128
2021-07-29 17:04:40 GMT 41.968571 -87.881332 0 222 51
2021-07-29 17:04:39 GMT 41.968929 -87.880898 0 221 38
2021-07-29 17:04:37 GMT 41.969109 -87.880707 0 223 30
2021-07-29 17:04:35 GMT 41.969360 -87.880417 0 223 17
2021-07-29 17:04:34 GMT 41.969440 -87.880272 0 215 10
2021-07-29 17:04:32 GMT 41.969570 -87.880150 0 219 1
2021-07-29 17:04:31 GMT 41.969589 -87.880127 0 219 0
2021-07-29 17:04:28 GMT 41.969639 -87.880104 0 220 0
2021-07-29 17:04:26 GMT 41.969601 -87.880127 0 220 0
2021-07-29 17:04:25 GMT 41.969601 -87.880119 0 220 1
2021-07-29 17:04:23 GMT 41.969601 -87.880127 0 220 0
2021-07-29 17:04:22 GMT 41.969589 -87.880142 0 220 2
2021-07-29 17:04:21 GMT 41.969601 -87.880112 0 220 1
2021-07-29 17:04:19 GMT 41.969601 -87.880119 0 221 0
2021-07-29 17:04:17 GMT 41.969589 -87.880142 0 224 2
2021-07-29 17:04:16 GMT 41.969601 -87.880142 0 227 2
2021-07-29 17:04:14 GMT 41.969589 -87.880142 0 231 4
2021-07-29 17:04:13 GMT 41.969582 -87.880127 0 219 6
2021-07-29 17:04:12 GMT 41.969589 -87.880089 0 214 10
2021-07-29 17:04:10 GMT 41.969631 -87.880051 0 203 9
2021-07-29 17:04:08 GMT 41.969681 -87.879997 0 190 8
2021-07-29 17:04:07 GMT 41.969769 -87.879959 0 170 6
2021-07-29 17:04:05 GMT 41.969799 -87.879936 0 157 6
2021-07-29 17:04:04 GMT 41.969872 -87.879959 0 139 7
2021-07-29 17:04:02 GMT 41.969898 -87.879959 0 132 9
2021-07-29 17:04:01 GMT 41.969952 -87.880051 0 134 9
2021-07-29 17:03:59 GMT 41.969978 -87.880074 0 135 11
2021-07-29 17:03:58 GMT 41.970001 -87.880112 0 140 11
2021-07-29 17:03:56 GMT 41.970058 -87.880241 0 171 11
2021-07-29 17:03:55 GMT 41.970081 -87.880318 0 184 14
2021-07-29 17:03:53 GMT 41.970219 -87.880287 0 173 11
2021-07-29 17:03:52 GMT 41.970268 -87.880302 0 177 12
2021-07-29 17:03:51 GMT 41.970379 -87.880302 0 173 14
2021-07-29 17:03:48 GMT 41.970509 -87.880333 0 172 13
2021-07-29 17:03:47 GMT 41.970570 -87.880333 0 178 13
2021-07-29 17:03:46 GMT 41.970638 -87.880371 0 183 12
2021-07-29 17:03:45 GMT 41.970749 -87.880348 0 183 12
2021-07-29 17:03:43 GMT 41.970779 -87.880363 0 184 15
2021-07-29 17:03:42 GMT 41.970860 -87.880341 0 181 14
2021-07-29 17:03:40 GMT 41.971020 -87.880333 0 180 11
2021-07-29 17:03:39 GMT 41.971100 -87.880318 0 169 13
2021-07-29 17:03:38 GMT 41.971180 -87.880333 0 168 11
2021-07-29 17:03:36 GMT 41.971218 -87.880333 0 166 12
2021-07-29 17:03:34 GMT 41.971340 -87.880371 0 162 12
2021-07-29 17:03:33 GMT 41.971390 -87.880371 0 152 13
2021-07-29 17:03:32 GMT 41.971470 -87.880432 0 139 13
2021-07-29 17:03:30 GMT 41.971550 -87.880447 0 124 12
2021-07-29 17:03:29 GMT 41.971611 -87.880493 0 113 10
2021-07-29 17:03:28 GMT 41.971661 -87.880600 0 104 12
2021-07-29 17:03:26 GMT 41.971710 -87.880737 0 91 10
2021-07-29 17:03:24 GMT 41.971729 -87.880821 0 85 10
2021-07-29 17:03:22 GMT 41.971722 -87.880928 0 88 11
2021-07-29 17:03:21 GMT 41.971710 -87.880997 0 92 11
2021-07-29 17:03:20 GMT 41.971729 -87.881142 0 80 11
2021-07-29 17:03:18 GMT 41.971729 -87.881203 0 79 13
2021-07-29 17:03:16 GMT 41.971691 -87.881371 0 96 10
2021-07-29 17:03:14 GMT 41.971722 -87.881493 0 85 11
2021-07-29 17:03:13 GMT 41.971729 -87.881561 0 80 11
2021-07-29 17:03:12 GMT 41.971699 -87.881630 0 89 11
2021-07-29 17:03:10 GMT 41.971699 -87.881767 0 90 10
2021-07-29 17:03:09 GMT 41.971691 -87.881844 0 96 10
2021-07-29 17:03:08 GMT 41.971710 -87.881943 0 89 12
2021-07-29 17:03:06 GMT 41.971710 -87.882011 0 86 13
2021-07-29 17:03:04 GMT 41.971710 -87.882179 0 87 11
2021-07-29 17:03:03 GMT 41.971691 -87.882317 0 93 12
2021-07-29 17:03:01 GMT 41.971722 -87.882378 0 85 14
2021-07-29 17:03:00 GMT 41.971710 -87.882462 0 87 14
2021-07-29 17:02:58 GMT 41.971710 -87.882629 0 82 14
2021-07-29 17:02:57 GMT 41.971691 -87.882713 0 89 15
2021-07-29 17:02:55 GMT 41.971668 -87.882896 0 100 15
2021-07-29 17:02:54 GMT 41.971710 -87.882988 0 89 15
2021-07-29 17:02:52 GMT 41.971710 -87.883171 0 84 15
2021-07-29 17:02:51 GMT 41.971699 -87.883263 0 86 15
2021-07-29 17:02:50 GMT 41.971680 -87.883362 0 96 15
2021-07-29 17:02:48 GMT 41.971710 -87.883537 0 91 17
2021-07-29 17:02:46 GMT 41.971741 -87.883728 0 82 18
2021-07-29 17:02:45 GMT 41.971722 -87.883842 0 88 17
2021-07-29 17:02:44 GMT 41.971710 -87.884048 0 95 17
2021-07-29 17:02:42 GMT 41.971710 -87.884171 0 99 15
2021-07-29 17:02:40 GMT 41.971729 -87.884369 0 108 15
2021-07-29 17:02:39 GMT 41.971741 -87.884453 0 114 16
2021-07-29 17:02:38 GMT 41.971779 -87.884651 0 120 17
2021-07-29 17:02:36 GMT 41.971870 -87.884773 0 105 13
2021-07-29 17:02:34 GMT 41.971920 -87.884888 0 99 15
2021-07-29 17:02:32 GMT 41.971958 -87.885109 0 88 12
2021-07-29 17:02:30 GMT 41.971958 -87.885239 0 84 16
2021-07-29 17:02:28 GMT 41.971939 -87.885437 0 88 14
2021-07-29 17:02:27 GMT 41.971951 -87.885513 0 85 15
2021-07-29 17:02:26 GMT 41.971951 -87.885597 0 81 15
2021-07-29 17:02:24 GMT 41.971901 -87.885811 0 95 12
2021-07-29 17:02:23 GMT 41.971920 -87.885941 0 92 13
2021-07-29 17:02:21 GMT 41.971909 -87.886032 0 98 13
2021-07-29 17:02:20 GMT 41.971920 -87.886093 0 94 15
2021-07-29 17:02:18 GMT 41.971951 -87.886299 0 88 12
2021-07-29 17:02:17 GMT 41.971931 -87.886391 0 92 10
2021-07-29 17:02:16 GMT 41.971939 -87.886513 0 88 11
2021-07-29 17:02:14 GMT 41.971951 -87.886551 0 85 14
2021-07-29 17:02:13 GMT 41.971920 -87.886650 0 94 13
2021-07-29 17:02:11 GMT 41.971939 -87.886780 0 93 14
2021-07-29 17:02:09 GMT 41.971931 -87.886963 0 97 12
2021-07-29 17:02:08 GMT 41.971951 -87.887039 0 91 11
2021-07-29 17:02:07 GMT 41.971970 -87.887108 0 87 11
2021-07-29 17:02:05 GMT 41.971970 -87.887238 0 85 14
2021-07-29 17:02:04 GMT 41.971951 -87.887329 0 88 13
2021-07-29 17:02:02 GMT 41.971951 -87.887489 0 88 11
2021-07-29 17:02:01 GMT 41.971951 -87.887657 0 87 11
2021-07-29 17:01:59 GMT 41.971958 -87.887749 0 85 8
2021-07-29 17:01:58 GMT 41.971951 -87.887810 0 89 12
2021-07-29 17:01:56 GMT 41.971939 -87.887894 0 91 12
2021-07-29 17:01:55 GMT 41.971951 -87.888031 0 89 13
2021-07-29 17:01:53 GMT 41.971951 -87.888123 0 88 12
2021-07-29 17:01:51 GMT 41.971970 -87.888268 0 83 13
2021-07-29 17:01:49 GMT 41.971939 -87.888428 0 93 10
2021-07-29 17:01:47 GMT 41.971970 -87.888611 0 86 10
2021-07-29 17:01:45 GMT 41.971951 -87.888680 0 93 15
2021-07-29 17:01:44 GMT 41.971939 -87.888786 0 97 14
2021-07-29 17:01:42 GMT 41.971981 -87.888969 0 83 12
2021-07-29 17:01:40 GMT 41.971981 -87.889130 0 83 11
2021-07-29 17:01:39 GMT 41.971958 -87.889183 0 91 13
2021-07-29 17:01:37 GMT 41.971939 -87.889351 0 93 13
2021-07-29 17:01:36 GMT 41.971958 -87.889427 0 88 13
2021-07-29 17:01:34 GMT 41.971951 -87.889603 0 93 12
2021-07-29 17:01:33 GMT 41.971939 -87.889671 0 96 14
2021-07-29 17:01:32 GMT 41.971970 -87.889847 0 87 15
2021-07-29 17:01:30 GMT 41.971951 -87.889938 0 89 14
2021-07-29 17:01:29 GMT 41.971958 -87.890022 0 88 14
2021-07-29 17:01:27 GMT 41.971958 -87.890213 0 84 13
2021-07-29 17:01:26 GMT 41.971951 -87.890289 0 85 13
2021-07-29 17:01:24 GMT 41.971939 -87.890442 0 91 13
2021-07-29 17:01:23 GMT 41.971909 -87.890518 0 97 13
2021-07-29 17:01:22 GMT 41.971939 -87.890648 0 93 15
2021-07-29 17:01:20 GMT 41.971939 -87.890732 0 93 17
2021-07-29 17:01:19 GMT 41.971958 -87.890846 0 87 15
2021-07-29 17:01:17 GMT 41.971958 -87.891052 0 82 13
2021-07-29 17:01:16 GMT 41.971939 -87.891144 0 88 13
2021-07-29 17:01:15 GMT 41.971939 -87.891220 0 90 13
2021-07-29 17:01:13 GMT 41.971951 -87.891403 0 87 12
2021-07-29 17:01:12 GMT 41.971951 -87.891457 0 86 14
2021-07-29 17:01:11 GMT 41.971939 -87.891541 0 91 14
2021-07-29 17:01:09 GMT 41.971951 -87.891708 0 92 13
2021-07-29 17:01:08 GMT 41.971939 -87.891792 0 91 12
2021-07-29 17:01:06 GMT 41.971951 -87.891930 0 90 14
2021-07-29 17:01:05 GMT 41.971951 -87.892029 0 85 12
2021-07-29 17:01:03 GMT 41.971939 -87.892174 0 91 13
2021-07-29 17:01:02 GMT 41.971951 -87.892242 0 90 14
2021-07-29 17:01:01 GMT 41.971939 -87.892441 0 95 12
2021-07-29 17:00:59 GMT 41.971970 -87.892509 0 82 12
2021-07-29 17:00:58 GMT 41.971981 -87.892570 0 79 14
2021-07-29 17:00:57 GMT 41.971939 -87.892731 0 91 14
2021-07-29 17:00:55 GMT 41.971958 -87.892830 0 85 14
2021-07-29 17:00:54 GMT 41.971939 -87.892906 0 86 13
2021-07-29 17:00:53 GMT 41.971931 -87.893059 0 90 14
2021-07-29 17:00:51 GMT 41.971931 -87.893143 0 93 15
2021-07-29 17:00:50 GMT 41.971939 -87.893227 0 90 15
2021-07-29 17:00:48 GMT 41.971939 -87.893402 0 89 15
2021-07-29 17:00:47 GMT 41.971951 -87.893600 0 88 14
2021-07-29 17:00:45 GMT 41.971951 -87.893669 0 89 15
2021-07-29 17:00:44 GMT 41.971931 -87.893784 0 95 14
2021-07-29 17:00:43 GMT 41.971951 -87.893883 0 88 12
2021-07-29 17:00:41 GMT 41.971958 -87.894020 0 81 11
2021-07-29 17:00:40 GMT 41.971951 -87.894096 0 78 11
2021-07-29 17:00:38 GMT 41.971939 -87.894234 0 82 15
2021-07-29 17:00:36 GMT 41.971901 -87.894402 0 100 14
2021-07-29 17:00:35 GMT 41.971901 -87.894508 0 105 13
2021-07-29 17:00:34 GMT 41.971909 -87.894577 0 105 14
2021-07-29 17:00:32 GMT 41.971939 -87.894737 0 111 13
2021-07-29 17:00:31 GMT 41.971951 -87.894821 0 115 13
2021-07-29 17:00:30 GMT 41.972012 -87.895020 0 125 9
2021-07-29 17:00:28 GMT 41.972061 -87.895119 0 132 10
2021-07-29 17:00:26 GMT 41.972080 -87.895180 0 138 9
2021-07-29 17:00:25 GMT 41.972099 -87.895218 0 140 11
2021-07-29 17:00:24 GMT 41.972118 -87.895241 0 139 14
2021-07-29 17:00:22 GMT 41.972221 -87.895363 0 145 13
2021-07-29 17:00:21 GMT 41.972279 -87.895416 0 142 11
2021-07-29 17:00:19 GMT 41.972370 -87.895508 0 140 10
2021-07-29 17:00:18 GMT 41.972401 -87.895538 0 140 11
2021-07-29 17:00:17 GMT 41.972462 -87.895630 0 148 13
2021-07-29 17:00:15 GMT 41.972488 -87.895668 0 150 15
2021-07-29 17:00:14 GMT 41.972610 -87.895729 0 142 18
2021-07-29 17:00:12 GMT 41.972672 -87.895767 0 141 18
2021-07-29 17:00:10 GMT 41.972809 -87.895912 0 145 14
2021-07-29 17:00:09 GMT 41.972931 -87.895981 0 158 12
2021-07-29 17:00:07 GMT 41.972961 -87.896019 0 174 12
2021-07-29 17:00:06 GMT 41.973080 -87.896103 0 196 11
2021-07-29 17:00:04 GMT 41.973179 -87.896103 0 214 12
2021-07-29 17:00:03 GMT 41.973228 -87.896072 0 217 12
2021-07-29 17:00:01 GMT 41.973259 -87.896027 0 217 14
2021-07-29 17:00:00 GMT 41.973331 -87.895988 0 225 13
2021-07-29 16:59:58 GMT 41.973412 -87.895851 0 213 12
2021-07-29 16:59:57 GMT 41.973450 -87.895798 0 208 12
2021-07-29 16:59:55 GMT 41.973549 -87.895714 0 208 13
2021-07-29 16:59:54 GMT 41.973610 -87.895699 0 210 13
2021-07-29 16:59:53 GMT 41.973709 -87.895622 0 206 12
2021-07-29 16:59:51 GMT 41.973759 -87.895569 0 205 12
2021-07-29 16:59:50 GMT 41.973808 -87.895554 0 207 13
2021-07-29 16:59:48 GMT 41.973911 -87.895470 0 201 13
2021-07-29 16:59:47 GMT 41.973949 -87.895416 0 198 14
2021-07-29 16:59:45 GMT 41.974060 -87.895363 0 193 15
2021-07-29 16:59:44 GMT 41.974140 -87.895348 0 194 13
2021-07-29 16:59:43 GMT 41.974251 -87.895287 0 183 13
2021-07-29 16:59:41 GMT 41.974300 -87.895264 0 181 15
2021-07-29 16:59:40 GMT 41.974400 -87.895279 0 191 13
2021-07-29 16:59:39 GMT 41.974491 -87.895218 0 180 15
2021-07-29 16:59:37 GMT 41.974579 -87.895218 0 179 14
2021-07-29 16:59:35 GMT 41.974689 -87.895233 0 183 15
2021-07-29 16:59:34 GMT 41.974758 -87.895233 0 186 15
2021-07-29 16:59:33 GMT 41.974831 -87.895210 0 183 14
2021-07-29 16:59:31 GMT 41.974949 -87.895187 0 178 15
2021-07-29 16:59:29 GMT 41.975071 -87.895187 0 173 17
2021-07-29 16:59:28 GMT 41.975159 -87.895241 0 182 15
2021-07-29 16:59:27 GMT 41.975231 -87.895233 0 179 15
2021-07-29 16:59:26 GMT 41.975368 -87.895241 0 182 15
2021-07-29 16:59:24 GMT 41.975430 -87.895233 0 182 15
2021-07-29 16:59:23 GMT 41.975521 -87.895264 0 183 13
2021-07-29 16:59:21 GMT 41.975639 -87.895210 0 181 13
2021-07-29 16:59:20 GMT 41.975689 -87.895210 0 180 14
2021-07-29 16:59:18 GMT 41.975830 -87.895210 0 182 13
2021-07-29 16:59:17 GMT 41.975960 -87.895180 0 177 13
2021-07-29 16:59:15 GMT 41.975990 -87.895180 0 176 15
2021-07-29 16:59:14 GMT 41.976059 -87.895172 0 173 16
2021-07-29 16:59:13 GMT 41.976212 -87.895210 0 175 16
2021-07-29 16:59:11 GMT 41.976292 -87.895241 0 182 15
2021-07-29 16:59:09 GMT 41.976440 -87.895264 0 190 15
2021-07-29 16:59:08 GMT 41.976501 -87.895187 0 175 14
2021-07-29 16:59:06 GMT 41.976631 -87.895218 0 179 14
2021-07-29 16:59:05 GMT 41.976700 -87.895203 0 175 14
2021-07-29 16:59:03 GMT 41.976879 -87.895218 0 177 15
2021-07-29 16:59:01 GMT 41.976959 -87.895233 0 177 14
2021-07-29 16:59:00 GMT 41.977119 -87.895248 0 189 11
2021-07-29 16:58:58 GMT 41.977161 -87.895332 0 204 13
2021-07-29 16:58:57 GMT 41.977211 -87.895302 0 202 14
2021-07-29 16:58:55 GMT 41.977299 -87.895218 0 188 15
2021-07-29 16:58:53 GMT 41.977428 -87.895180 0 171 14
2021-07-29 16:58:52 GMT 41.977489 -87.895180 0 163 14
2021-07-29 16:58:51 GMT 41.977558 -87.895187 0 149 13
2021-07-29 16:58:50 GMT 41.977612 -87.895203 0 141 13
2021-07-29 16:58:49 GMT 41.977711 -87.895271 0 122 13
2021-07-29 16:58:47 GMT 41.977760 -87.895317 0 111 13
2021-07-29 16:58:45 GMT 41.977821 -87.895508 0 101 8
2021-07-29 16:58:44 GMT 41.977859 -87.895538 0 88 9
2021-07-29 16:58:43 GMT 41.977859 -87.895561 0 86 13
2021-07-29 16:58:41 GMT 41.977840 -87.895866 0 81 4
2021-07-29 16:58:40 GMT 41.977840 -87.895958 0 81 3

Making use of Plane Finder data

You are free to use the raw flight data, aircraft information and images provided in this report for your own purposes provided the data is correctly attributed to Plane Finder. We ask that you please credit Plane Finder and link to planefinder.net in close proximity to the content.

Optionally one of the following logos (no smaller then 150x24px) can be used and must link to planefinder.net

Embedding the Plane Finder map

You are welcome to embed the Plane Finder playback map on your website to offer visitors a more interactive experience. We suggest using the following HTML code:

<iframe src="//planefinder.net/data/report/AA4206-N244NN-7700-squawk-2021-07-29/map" width="800" height="600" seamless="seamless"></iframe>

Where our data comes from

Plane Finder has a global network of data feeds and antenna radars that receive data broadcast directly from aircraft. The primary technologies used are ADS-B and MLAT. We also show feeds from the FAA and a FLARM glider feed.

Click here to find out more about the Plane Finder network.

How we collect our data